<?xml version="1.0" encoding="UTF-8" standalone="no" ?>
<gpx xmlns="http://www.topografix.com/GPX/1/1" xmlns:xsi="http://www.w3.org/2001/XMLSchema-instance" xsi:schemaLocation="http://www.topografix.com/GPX/1/1 http://www.topografix.com/GPX/1/1/gpx.xsd" version="1.1" creator="VisuGPX - https://www.visugpx.com">
  <metadata>
    <name>21 kms VTT au Cellier</name>
    <desc><![CDATA[Il n?y a qu?a prendre la nationale de Sainte-Luce-sur-Loire vers Ancenis, et passer par le vallon de Seilleraye pour comprendre que le dénivelé va être costaud. 

Votre VTT accroché à votre voiture, poussez un peu plus et rejoignez le bourg du Cellier. La route sinueuse et vallonnée, n?a rien à envier aux massifs montagneux du sud de la France? 

Garez vous sur le parking de la gare, et à partir de là, vous pourrez faire une boucle déroutante. Testez notre échauffement en direction du bourg du Cellier avec une côte de dingue qui vous chauffera les cuisseaux !!! 

Dirigez vous derrière l?église et vous pouvez commencer à rejoindre les sentiers escarpés. ]]></desc>
  </metadata>
  <trk>
    <name><![CDATA[runtastic_20150318_1434]]></name>
    <trkseg>
      <trkpt lat="47.36351" lon="-1.34375">
        <ele>134</ele>
        <time>2015-03-18T13:34:24.000Z</time>
      </trkpt>
      <trkpt lat="47.36357" lon="-1.3439">
        <ele>106</ele>
        <time>2015-03-18T13:34:26.000Z</time>
      </trkpt>
      <trkpt lat="47.36357" lon="-1.3439">
        <ele>106</ele>
        <time>2015-03-18T13:34:27.000Z</time>
      </trkpt>
      <trkpt lat="47.36357" lon="-1.3439">
        <ele>106</ele>
        <time>2015-03-18T13:34:32.000Z</time>
      </trkpt>
      <trkpt lat="47.36378" lon="-1.34379">
        <ele>101</ele>
        <time>2015-03-18T13:35:00.000Z</time>
      </trkpt>
      <trkpt lat="47.36381" lon="-1.3437">
        <ele>100</ele>
        <time>2015-03-18T13:35:04.000Z</time>
      </trkpt>
      <trkpt lat="47.36375" lon="-1.34359">
        <ele>100</ele>
        <time>2015-03-18T13:35:08.000Z</time>
      </trkpt>
      <trkpt lat="47.36367" lon="-1.34347">
        <ele>101</ele>
        <time>2015-03-18T13:35:12.000Z</time>
      </trkpt>
      <trkpt lat="47.36361" lon="-1.34333">
        <ele>101</ele>
        <time>2015-03-18T13:35:16.000Z</time>
      </trkpt>
      <trkpt lat="47.36357" lon="-1.34327">
        <ele>101</ele>
        <time>2015-03-18T13:35:18.000Z</time>
      </trkpt>
      <trkpt lat="47.36353" lon="-1.3432">
        <ele>100</ele>
        <time>2015-03-18T13:35:20.000Z</time>
      </trkpt>
      <trkpt lat="47.36349" lon="-1.34313">
        <ele>101</ele>
        <time>2015-03-18T13:35:22.000Z</time>
      </trkpt>
      <trkpt lat="47.36344" lon="-1.34307">
        <ele>101</ele>
        <time>2015-03-18T13:35:26.000Z</time>
      </trkpt>
      <trkpt lat="47.36344" lon="-1.34307">
        <ele>101</ele>
        <time>2015-03-18T13:35:28.000Z</time>
      </trkpt>
      <trkpt lat="47.36344" lon="-1.34307">
        <ele>101</ele>
        <time>2015-03-18T13:35:30.000Z</time>
      </trkpt>
      <trkpt lat="47.36344" lon="-1.34307">
        <ele>101</ele>
        <time>2015-03-18T13:35:32.000Z</time>
      </trkpt>
      <trkpt lat="47.36344" lon="-1.34307">
        <ele>101</ele>
        <time>2015-03-18T13:35:34.000Z</time>
      </trkpt>
      <trkpt lat="47.36336" lon="-1.34295">
        <ele>99</ele>
        <time>2015-03-18T13:36:16.000Z</time>
      </trkpt>
      <trkpt lat="47.36327" lon="-1.34284">
        <ele>99</ele>
        <time>2015-03-18T13:36:18.000Z</time>
      </trkpt>
      <trkpt lat="47.36318" lon="-1.34274">
        <ele>99</ele>
        <time>2015-03-18T13:36:20.000Z</time>
      </trkpt>
      <trkpt lat="47.3631" lon="-1.34265">
        <ele>99</ele>
        <time>2015-03-18T13:36:22.000Z</time>
      </trkpt>
      <trkpt lat="47.36302" lon="-1.34255">
        <ele>100</ele>
        <time>2015-03-18T13:36:24.000Z</time>
      </trkpt>
      <trkpt lat="47.36286" lon="-1.34236">
        <ele>100</ele>
        <time>2015-03-18T13:36:26.000Z</time>
      </trkpt>
      <trkpt lat="47.36278" lon="-1.34227">
        <ele>100</ele>
        <time>2015-03-18T13:36:28.000Z</time>
      </trkpt>
      <trkpt lat="47.36272" lon="-1.34216">
        <ele>101</ele>
        <time>2015-03-18T13:36:30.000Z</time>
      </trkpt>
      <trkpt lat="47.36266" lon="-1.34207">
        <ele>102</ele>
        <time>2015-03-18T13:36:32.000Z</time>
      </trkpt>
      <trkpt lat="47.3626" lon="-1.34199">
        <ele>103</ele>
        <time>2015-03-18T13:36:34.000Z</time>
      </trkpt>
      <trkpt lat="47.36254" lon="-1.34191">
        <ele>103</ele>
        <time>2015-03-18T13:36:36.000Z</time>
      </trkpt>
      <trkpt lat="47.36247" lon="-1.3418">
        <ele>102</ele>
        <time>2015-03-18T13:36:38.000Z</time>
      </trkpt>
      <trkpt lat="47.3624" lon="-1.34166">
        <ele>99</ele>
        <time>2015-03-18T13:36:40.000Z</time>
      </trkpt>
      <trkpt lat="47.36232" lon="-1.34152">
        <ele>98</ele>
        <time>2015-03-18T13:36:42.000Z</time>
      </trkpt>
      <trkpt lat="47.36223" lon="-1.34137">
        <ele>97</ele>
        <time>2015-03-18T13:36:44.000Z</time>
      </trkpt>
      <trkpt lat="47.36213" lon="-1.3412">
        <ele>95</ele>
        <time>2015-03-18T13:36:46.000Z</time>
      </trkpt>
      <trkpt lat="47.36204" lon="-1.34101">
        <ele>93</ele>
        <time>2015-03-18T13:36:48.000Z</time>
      </trkpt>
      <trkpt lat="47.36194" lon="-1.34082">
        <ele>93</ele>
        <time>2015-03-18T13:36:50.000Z</time>
      </trkpt>
      <trkpt lat="47.36185" lon="-1.34065">
        <ele>93</ele>
        <time>2015-03-18T13:36:52.000Z</time>
      </trkpt>
      <trkpt lat="47.36174" lon="-1.34047">
        <ele>93</ele>
        <time>2015-03-18T13:36:54.000Z</time>
      </trkpt>
      <trkpt lat="47.36166" lon="-1.3403">
        <ele>93</ele>
        <time>2015-03-18T13:36:56.000Z</time>
      </trkpt>
      <trkpt lat="47.36157" lon="-1.34014">
        <ele>92</ele>
        <time>2015-03-18T13:36:58.000Z</time>
      </trkpt>
      <trkpt lat="47.36149" lon="-1.34005">
        <ele>94</ele>
        <time>2015-03-18T13:37:00.000Z</time>
      </trkpt>
      <trkpt lat="47.36141" lon="-1.33997">
        <ele>94</ele>
        <time>2015-03-18T13:37:02.000Z</time>
      </trkpt>
      <trkpt lat="47.36134" lon="-1.33991">
        <ele>95</ele>
        <time>2015-03-18T13:37:04.000Z</time>
      </trkpt>
      <trkpt lat="47.36126" lon="-1.33988">
        <ele>95</ele>
        <time>2015-03-18T13:37:06.000Z</time>
      </trkpt>
      <trkpt lat="47.36118" lon="-1.33986">
        <ele>96</ele>
        <time>2015-03-18T13:37:08.000Z</time>
      </trkpt>
      <trkpt lat="47.36111" lon="-1.33983">
        <ele>96</ele>
        <time>2015-03-18T13:37:10.000Z</time>
      </trkpt>
      <trkpt lat="47.36103" lon="-1.33981">
        <ele>97</ele>
        <time>2015-03-18T13:37:12.000Z</time>
      </trkpt>
      <trkpt lat="47.36094" lon="-1.3398">
        <ele>96</ele>
        <time>2015-03-18T13:37:14.000Z</time>
      </trkpt>
      <trkpt lat="47.36087" lon="-1.33977">
        <ele>97</ele>
        <time>2015-03-18T13:37:16.000Z</time>
      </trkpt>
      <trkpt lat="47.36081" lon="-1.33975">
        <ele>98</ele>
        <time>2015-03-18T13:37:18.000Z</time>
      </trkpt>
      <trkpt lat="47.36073" lon="-1.33972">
        <ele>98</ele>
        <time>2015-03-18T13:37:20.000Z</time>
      </trkpt>
      <trkpt lat="47.36066" lon="-1.33969">
        <ele>98</ele>
        <time>2015-03-18T13:37:22.000Z</time>
      </trkpt>
      <trkpt lat="47.3606" lon="-1.33966">
        <ele>99</ele>
        <time>2015-03-18T13:37:24.000Z</time>
      </trkpt>
      <trkpt lat="47.36053" lon="-1.33963">
        <ele>100</ele>
        <time>2015-03-18T13:37:26.000Z</time>
      </trkpt>
      <trkpt lat="47.36047" lon="-1.33958">
        <ele>101</ele>
        <time>2015-03-18T13:37:28.000Z</time>
      </trkpt>
      <trkpt lat="47.3604" lon="-1.33952">
        <ele>101</ele>
        <time>2015-03-18T13:37:30.000Z</time>
      </trkpt>
      <trkpt lat="47.36033" lon="-1.33946">
        <ele>102</ele>
        <time>2015-03-18T13:37:32.000Z</time>
      </trkpt>
      <trkpt lat="47.36027" lon="-1.3394">
        <ele>102</ele>
        <time>2015-03-18T13:37:34.000Z</time>
      </trkpt>
      <trkpt lat="47.36021" lon="-1.33932">
        <ele>102</ele>
        <time>2015-03-18T13:37:36.000Z</time>
      </trkpt>
      <trkpt lat="47.36015" lon="-1.33925">
        <ele>103</ele>
        <time>2015-03-18T13:37:38.000Z</time>
      </trkpt>
      <trkpt lat="47.36009" lon="-1.33917">
        <ele>103</ele>
        <time>2015-03-18T13:37:40.000Z</time>
      </trkpt>
      <trkpt lat="47.36003" lon="-1.33909">
        <ele>103</ele>
        <time>2015-03-18T13:37:42.000Z</time>
      </trkpt>
      <trkpt lat="47.35998" lon="-1.33901">
        <ele>103</ele>
        <time>2015-03-18T13:37:44.000Z</time>
      </trkpt>
      <trkpt lat="47.35993" lon="-1.33894">
        <ele>104</ele>
        <time>2015-03-18T13:37:46.000Z</time>
      </trkpt>
      <trkpt lat="47.35987" lon="-1.33886">
        <ele>104</ele>
        <time>2015-03-18T13:37:48.000Z</time>
      </trkpt>
      <trkpt lat="47.35983" lon="-1.33879">
        <ele>104</ele>
        <time>2015-03-18T13:37:50.000Z</time>
      </trkpt>
      <trkpt lat="47.35978" lon="-1.33872">
        <ele>105</ele>
        <time>2015-03-18T13:37:52.000Z</time>
      </trkpt>
      <trkpt lat="47.35978" lon="-1.33872">
        <ele>105</ele>
        <time>2015-03-18T13:37:54.000Z</time>
      </trkpt>
      <trkpt lat="47.3597" lon="-1.33862">
        <ele>106</ele>
        <time>2015-03-18T13:37:56.000Z</time>
      </trkpt>
      <trkpt lat="47.35964" lon="-1.33857">
        <ele>107</ele>
        <time>2015-03-18T13:37:58.000Z</time>
      </trkpt>
      <trkpt lat="47.35958" lon="-1.33852">
        <ele>107</ele>
        <time>2015-03-18T13:38:00.000Z</time>
      </trkpt>
      <trkpt lat="47.35952" lon="-1.33847">
        <ele>107</ele>
        <time>2015-03-18T13:38:02.000Z</time>
      </trkpt>
      <trkpt lat="47.35946" lon="-1.33842">
        <ele>107</ele>
        <time>2015-03-18T13:38:04.000Z</time>
      </trkpt>
      <trkpt lat="47.3594" lon="-1.33838">
        <ele>107</ele>
        <time>2015-03-18T13:38:06.000Z</time>
      </trkpt>
      <trkpt lat="47.35934" lon="-1.33833">
        <ele>107</ele>
        <time>2015-03-18T13:38:08.000Z</time>
      </trkpt>
      <trkpt lat="47.35928" lon="-1.33829">
        <ele>107</ele>
        <time>2015-03-18T13:38:10.000Z</time>
      </trkpt>
      <trkpt lat="47.35922" lon="-1.33824">
        <ele>107</ele>
        <time>2015-03-18T13:38:12.000Z</time>
      </trkpt>
      <trkpt lat="47.35916" lon="-1.3382">
        <ele>108</ele>
        <time>2015-03-18T13:38:14.000Z</time>
      </trkpt>
      <trkpt lat="47.35816" lon="-1.33745">
        <ele>112</ele>
        <time>2015-03-18T13:38:46.000Z</time>
      </trkpt>
      <trkpt lat="47.35805" lon="-1.33733">
        <ele>111</ele>
        <time>2015-03-18T13:38:48.000Z</time>
      </trkpt>
      <trkpt lat="47.35798" lon="-1.33724">
        <ele>111</ele>
        <time>2015-03-18T13:38:50.000Z</time>
      </trkpt>
      <trkpt lat="47.35793" lon="-1.33714">
        <ele>111</ele>
        <time>2015-03-18T13:38:52.000Z</time>
      </trkpt>
      <trkpt lat="47.35787" lon="-1.33704">
        <ele>112</ele>
        <time>2015-03-18T13:38:54.000Z</time>
      </trkpt>
      <trkpt lat="47.35781" lon="-1.33694">
        <ele>112</ele>
        <time>2015-03-18T13:38:56.000Z</time>
      </trkpt>
      <trkpt lat="47.35777" lon="-1.33683">
        <ele>113</ele>
        <time>2015-03-18T13:38:58.000Z</time>
      </trkpt>
      <trkpt lat="47.35772" lon="-1.33673">
        <ele>114</ele>
        <time>2015-03-18T13:39:00.000Z</time>
      </trkpt>
      <trkpt lat="47.35767" lon="-1.33665">
        <ele>115</ele>
        <time>2015-03-18T13:39:02.000Z</time>
      </trkpt>
      <trkpt lat="47.35762" lon="-1.33656">
        <ele>116</ele>
        <time>2015-03-18T13:39:04.000Z</time>
      </trkpt>
      <trkpt lat="47.35755" lon="-1.33641">
        <ele>115</ele>
        <time>2015-03-18T13:39:06.000Z</time>
      </trkpt>
      <trkpt lat="47.35749" lon="-1.3363">
        <ele>114</ele>
        <time>2015-03-18T13:39:08.000Z</time>
      </trkpt>
      <trkpt lat="47.35744" lon="-1.3362">
        <ele>114</ele>
        <time>2015-03-18T13:39:10.000Z</time>
      </trkpt>
      <trkpt lat="47.35738" lon="-1.33606">
        <ele>114</ele>
        <time>2015-03-18T13:39:12.000Z</time>
      </trkpt>
      <trkpt lat="47.35733" lon="-1.33593">
        <ele>114</ele>
        <time>2015-03-18T13:39:14.000Z</time>
      </trkpt>
      <trkpt lat="47.35727" lon="-1.33581">
        <ele>113</ele>
        <time>2015-03-18T13:39:16.000Z</time>
      </trkpt>
      <trkpt lat="47.35721" lon="-1.3357">
        <ele>114</ele>
        <time>2015-03-18T13:39:18.000Z</time>
      </trkpt>
      <trkpt lat="47.35715" lon="-1.3356">
        <ele>114</ele>
        <time>2015-03-18T13:39:20.000Z</time>
      </trkpt>
      <trkpt lat="47.35709" lon="-1.3355">
        <ele>114</ele>
        <time>2015-03-18T13:39:22.000Z</time>
      </trkpt>
      <trkpt lat="47.35703" lon="-1.33539">
        <ele>113</ele>
        <time>2015-03-18T13:39:24.000Z</time>
      </trkpt>
      <trkpt lat="47.35698" lon="-1.33527">
        <ele>112</ele>
        <time>2015-03-18T13:39:26.000Z</time>
      </trkpt>
      <trkpt lat="47.35693" lon="-1.33515">
        <ele>112</ele>
        <time>2015-03-18T13:39:28.000Z</time>
      </trkpt>
      <trkpt lat="47.35687" lon="-1.33505">
        <ele>112</ele>
        <time>2015-03-18T13:39:30.000Z</time>
      </trkpt>
      <trkpt lat="47.35679" lon="-1.33499">
        <ele>112</ele>
        <time>2015-03-18T13:39:32.000Z</time>
      </trkpt>
      <trkpt lat="47.35671" lon="-1.33497">
        <ele>112</ele>
        <time>2015-03-18T13:39:34.000Z</time>
      </trkpt>
      <trkpt lat="47.35663" lon="-1.33501">
        <ele>112</ele>
        <time>2015-03-18T13:39:36.000Z</time>
      </trkpt>
      <trkpt lat="47.35655" lon="-1.33506">
        <ele>113</ele>
        <time>2015-03-18T13:39:38.000Z</time>
      </trkpt>
      <trkpt lat="47.35646" lon="-1.33512">
        <ele>112</ele>
        <time>2015-03-18T13:39:40.000Z</time>
      </trkpt>
      <trkpt lat="47.35637" lon="-1.33517">
        <ele>112</ele>
        <time>2015-03-18T13:39:42.000Z</time>
      </trkpt>
      <trkpt lat="47.35627" lon="-1.33522">
        <ele>112</ele>
        <time>2015-03-18T13:39:44.000Z</time>
      </trkpt>
      <trkpt lat="47.35617" lon="-1.33527">
        <ele>111</ele>
        <time>2015-03-18T13:39:46.000Z</time>
      </trkpt>
      <trkpt lat="47.35607" lon="-1.33531">
        <ele>110</ele>
        <time>2015-03-18T13:39:48.000Z</time>
      </trkpt>
      <trkpt lat="47.35597" lon="-1.33536">
        <ele>109</ele>
        <time>2015-03-18T13:39:50.000Z</time>
      </trkpt>
      <trkpt lat="47.35587" lon="-1.33539">
        <ele>109</ele>
        <time>2015-03-18T13:39:52.000Z</time>
      </trkpt>
      <trkpt lat="47.35577" lon="-1.33543">
        <ele>109</ele>
        <time>2015-03-18T13:39:54.000Z</time>
      </trkpt>
      <trkpt lat="47.35567" lon="-1.33547">
        <ele>109</ele>
        <time>2015-03-18T13:39:56.000Z</time>
      </trkpt>
      <trkpt lat="47.35558" lon="-1.3355">
        <ele>109</ele>
        <time>2015-03-18T13:39:58.000Z</time>
      </trkpt>
      <trkpt lat="47.35549" lon="-1.33554">
        <ele>109</ele>
        <time>2015-03-18T13:40:00.000Z</time>
      </trkpt>
      <trkpt lat="47.3554" lon="-1.33557">
        <ele>110</ele>
        <time>2015-03-18T13:40:02.000Z</time>
      </trkpt>
      <trkpt lat="47.3553" lon="-1.3356">
        <ele>109</ele>
        <time>2015-03-18T13:40:04.000Z</time>
      </trkpt>
      <trkpt lat="47.35522" lon="-1.33563">
        <ele>110</ele>
        <time>2015-03-18T13:40:06.000Z</time>
      </trkpt>
      <trkpt lat="47.35513" lon="-1.33567">
        <ele>110</ele>
        <time>2015-03-18T13:40:08.000Z</time>
      </trkpt>
      <trkpt lat="47.35505" lon="-1.3357">
        <ele>110</ele>
        <time>2015-03-18T13:40:10.000Z</time>
      </trkpt>
      <trkpt lat="47.35496" lon="-1.33573">
        <ele>110</ele>
        <time>2015-03-18T13:40:12.000Z</time>
      </trkpt>
      <trkpt lat="47.35487" lon="-1.33576">
        <ele>110</ele>
        <time>2015-03-18T13:40:14.000Z</time>
      </trkpt>
      <trkpt lat="47.35477" lon="-1.33579">
        <ele>110</ele>
        <time>2015-03-18T13:40:16.000Z</time>
      </trkpt>
      <trkpt lat="47.35468" lon="-1.33582">
        <ele>111</ele>
        <time>2015-03-18T13:40:18.000Z</time>
      </trkpt>
      <trkpt lat="47.35459" lon="-1.33586">
        <ele>111</ele>
        <time>2015-03-18T13:40:20.000Z</time>
      </trkpt>
      <trkpt lat="47.3545" lon="-1.3359">
        <ele>111</ele>
        <time>2015-03-18T13:40:22.000Z</time>
      </trkpt>
      <trkpt lat="47.35441" lon="-1.33594">
        <ele>112</ele>
        <time>2015-03-18T13:40:24.000Z</time>
      </trkpt>
      <trkpt lat="47.35431" lon="-1.33598">
        <ele>112</ele>
        <time>2015-03-18T13:40:26.000Z</time>
      </trkpt>
      <trkpt lat="47.35421" lon="-1.33603">
        <ele>112</ele>
        <time>2015-03-18T13:40:28.000Z</time>
      </trkpt>
      <trkpt lat="47.3541" lon="-1.33607">
        <ele>112</ele>
        <time>2015-03-18T13:40:30.000Z</time>
      </trkpt>
      <trkpt lat="47.35398" lon="-1.33613">
        <ele>112</ele>
        <time>2015-03-18T13:40:32.000Z</time>
      </trkpt>
      <trkpt lat="47.35386" lon="-1.3362">
        <ele>113</ele>
        <time>2015-03-18T13:40:34.000Z</time>
      </trkpt>
      <trkpt lat="47.35373" lon="-1.33628">
        <ele>113</ele>
        <time>2015-03-18T13:40:36.000Z</time>
      </trkpt>
      <trkpt lat="47.3536" lon="-1.33637">
        <ele>112</ele>
        <time>2015-03-18T13:40:38.000Z</time>
      </trkpt>
      <trkpt lat="47.35349" lon="-1.33645">
        <ele>112</ele>
        <time>2015-03-18T13:40:40.000Z</time>
      </trkpt>
      <trkpt lat="47.35337" lon="-1.33655">
        <ele>112</ele>
        <time>2015-03-18T13:40:42.000Z</time>
      </trkpt>
      <trkpt lat="47.35325" lon="-1.33665">
        <ele>112</ele>
        <time>2015-03-18T13:40:44.000Z</time>
      </trkpt>
      <trkpt lat="47.35313" lon="-1.33677">
        <ele>112</ele>
        <time>2015-03-18T13:40:46.000Z</time>
      </trkpt>
      <trkpt lat="47.35301" lon="-1.33688">
        <ele>112</ele>
        <time>2015-03-18T13:40:48.000Z</time>
      </trkpt>
      <trkpt lat="47.35289" lon="-1.33701">
        <ele>112</ele>
        <time>2015-03-18T13:40:50.000Z</time>
      </trkpt>
      <trkpt lat="47.35278" lon="-1.33715">
        <ele>112</ele>
        <time>2015-03-18T13:40:52.000Z</time>
      </trkpt>
      <trkpt lat="47.35266" lon="-1.3373">
        <ele>112</ele>
        <time>2015-03-18T13:40:54.000Z</time>
      </trkpt>
      <trkpt lat="47.35256" lon="-1.33745">
        <ele>112</ele>
        <time>2015-03-18T13:40:56.000Z</time>
      </trkpt>
      <trkpt lat="47.35247" lon="-1.3376">
        <ele>113</ele>
        <time>2015-03-18T13:40:58.000Z</time>
      </trkpt>
      <trkpt lat="47.35236" lon="-1.33774">
        <ele>112</ele>
        <time>2015-03-18T13:41:00.000Z</time>
      </trkpt>
      <trkpt lat="47.35228" lon="-1.33788">
        <ele>112</ele>
        <time>2015-03-18T13:41:02.000Z</time>
      </trkpt>
      <trkpt lat="47.35218" lon="-1.33803">
        <ele>112</ele>
        <time>2015-03-18T13:41:04.000Z</time>
      </trkpt>
      <trkpt lat="47.3521" lon="-1.33816">
        <ele>112</ele>
        <time>2015-03-18T13:41:06.000Z</time>
      </trkpt>
      <trkpt lat="47.35202" lon="-1.3383">
        <ele>112</ele>
        <time>2015-03-18T13:41:08.000Z</time>
      </trkpt>
      <trkpt lat="47.35194" lon="-1.33843">
        <ele>112</ele>
        <time>2015-03-18T13:41:10.000Z</time>
      </trkpt>
      <trkpt lat="47.35186" lon="-1.33857">
        <ele>112</ele>
        <time>2015-03-18T13:41:12.000Z</time>
      </trkpt>
      <trkpt lat="47.35177" lon="-1.3387">
        <ele>113</ele>
        <time>2015-03-18T13:41:14.000Z</time>
      </trkpt>
      <trkpt lat="47.3517" lon="-1.33882">
        <ele>113</ele>
        <time>2015-03-18T13:41:16.000Z</time>
      </trkpt>
      <trkpt lat="47.35162" lon="-1.33894">
        <ele>114</ele>
        <time>2015-03-18T13:41:18.000Z</time>
      </trkpt>
      <trkpt lat="47.35153" lon="-1.33904">
        <ele>114</ele>
        <time>2015-03-18T13:41:20.000Z</time>
      </trkpt>
      <trkpt lat="47.35143" lon="-1.33914">
        <ele>114</ele>
        <time>2015-03-18T13:41:22.000Z</time>
      </trkpt>
      <trkpt lat="47.35135" lon="-1.33924">
        <ele>114</ele>
        <time>2015-03-18T13:41:24.000Z</time>
      </trkpt>
      <trkpt lat="47.35126" lon="-1.33933">
        <ele>114</ele>
        <time>2015-03-18T13:41:26.000Z</time>
      </trkpt>
      <trkpt lat="47.35117" lon="-1.33941">
        <ele>114</ele>
        <time>2015-03-18T13:41:28.000Z</time>
      </trkpt>
      <trkpt lat="47.35109" lon="-1.33948">
        <ele>114</ele>
        <time>2015-03-18T13:41:30.000Z</time>
      </trkpt>
      <trkpt lat="47.35099" lon="-1.33955">
        <ele>114</ele>
        <time>2015-03-18T13:41:32.000Z</time>
      </trkpt>
      <trkpt lat="47.3509" lon="-1.33961">
        <ele>114</ele>
        <time>2015-03-18T13:41:34.000Z</time>
      </trkpt>
      <trkpt lat="47.3508" lon="-1.33967">
        <ele>114</ele>
        <time>2015-03-18T13:41:36.000Z</time>
      </trkpt>
      <trkpt lat="47.35071" lon="-1.33973">
        <ele>113</ele>
        <time>2015-03-18T13:41:38.000Z</time>
      </trkpt>
      <trkpt lat="47.35061" lon="-1.3398">
        <ele>113</ele>
        <time>2015-03-18T13:41:40.000Z</time>
      </trkpt>
      <trkpt lat="47.35052" lon="-1.33985">
        <ele>113</ele>
        <time>2015-03-18T13:41:42.000Z</time>
      </trkpt>
      <trkpt lat="47.35043" lon="-1.33991">
        <ele>113</ele>
        <time>2015-03-18T13:41:44.000Z</time>
      </trkpt>
      <trkpt lat="47.35033" lon="-1.33996">
        <ele>113</ele>
        <time>2015-03-18T13:41:46.000Z</time>
      </trkpt>
      <trkpt lat="47.35023" lon="-1.33998">
        <ele>114</ele>
        <time>2015-03-18T13:41:48.000Z</time>
      </trkpt>
      <trkpt lat="47.35015" lon="-1.33996">
        <ele>114</ele>
        <time>2015-03-18T13:41:50.000Z</time>
      </trkpt>
      <trkpt lat="47.35007" lon="-1.33995">
        <ele>115</ele>
        <time>2015-03-18T13:41:52.000Z</time>
      </trkpt>
      <trkpt lat="47.35001" lon="-1.33992">
        <ele>115</ele>
        <time>2015-03-18T13:41:54.000Z</time>
      </trkpt>
      <trkpt lat="47.35001" lon="-1.33992">
        <ele>115</ele>
        <time>2015-03-18T13:41:56.000Z</time>
      </trkpt>
      <trkpt lat="47.35001" lon="-1.33992">
        <ele>115</ele>
        <time>2015-03-18T13:41:58.000Z</time>
      </trkpt>
      <trkpt lat="47.35001" lon="-1.33992">
        <ele>115</ele>
        <time>2015-03-18T13:42:00.000Z</time>
      </trkpt>
      <trkpt lat="47.34995" lon="-1.33984">
        <ele>117</ele>
        <time>2015-03-18T13:42:04.000Z</time>
      </trkpt>
      <trkpt lat="47.34991" lon="-1.33975">
        <ele>118</ele>
        <time>2015-03-18T13:42:06.000Z</time>
      </trkpt>
      <trkpt lat="47.34986" lon="-1.33948">
        <ele>118</ele>
        <time>2015-03-18T13:42:09.000Z</time>
      </trkpt>
      <trkpt lat="47.34983" lon="-1.33932">
        <ele>118</ele>
        <time>2015-03-18T13:42:11.000Z</time>
      </trkpt>
      <trkpt lat="47.34987" lon="-1.33914">
        <ele>118</ele>
        <time>2015-03-18T13:42:13.000Z</time>
      </trkpt>
      <trkpt lat="47.34991" lon="-1.33896">
        <ele>118</ele>
        <time>2015-03-18T13:42:15.000Z</time>
      </trkpt>
      <trkpt lat="47.34993" lon="-1.33875">
        <ele>119</ele>
        <time>2015-03-18T13:42:17.000Z</time>
      </trkpt>
      <trkpt lat="47.34994" lon="-1.33857">
        <ele>120</ele>
        <time>2015-03-18T13:42:19.000Z</time>
      </trkpt>
      <trkpt lat="47.34995" lon="-1.3384">
        <ele>121</ele>
        <time>2015-03-18T13:42:21.000Z</time>
      </trkpt>
      <trkpt lat="47.34994" lon="-1.33825">
        <ele>121</ele>
        <time>2015-03-18T13:42:23.000Z</time>
      </trkpt>
      <trkpt lat="47.34993" lon="-1.33809">
        <ele>121</ele>
        <time>2015-03-18T13:42:25.000Z</time>
      </trkpt>
      <trkpt lat="47.34993" lon="-1.33795">
        <ele>121</ele>
        <time>2015-03-18T13:42:27.000Z</time>
      </trkpt>
      <trkpt lat="47.34996" lon="-1.33782">
        <ele>123</ele>
        <time>2015-03-18T13:42:29.000Z</time>
      </trkpt>
      <trkpt lat="47.34995" lon="-1.33763">
        <ele>123</ele>
        <time>2015-03-18T13:42:31.000Z</time>
      </trkpt>
      <trkpt lat="47.34995" lon="-1.33748">
        <ele>126</ele>
        <time>2015-03-18T13:42:33.000Z</time>
      </trkpt>
      <trkpt lat="47.34995" lon="-1.33731">
        <ele>126</ele>
        <time>2015-03-18T13:42:35.000Z</time>
      </trkpt>
      <trkpt lat="47.34995" lon="-1.33713">
        <ele>126</ele>
        <time>2015-03-18T13:42:37.000Z</time>
      </trkpt>
      <trkpt lat="47.34996" lon="-1.33696">
        <ele>126</ele>
        <time>2015-03-18T13:42:39.000Z</time>
      </trkpt>
      <trkpt lat="47.34997" lon="-1.33678">
        <ele>125</ele>
        <time>2015-03-18T13:42:41.000Z</time>
      </trkpt>
      <trkpt lat="47.34998" lon="-1.33662">
        <ele>125</ele>
        <time>2015-03-18T13:42:43.000Z</time>
      </trkpt>
      <trkpt lat="47.34997" lon="-1.33645">
        <ele>124</ele>
        <time>2015-03-18T13:42:45.000Z</time>
      </trkpt>
      <trkpt lat="47.34998" lon="-1.33627">
        <ele>125</ele>
        <time>2015-03-18T13:42:47.000Z</time>
      </trkpt>
      <trkpt lat="47.34998" lon="-1.3361">
        <ele>125</ele>
        <time>2015-03-18T13:42:49.000Z</time>
      </trkpt>
      <trkpt lat="47.34999" lon="-1.33593">
        <ele>125</ele>
        <time>2015-03-18T13:42:51.000Z</time>
      </trkpt>
      <trkpt lat="47.34999" lon="-1.33577">
        <ele>125</ele>
        <time>2015-03-18T13:42:53.000Z</time>
      </trkpt>
      <trkpt lat="47.34999" lon="-1.3356">
        <ele>125</ele>
        <time>2015-03-18T13:42:55.000Z</time>
      </trkpt>
      <trkpt lat="47.34999" lon="-1.33544">
        <ele>125</ele>
        <time>2015-03-18T13:42:57.000Z</time>
      </trkpt>
      <trkpt lat="47.35" lon="-1.33527">
        <ele>126</ele>
        <time>2015-03-18T13:42:59.000Z</time>
      </trkpt>
      <trkpt lat="47.35001" lon="-1.3351">
        <ele>125</ele>
        <time>2015-03-18T13:43:01.000Z</time>
      </trkpt>
      <trkpt lat="47.35001" lon="-1.33492">
        <ele>125</ele>
        <time>2015-03-18T13:43:03.000Z</time>
      </trkpt>
      <trkpt lat="47.35001" lon="-1.33474">
        <ele>124</ele>
        <time>2015-03-18T13:43:05.000Z</time>
      </trkpt>
      <trkpt lat="47.35002" lon="-1.33457">
        <ele>124</ele>
        <time>2015-03-18T13:43:07.000Z</time>
      </trkpt>
      <trkpt lat="47.35002" lon="-1.33441">
        <ele>124</ele>
        <time>2015-03-18T13:43:09.000Z</time>
      </trkpt>
      <trkpt lat="47.35003" lon="-1.33425">
        <ele>124</ele>
        <time>2015-03-18T13:43:11.000Z</time>
      </trkpt>
      <trkpt lat="47.35003" lon="-1.33409">
        <ele>124</ele>
        <time>2015-03-18T13:43:13.000Z</time>
      </trkpt>
      <trkpt lat="47.35003" lon="-1.33391">
        <ele>124</ele>
        <time>2015-03-18T13:43:15.000Z</time>
      </trkpt>
      <trkpt lat="47.35004" lon="-1.33374">
        <ele>124</ele>
        <time>2015-03-18T13:43:17.000Z</time>
      </trkpt>
      <trkpt lat="47.35004" lon="-1.33357">
        <ele>124</ele>
        <time>2015-03-18T13:43:19.000Z</time>
      </trkpt>
      <trkpt lat="47.35005" lon="-1.33341">
        <ele>123</ele>
        <time>2015-03-18T13:43:21.000Z</time>
      </trkpt>
      <trkpt lat="47.35005" lon="-1.33325">
        <ele>124</ele>
        <time>2015-03-18T13:43:23.000Z</time>
      </trkpt>
      <trkpt lat="47.35005" lon="-1.3331">
        <ele>125</ele>
        <time>2015-03-18T13:43:25.000Z</time>
      </trkpt>
      <trkpt lat="47.35006" lon="-1.33294">
        <ele>125</ele>
        <time>2015-03-18T13:43:27.000Z</time>
      </trkpt>
      <trkpt lat="47.35005" lon="-1.33283">
        <ele>126</ele>
        <time>2015-03-18T13:43:29.000Z</time>
      </trkpt>
      <trkpt lat="47.35003" lon="-1.33271">
        <ele>127</ele>
        <time>2015-03-18T13:43:31.000Z</time>
      </trkpt>
      <trkpt lat="47.34998" lon="-1.33258">
        <ele>126</ele>
        <time>2015-03-18T13:43:33.000Z</time>
      </trkpt>
      <trkpt lat="47.34991" lon="-1.33252">
        <ele>128</ele>
        <time>2015-03-18T13:43:35.000Z</time>
      </trkpt>
      <trkpt lat="47.34984" lon="-1.33251">
        <ele>128</ele>
        <time>2015-03-18T13:43:37.000Z</time>
      </trkpt>
      <trkpt lat="47.34974" lon="-1.33251">
        <ele>129</ele>
        <time>2015-03-18T13:43:39.000Z</time>
      </trkpt>
      <trkpt lat="47.34963" lon="-1.33248">
        <ele>127</ele>
        <time>2015-03-18T13:43:41.000Z</time>
      </trkpt>
      <trkpt lat="47.34951" lon="-1.33246">
        <ele>128</ele>
        <time>2015-03-18T13:43:43.000Z</time>
      </trkpt>
      <trkpt lat="47.34938" lon="-1.33246">
        <ele>129</ele>
        <time>2015-03-18T13:43:45.000Z</time>
      </trkpt>
      <trkpt lat="47.34919" lon="-1.33244">
        <ele>128</ele>
        <time>2015-03-18T13:43:47.000Z</time>
      </trkpt>
      <trkpt lat="47.349" lon="-1.33242">
        <ele>129</ele>
        <time>2015-03-18T13:43:50.000Z</time>
      </trkpt>
      <trkpt lat="47.34873" lon="-1.33242">
        <ele>125</ele>
        <time>2015-03-18T13:43:53.000Z</time>
      </trkpt>
      <trkpt lat="47.34855" lon="-1.33242">
        <ele>124</ele>
        <time>2015-03-18T13:43:55.000Z</time>
      </trkpt>
      <trkpt lat="47.3484" lon="-1.33243">
        <ele>122</ele>
        <time>2015-03-18T13:43:57.000Z</time>
      </trkpt>
      <trkpt lat="47.34823" lon="-1.33245">
        <ele>120</ele>
        <time>2015-03-18T13:43:59.000Z</time>
      </trkpt>
      <trkpt lat="47.34809" lon="-1.33244">
        <ele>120</ele>
        <time>2015-03-18T13:44:01.000Z</time>
      </trkpt>
      <trkpt lat="47.34795" lon="-1.33242">
        <ele>119</ele>
        <time>2015-03-18T13:44:03.000Z</time>
      </trkpt>
      <trkpt lat="47.34782" lon="-1.33242">
        <ele>118</ele>
        <time>2015-03-18T13:44:05.000Z</time>
      </trkpt>
      <trkpt lat="47.3477" lon="-1.3324">
        <ele>119</ele>
        <time>2015-03-18T13:44:07.000Z</time>
      </trkpt>
      <trkpt lat="47.34758" lon="-1.33239">
        <ele>119</ele>
        <time>2015-03-18T13:44:09.000Z</time>
      </trkpt>
      <trkpt lat="47.34747" lon="-1.33236">
        <ele>119</ele>
        <time>2015-03-18T13:44:11.000Z</time>
      </trkpt>
      <trkpt lat="47.34737" lon="-1.33234">
        <ele>118</ele>
        <time>2015-03-18T13:44:13.000Z</time>
      </trkpt>
      <trkpt lat="47.34726" lon="-1.33232">
        <ele>118</ele>
        <time>2015-03-18T13:44:15.000Z</time>
      </trkpt>
      <trkpt lat="47.34716" lon="-1.3323">
        <ele>118</ele>
        <time>2015-03-18T13:44:17.000Z</time>
      </trkpt>
      <trkpt lat="47.34707" lon="-1.3323">
        <ele>118</ele>
        <time>2015-03-18T13:44:19.000Z</time>
      </trkpt>
      <trkpt lat="47.347" lon="-1.3323">
        <ele>119</ele>
        <time>2015-03-18T13:44:21.000Z</time>
      </trkpt>
      <trkpt lat="47.34691" lon="-1.33232">
        <ele>119</ele>
        <time>2015-03-18T13:44:23.000Z</time>
      </trkpt>
      <trkpt lat="47.34681" lon="-1.33234">
        <ele>118</ele>
        <time>2015-03-18T13:44:25.000Z</time>
      </trkpt>
      <trkpt lat="47.34671" lon="-1.33234">
        <ele>117</ele>
        <time>2015-03-18T13:44:27.000Z</time>
      </trkpt>
      <trkpt lat="47.3466" lon="-1.33237">
        <ele>117</ele>
        <time>2015-03-18T13:44:29.000Z</time>
      </trkpt>
      <trkpt lat="47.34652" lon="-1.33248">
        <ele>118</ele>
        <time>2015-03-18T13:44:31.000Z</time>
      </trkpt>
      <trkpt lat="47.34644" lon="-1.33263">
        <ele>118</ele>
        <time>2015-03-18T13:44:33.000Z</time>
      </trkpt>
      <trkpt lat="47.34636" lon="-1.33277">
        <ele>118</ele>
        <time>2015-03-18T13:44:35.000Z</time>
      </trkpt>
      <trkpt lat="47.34628" lon="-1.3329">
        <ele>118</ele>
        <time>2015-03-18T13:44:37.000Z</time>
      </trkpt>
      <trkpt lat="47.34621" lon="-1.33304">
        <ele>118</ele>
        <time>2015-03-18T13:44:39.000Z</time>
      </trkpt>
      <trkpt lat="47.34613" lon="-1.33318">
        <ele>118</ele>
        <time>2015-03-18T13:44:41.000Z</time>
      </trkpt>
      <trkpt lat="47.34605" lon="-1.33332">
        <ele>118</ele>
        <time>2015-03-18T13:44:43.000Z</time>
      </trkpt>
      <trkpt lat="47.34599" lon="-1.33344">
        <ele>118</ele>
        <time>2015-03-18T13:44:45.000Z</time>
      </trkpt>
      <trkpt lat="47.3459" lon="-1.33355">
        <ele>118</ele>
        <time>2015-03-18T13:44:47.000Z</time>
      </trkpt>
      <trkpt lat="47.3458" lon="-1.33365">
        <ele>118</ele>
        <time>2015-03-18T13:44:49.000Z</time>
      </trkpt>
      <trkpt lat="47.34568" lon="-1.3337">
        <ele>118</ele>
        <time>2015-03-18T13:44:51.000Z</time>
      </trkpt>
      <trkpt lat="47.34557" lon="-1.33372">
        <ele>117</ele>
        <time>2015-03-18T13:44:53.000Z</time>
      </trkpt>
      <trkpt lat="47.34545" lon="-1.33368">
        <ele>117</ele>
        <time>2015-03-18T13:44:55.000Z</time>
      </trkpt>
      <trkpt lat="47.34534" lon="-1.33361">
        <ele>117</ele>
        <time>2015-03-18T13:44:57.000Z</time>
      </trkpt>
      <trkpt lat="47.34526" lon="-1.33349">
        <ele>117</ele>
        <time>2015-03-18T13:44:59.000Z</time>
      </trkpt>
      <trkpt lat="47.34518" lon="-1.33338">
        <ele>117</ele>
        <time>2015-03-18T13:45:01.000Z</time>
      </trkpt>
      <trkpt lat="47.34509" lon="-1.33326">
        <ele>116</ele>
        <time>2015-03-18T13:45:03.000Z</time>
      </trkpt>
      <trkpt lat="47.345" lon="-1.33314">
        <ele>117</ele>
        <time>2015-03-18T13:45:05.000Z</time>
      </trkpt>
      <trkpt lat="47.34491" lon="-1.33302">
        <ele>116</ele>
        <time>2015-03-18T13:45:07.000Z</time>
      </trkpt>
      <trkpt lat="47.34483" lon="-1.33289">
        <ele>117</ele>
        <time>2015-03-18T13:45:09.000Z</time>
      </trkpt>
      <trkpt lat="47.34474" lon="-1.33277">
        <ele>117</ele>
        <time>2015-03-18T13:45:11.000Z</time>
      </trkpt>
      <trkpt lat="47.34465" lon="-1.33265">
        <ele>117</ele>
        <time>2015-03-18T13:45:13.000Z</time>
      </trkpt>
      <trkpt lat="47.34457" lon="-1.33254">
        <ele>116</ele>
        <time>2015-03-18T13:45:15.000Z</time>
      </trkpt>
      <trkpt lat="47.3445" lon="-1.33245">
        <ele>116</ele>
        <time>2015-03-18T13:45:17.000Z</time>
      </trkpt>
      <trkpt lat="47.34441" lon="-1.3324">
        <ele>116</ele>
        <time>2015-03-18T13:45:19.000Z</time>
      </trkpt>
      <trkpt lat="47.34436" lon="-1.33245">
        <ele>116</ele>
        <time>2015-03-18T13:45:21.000Z</time>
      </trkpt>
      <trkpt lat="47.34431" lon="-1.33252">
        <ele>116</ele>
        <time>2015-03-18T13:45:23.000Z</time>
      </trkpt>
      <trkpt lat="47.34426" lon="-1.33257">
        <ele>116</ele>
        <time>2015-03-18T13:45:25.000Z</time>
      </trkpt>
      <trkpt lat="47.34421" lon="-1.33264">
        <ele>116</ele>
        <time>2015-03-18T13:45:27.000Z</time>
      </trkpt>
      <trkpt lat="47.34416" lon="-1.33271">
        <ele>116</ele>
        <time>2015-03-18T13:45:29.000Z</time>
      </trkpt>
      <trkpt lat="47.34411" lon="-1.33278">
        <ele>116</ele>
        <time>2015-03-18T13:45:31.000Z</time>
      </trkpt>
      <trkpt lat="47.34406" lon="-1.33284">
        <ele>116</ele>
        <time>2015-03-18T13:45:33.000Z</time>
      </trkpt>
      <trkpt lat="47.344" lon="-1.33291">
        <ele>116</ele>
        <time>2015-03-18T13:45:35.000Z</time>
      </trkpt>
      <trkpt lat="47.34395" lon="-1.33298">
        <ele>115</ele>
        <time>2015-03-18T13:45:37.000Z</time>
      </trkpt>
      <trkpt lat="47.34389" lon="-1.33306">
        <ele>114</ele>
        <time>2015-03-18T13:45:39.000Z</time>
      </trkpt>
      <trkpt lat="47.34384" lon="-1.33313">
        <ele>114</ele>
        <time>2015-03-18T13:45:41.000Z</time>
      </trkpt>
      <trkpt lat="47.34379" lon="-1.3332">
        <ele>113</ele>
        <time>2015-03-18T13:45:43.000Z</time>
      </trkpt>
      <trkpt lat="47.34373" lon="-1.33327">
        <ele>113</ele>
        <time>2015-03-18T13:45:45.000Z</time>
      </trkpt>
      <trkpt lat="47.34369" lon="-1.33333">
        <ele>113</ele>
        <time>2015-03-18T13:45:47.000Z</time>
      </trkpt>
      <trkpt lat="47.34364" lon="-1.33338">
        <ele>113</ele>
        <time>2015-03-18T13:45:49.000Z</time>
      </trkpt>
      <trkpt lat="47.3436" lon="-1.33344">
        <ele>112</ele>
        <time>2015-03-18T13:45:51.000Z</time>
      </trkpt>
      <trkpt lat="47.34354" lon="-1.33351">
        <ele>111</ele>
        <time>2015-03-18T13:45:53.000Z</time>
      </trkpt>
      <trkpt lat="47.34348" lon="-1.33362">
        <ele>109</ele>
        <time>2015-03-18T13:45:55.000Z</time>
      </trkpt>
      <trkpt lat="47.3434" lon="-1.33372">
        <ele>107</ele>
        <time>2015-03-18T13:45:57.000Z</time>
      </trkpt>
      <trkpt lat="47.34332" lon="-1.33383">
        <ele>106</ele>
        <time>2015-03-18T13:45:59.000Z</time>
      </trkpt>
      <trkpt lat="47.34324" lon="-1.33394">
        <ele>104</ele>
        <time>2015-03-18T13:46:01.000Z</time>
      </trkpt>
      <trkpt lat="47.34317" lon="-1.33402">
        <ele>103</ele>
        <time>2015-03-18T13:46:03.000Z</time>
      </trkpt>
      <trkpt lat="47.3431" lon="-1.3341">
        <ele>102</ele>
        <time>2015-03-18T13:46:05.000Z</time>
      </trkpt>
      <trkpt lat="47.34304" lon="-1.33417">
        <ele>101</ele>
        <time>2015-03-18T13:46:07.000Z</time>
      </trkpt>
      <trkpt lat="47.343" lon="-1.33424">
        <ele>100</ele>
        <time>2015-03-18T13:46:09.000Z</time>
      </trkpt>
      <trkpt lat="47.343" lon="-1.33424">
        <ele>100</ele>
        <time>2015-03-18T13:46:11.000Z</time>
      </trkpt>
      <trkpt lat="47.34294" lon="-1.33431">
        <ele>99</ele>
        <time>2015-03-18T13:46:13.000Z</time>
      </trkpt>
      <trkpt lat="47.34294" lon="-1.33431">
        <ele>99</ele>
        <time>2015-03-18T13:46:15.000Z</time>
      </trkpt>
      <trkpt lat="47.34294" lon="-1.33431">
        <ele>99</ele>
        <time>2015-03-18T13:46:17.000Z</time>
      </trkpt>
      <trkpt lat="47.34291" lon="-1.33439">
        <ele>100</ele>
        <time>2015-03-18T13:46:19.000Z</time>
      </trkpt>
      <trkpt lat="47.34291" lon="-1.33439">
        <ele>100</ele>
        <time>2015-03-18T13:46:21.000Z</time>
      </trkpt>
      <trkpt lat="47.34291" lon="-1.33439">
        <ele>100</ele>
        <time>2015-03-18T13:46:23.000Z</time>
      </trkpt>
      <trkpt lat="47.34285" lon="-1.33448">
        <ele>97</ele>
        <time>2015-03-18T13:46:25.000Z</time>
      </trkpt>
      <trkpt lat="47.3428" lon="-1.33457">
        <ele>98</ele>
        <time>2015-03-18T13:46:29.000Z</time>
      </trkpt>
      <trkpt lat="47.3428" lon="-1.33457">
        <ele>98</ele>
        <time>2015-03-18T13:46:31.000Z</time>
      </trkpt>
      <trkpt lat="47.3428" lon="-1.33457">
        <ele>98</ele>
        <time>2015-03-18T13:46:33.000Z</time>
      </trkpt>
      <trkpt lat="47.34274" lon="-1.33466">
        <ele>99</ele>
        <time>2015-03-18T13:46:35.000Z</time>
      </trkpt>
      <trkpt lat="47.34274" lon="-1.33466">
        <ele>99</ele>
        <time>2015-03-18T13:46:37.000Z</time>
      </trkpt>
      <trkpt lat="47.34269" lon="-1.33475">
        <ele>97</ele>
        <time>2015-03-18T13:46:39.000Z</time>
      </trkpt>
      <trkpt lat="47.34265" lon="-1.33482">
        <ele>96</ele>
        <time>2015-03-18T13:46:41.000Z</time>
      </trkpt>
      <trkpt lat="47.34259" lon="-1.33488">
        <ele>95</ele>
        <time>2015-03-18T13:46:43.000Z</time>
      </trkpt>
      <trkpt lat="47.34253" lon="-1.33491">
        <ele>94</ele>
        <time>2015-03-18T13:46:45.000Z</time>
      </trkpt>
      <trkpt lat="47.34247" lon="-1.3349">
        <ele>93</ele>
        <time>2015-03-18T13:46:47.000Z</time>
      </trkpt>
      <trkpt lat="47.34242" lon="-1.33485">
        <ele>95</ele>
        <time>2015-03-18T13:46:49.000Z</time>
      </trkpt>
      <trkpt lat="47.34234" lon="-1.33473">
        <ele>96</ele>
        <time>2015-03-18T13:46:53.000Z</time>
      </trkpt>
      <trkpt lat="47.34228" lon="-1.3346">
        <ele>97</ele>
        <time>2015-03-18T13:46:57.000Z</time>
      </trkpt>
      <trkpt lat="47.34224" lon="-1.33452">
        <ele>95</ele>
        <time>2015-03-18T13:46:59.000Z</time>
      </trkpt>
      <trkpt lat="47.34219" lon="-1.33445">
        <ele>95</ele>
        <time>2015-03-18T13:47:01.000Z</time>
      </trkpt>
      <trkpt lat="47.34219" lon="-1.33445">
        <ele>95</ele>
        <time>2015-03-18T13:47:03.000Z</time>
      </trkpt>
      <trkpt lat="47.34212" lon="-1.33435">
        <ele>94</ele>
        <time>2015-03-18T13:47:05.000Z</time>
      </trkpt>
      <trkpt lat="47.34212" lon="-1.33435">
        <ele>94</ele>
        <time>2015-03-18T13:47:07.000Z</time>
      </trkpt>
      <trkpt lat="47.34207" lon="-1.33425">
        <ele>95</ele>
        <time>2015-03-18T13:47:09.000Z</time>
      </trkpt>
      <trkpt lat="47.34207" lon="-1.33425">
        <ele>95</ele>
        <time>2015-03-18T13:47:11.000Z</time>
      </trkpt>
      <trkpt lat="47.34207" lon="-1.33425">
        <ele>95</ele>
        <time>2015-03-18T13:47:13.000Z</time>
      </trkpt>
      <trkpt lat="47.34201" lon="-1.33424">
        <ele>98</ele>
        <time>2015-03-18T13:47:15.000Z</time>
      </trkpt>
      <trkpt lat="47.34201" lon="-1.33424">
        <ele>98</ele>
        <time>2015-03-18T13:47:17.000Z</time>
      </trkpt>
      <trkpt lat="47.34196" lon="-1.33427">
        <ele>93</ele>
        <time>2015-03-18T13:47:35.000Z</time>
      </trkpt>
      <trkpt lat="47.34193" lon="-1.3343">
        <ele>93</ele>
        <time>2015-03-18T13:47:37.000Z</time>
      </trkpt>
      <trkpt lat="47.34193" lon="-1.3343">
        <ele>93</ele>
        <time>2015-03-18T13:47:39.000Z</time>
      </trkpt>
      <trkpt lat="47.34193" lon="-1.3343">
        <ele>93</ele>
        <time>2015-03-18T13:47:41.000Z</time>
      </trkpt>
      <trkpt lat="47.34193" lon="-1.3343">
        <ele>93</ele>
        <time>2015-03-18T13:47:43.000Z</time>
      </trkpt>
      <trkpt lat="47.34181" lon="-1.3344">
        <ele>102</ele>
        <time>2015-03-18T13:49:17.000Z</time>
      </trkpt>
      <trkpt lat="47.34174" lon="-1.33446">
        <ele>105</ele>
        <time>2015-03-18T13:49:19.000Z</time>
      </trkpt>
      <trkpt lat="47.3417" lon="-1.33449">
        <ele>107</ele>
        <time>2015-03-18T13:49:21.000Z</time>
      </trkpt>
      <trkpt lat="47.34166" lon="-1.33452">
        <ele>108</ele>
        <time>2015-03-18T13:49:23.000Z</time>
      </trkpt>
      <trkpt lat="47.34163" lon="-1.33455">
        <ele>108</ele>
        <time>2015-03-18T13:49:25.000Z</time>
      </trkpt>
      <trkpt lat="47.34156" lon="-1.33461">
        <ele>109</ele>
        <time>2015-03-18T13:49:27.000Z</time>
      </trkpt>
      <trkpt lat="47.34149" lon="-1.33467">
        <ele>110</ele>
        <time>2015-03-18T13:49:31.000Z</time>
      </trkpt>
      <trkpt lat="47.34149" lon="-1.33467">
        <ele>110</ele>
        <time>2015-03-18T13:49:33.000Z</time>
      </trkpt>
      <trkpt lat="47.34145" lon="-1.33473">
        <ele>110</ele>
        <time>2015-03-18T13:49:35.000Z</time>
      </trkpt>
      <trkpt lat="47.34145" lon="-1.33473">
        <ele>110</ele>
        <time>2015-03-18T13:49:37.000Z</time>
      </trkpt>
      <trkpt lat="47.34139" lon="-1.33483">
        <ele>110</ele>
        <time>2015-03-18T13:49:39.000Z</time>
      </trkpt>
      <trkpt lat="47.34134" lon="-1.33495">
        <ele>111</ele>
        <time>2015-03-18T13:49:43.000Z</time>
      </trkpt>
      <trkpt lat="47.34129" lon="-1.33508">
        <ele>109</ele>
        <time>2015-03-18T13:49:47.000Z</time>
      </trkpt>
      <trkpt lat="47.34124" lon="-1.33522">
        <ele>108</ele>
        <time>2015-03-18T13:49:51.000Z</time>
      </trkpt>
      <trkpt lat="47.34117" lon="-1.33533">
        <ele>108</ele>
        <time>2015-03-18T13:49:55.000Z</time>
      </trkpt>
      <trkpt lat="47.34117" lon="-1.33533">
        <ele>108</ele>
        <time>2015-03-18T13:49:57.000Z</time>
      </trkpt>
      <trkpt lat="47.34112" lon="-1.33545">
        <ele>106</ele>
        <time>2015-03-18T13:49:59.000Z</time>
      </trkpt>
      <trkpt lat="47.34108" lon="-1.33557">
        <ele>108</ele>
        <time>2015-03-18T13:50:03.000Z</time>
      </trkpt>
      <trkpt lat="47.34108" lon="-1.33557">
        <ele>108</ele>
        <time>2015-03-18T13:50:05.000Z</time>
      </trkpt>
      <trkpt lat="47.34104" lon="-1.33566">
        <ele>110</ele>
        <time>2015-03-18T13:50:07.000Z</time>
      </trkpt>
      <trkpt lat="47.34104" lon="-1.33566">
        <ele>110</ele>
        <time>2015-03-18T13:50:09.000Z</time>
      </trkpt>
      <trkpt lat="47.34099" lon="-1.33576">
        <ele>110</ele>
        <time>2015-03-18T13:50:11.000Z</time>
      </trkpt>
      <trkpt lat="47.34093" lon="-1.33587">
        <ele>113</ele>
        <time>2015-03-18T13:50:15.000Z</time>
      </trkpt>
      <trkpt lat="47.34089" lon="-1.33598">
        <ele>113</ele>
        <time>2015-03-18T13:50:19.000Z</time>
      </trkpt>
      <trkpt lat="47.34089" lon="-1.33598">
        <ele>113</ele>
        <time>2015-03-18T13:50:21.000Z</time>
      </trkpt>
      <trkpt lat="47.34084" lon="-1.33608">
        <ele>114</ele>
        <time>2015-03-18T13:50:23.000Z</time>
      </trkpt>
      <trkpt lat="47.34078" lon="-1.33619">
        <ele>115</ele>
        <time>2015-03-18T13:50:27.000Z</time>
      </trkpt>
      <trkpt lat="47.34072" lon="-1.33632">
        <ele>115</ele>
        <time>2015-03-18T13:50:31.000Z</time>
      </trkpt>
      <trkpt lat="47.34067" lon="-1.33642">
        <ele>116</ele>
        <time>2015-03-18T13:50:35.000Z</time>
      </trkpt>
      <trkpt lat="47.34061" lon="-1.33654">
        <ele>116</ele>
        <time>2015-03-18T13:50:39.000Z</time>
      </trkpt>
      <trkpt lat="47.34061" lon="-1.33654">
        <ele>116</ele>
        <time>2015-03-18T13:50:41.000Z</time>
      </trkpt>
      <trkpt lat="47.34058" lon="-1.33664">
        <ele>116</ele>
        <time>2015-03-18T13:50:43.000Z</time>
      </trkpt>
      <trkpt lat="47.34058" lon="-1.33664">
        <ele>116</ele>
        <time>2015-03-18T13:50:45.000Z</time>
      </trkpt>
      <trkpt lat="47.34052" lon="-1.33674">
        <ele>116</ele>
        <time>2015-03-18T13:50:47.000Z</time>
      </trkpt>
      <trkpt lat="47.34045" lon="-1.33684">
        <ele>117</ele>
        <time>2015-03-18T13:50:51.000Z</time>
      </trkpt>
      <trkpt lat="47.34039" lon="-1.33694">
        <ele>117</ele>
        <time>2015-03-18T13:50:55.000Z</time>
      </trkpt>
      <trkpt lat="47.34033" lon="-1.33704">
        <ele>117</ele>
        <time>2015-03-18T13:50:59.000Z</time>
      </trkpt>
      <trkpt lat="47.34027" lon="-1.33715">
        <ele>117</ele>
        <time>2015-03-18T13:51:03.000Z</time>
      </trkpt>
      <trkpt lat="47.34021" lon="-1.33726">
        <ele>117</ele>
        <time>2015-03-18T13:51:07.000Z</time>
      </trkpt>
      <trkpt lat="47.34015" lon="-1.33738">
        <ele>117</ele>
        <time>2015-03-18T13:51:11.000Z</time>
      </trkpt>
      <trkpt lat="47.34007" lon="-1.3375">
        <ele>117</ele>
        <time>2015-03-18T13:51:15.000Z</time>
      </trkpt>
      <trkpt lat="47.33998" lon="-1.33759">
        <ele>118</ele>
        <time>2015-03-18T13:51:19.000Z</time>
      </trkpt>
      <trkpt lat="47.33992" lon="-1.33756">
        <ele>118</ele>
        <time>2015-03-18T13:51:21.000Z</time>
      </trkpt>
      <trkpt lat="47.33987" lon="-1.33751">
        <ele>118</ele>
        <time>2015-03-18T13:51:23.000Z</time>
      </trkpt>
      <trkpt lat="47.33982" lon="-1.33745">
        <ele>118</ele>
        <time>2015-03-18T13:51:25.000Z</time>
      </trkpt>
      <trkpt lat="47.33977" lon="-1.33739">
        <ele>118</ele>
        <time>2015-03-18T13:51:27.000Z</time>
      </trkpt>
      <trkpt lat="47.33971" lon="-1.33734">
        <ele>118</ele>
        <time>2015-03-18T13:51:29.000Z</time>
      </trkpt>
      <trkpt lat="47.33966" lon="-1.3373">
        <ele>118</ele>
        <time>2015-03-18T13:51:31.000Z</time>
      </trkpt>
      <trkpt lat="47.3396" lon="-1.33726">
        <ele>118</ele>
        <time>2015-03-18T13:51:33.000Z</time>
      </trkpt>
      <trkpt lat="47.33954" lon="-1.33722">
        <ele>118</ele>
        <time>2015-03-18T13:51:35.000Z</time>
      </trkpt>
      <trkpt lat="47.33949" lon="-1.33719">
        <ele>120</ele>
        <time>2015-03-18T13:51:37.000Z</time>
      </trkpt>
      <trkpt lat="47.33949" lon="-1.33719">
        <ele>120</ele>
        <time>2015-03-18T13:51:39.000Z</time>
      </trkpt>
      <trkpt lat="47.33938" lon="-1.33715">
        <ele>121</ele>
        <time>2015-03-18T13:51:41.000Z</time>
      </trkpt>
      <trkpt lat="47.33932" lon="-1.33712">
        <ele>121</ele>
        <time>2015-03-18T13:51:43.000Z</time>
      </trkpt>
      <trkpt lat="47.33925" lon="-1.33706">
        <ele>121</ele>
        <time>2015-03-18T13:51:45.000Z</time>
      </trkpt>
      <trkpt lat="47.33915" lon="-1.33697">
        <ele>121</ele>
        <time>2015-03-18T13:51:47.000Z</time>
      </trkpt>
      <trkpt lat="47.33906" lon="-1.33689">
        <ele>121</ele>
        <time>2015-03-18T13:51:49.000Z</time>
      </trkpt>
      <trkpt lat="47.33897" lon="-1.3368">
        <ele>120</ele>
        <time>2015-03-18T13:51:51.000Z</time>
      </trkpt>
      <trkpt lat="47.33889" lon="-1.33669">
        <ele>120</ele>
        <time>2015-03-18T13:51:53.000Z</time>
      </trkpt>
      <trkpt lat="47.33882" lon="-1.33658">
        <ele>120</ele>
        <time>2015-03-18T13:51:55.000Z</time>
      </trkpt>
      <trkpt lat="47.33874" lon="-1.33649">
        <ele>120</ele>
        <time>2015-03-18T13:51:57.000Z</time>
      </trkpt>
      <trkpt lat="47.33867" lon="-1.33643">
        <ele>121</ele>
        <time>2015-03-18T13:51:59.000Z</time>
      </trkpt>
      <trkpt lat="47.33858" lon="-1.33637">
        <ele>122</ele>
        <time>2015-03-18T13:52:01.000Z</time>
      </trkpt>
      <trkpt lat="47.3385" lon="-1.33629">
        <ele>121</ele>
        <time>2015-03-18T13:52:03.000Z</time>
      </trkpt>
      <trkpt lat="47.33842" lon="-1.33623">
        <ele>123</ele>
        <time>2015-03-18T13:52:05.000Z</time>
      </trkpt>
      <trkpt lat="47.33834" lon="-1.33616">
        <ele>124</ele>
        <time>2015-03-18T13:52:07.000Z</time>
      </trkpt>
      <trkpt lat="47.33827" lon="-1.33608">
        <ele>123</ele>
        <time>2015-03-18T13:52:09.000Z</time>
      </trkpt>
      <trkpt lat="47.33821" lon="-1.336">
        <ele>124</ele>
        <time>2015-03-18T13:52:11.000Z</time>
      </trkpt>
      <trkpt lat="47.33815" lon="-1.33592">
        <ele>124</ele>
        <time>2015-03-18T13:52:13.000Z</time>
      </trkpt>
      <trkpt lat="47.33809" lon="-1.33584">
        <ele>124</ele>
        <time>2015-03-18T13:52:15.000Z</time>
      </trkpt>
      <trkpt lat="47.338" lon="-1.33577">
        <ele>124</ele>
        <time>2015-03-18T13:52:17.000Z</time>
      </trkpt>
      <trkpt lat="47.33792" lon="-1.33571">
        <ele>124</ele>
        <time>2015-03-18T13:52:19.000Z</time>
      </trkpt>
      <trkpt lat="47.33784" lon="-1.33566">
        <ele>125</ele>
        <time>2015-03-18T13:52:21.000Z</time>
      </trkpt>
      <trkpt lat="47.33776" lon="-1.33557">
        <ele>125</ele>
        <time>2015-03-18T13:52:23.000Z</time>
      </trkpt>
      <trkpt lat="47.3377" lon="-1.3355">
        <ele>124</ele>
        <time>2015-03-18T13:52:25.000Z</time>
      </trkpt>
      <trkpt lat="47.33768" lon="-1.33532">
        <ele>124</ele>
        <time>2015-03-18T13:52:27.000Z</time>
      </trkpt>
      <trkpt lat="47.33769" lon="-1.33516">
        <ele>124</ele>
        <time>2015-03-18T13:52:29.000Z</time>
      </trkpt>
      <trkpt lat="47.33775" lon="-1.33503">
        <ele>125</ele>
        <time>2015-03-18T13:52:31.000Z</time>
      </trkpt>
      <trkpt lat="47.33782" lon="-1.33487">
        <ele>124</ele>
        <time>2015-03-18T13:52:33.000Z</time>
      </trkpt>
      <trkpt lat="47.33791" lon="-1.33472">
        <ele>121</ele>
        <time>2015-03-18T13:52:35.000Z</time>
      </trkpt>
      <trkpt lat="47.33797" lon="-1.33456">
        <ele>122</ele>
        <time>2015-03-18T13:52:37.000Z</time>
      </trkpt>
      <trkpt lat="47.33804" lon="-1.33434">
        <ele>122</ele>
        <time>2015-03-18T13:52:39.000Z</time>
      </trkpt>
      <trkpt lat="47.33813" lon="-1.33413">
        <ele>119</ele>
        <time>2015-03-18T13:52:41.000Z</time>
      </trkpt>
      <trkpt lat="47.3382" lon="-1.33392">
        <ele>122</ele>
        <time>2015-03-18T13:52:43.000Z</time>
      </trkpt>
      <trkpt lat="47.33826" lon="-1.33371">
        <ele>122</ele>
        <time>2015-03-18T13:52:45.000Z</time>
      </trkpt>
      <trkpt lat="47.33832" lon="-1.33349">
        <ele>122</ele>
        <time>2015-03-18T13:52:47.000Z</time>
      </trkpt>
      <trkpt lat="47.33839" lon="-1.33322">
        <ele>122</ele>
        <time>2015-03-18T13:52:49.000Z</time>
      </trkpt>
      <trkpt lat="47.33846" lon="-1.33297">
        <ele>122</ele>
        <time>2015-03-18T13:52:52.000Z</time>
      </trkpt>
      <trkpt lat="47.33854" lon="-1.33277">
        <ele>122</ele>
        <time>2015-03-18T13:52:54.000Z</time>
      </trkpt>
      <trkpt lat="47.33862" lon="-1.33263">
        <ele>122</ele>
        <time>2015-03-18T13:52:56.000Z</time>
      </trkpt>
      <trkpt lat="47.33868" lon="-1.33249">
        <ele>121</ele>
        <time>2015-03-18T13:52:58.000Z</time>
      </trkpt>
      <trkpt lat="47.33868" lon="-1.33238">
        <ele>121</ele>
        <time>2015-03-18T13:53:00.000Z</time>
      </trkpt>
      <trkpt lat="47.33872" lon="-1.33222">
        <ele>121</ele>
        <time>2015-03-18T13:53:02.000Z</time>
      </trkpt>
      <trkpt lat="47.33878" lon="-1.33202">
        <ele>121</ele>
        <time>2015-03-18T13:53:04.000Z</time>
      </trkpt>
      <trkpt lat="47.33883" lon="-1.33188">
        <ele>120</ele>
        <time>2015-03-18T13:53:06.000Z</time>
      </trkpt>
      <trkpt lat="47.33886" lon="-1.33177">
        <ele>119</ele>
        <time>2015-03-18T13:53:08.000Z</time>
      </trkpt>
      <trkpt lat="47.33891" lon="-1.33166">
        <ele>118</ele>
        <time>2015-03-18T13:53:10.000Z</time>
      </trkpt>
      <trkpt lat="47.33894" lon="-1.33154">
        <ele>114</ele>
        <time>2015-03-18T13:53:12.000Z</time>
      </trkpt>
      <trkpt lat="47.33895" lon="-1.33143">
        <ele>114</ele>
        <time>2015-03-18T13:53:14.000Z</time>
      </trkpt>
      <trkpt lat="47.33896" lon="-1.33134">
        <ele>114</ele>
        <time>2015-03-18T13:53:16.000Z</time>
      </trkpt>
      <trkpt lat="47.33895" lon="-1.33126">
        <ele>115</ele>
        <time>2015-03-18T13:53:18.000Z</time>
      </trkpt>
      <trkpt lat="47.33897" lon="-1.33115">
        <ele>115</ele>
        <time>2015-03-18T13:53:20.000Z</time>
      </trkpt>
      <trkpt lat="47.33902" lon="-1.33102">
        <ele>115</ele>
        <time>2015-03-18T13:53:22.000Z</time>
      </trkpt>
      <trkpt lat="47.33909" lon="-1.33089">
        <ele>116</ele>
        <time>2015-03-18T13:53:24.000Z</time>
      </trkpt>
      <trkpt lat="47.33915" lon="-1.33077">
        <ele>117</ele>
        <time>2015-03-18T13:53:26.000Z</time>
      </trkpt>
      <trkpt lat="47.33922" lon="-1.33065">
        <ele>117</ele>
        <time>2015-03-18T13:53:28.000Z</time>
      </trkpt>
      <trkpt lat="47.33928" lon="-1.33054">
        <ele>113</ele>
        <time>2015-03-18T13:53:30.000Z</time>
      </trkpt>
      <trkpt lat="47.33931" lon="-1.33046">
        <ele>113</ele>
        <time>2015-03-18T13:53:32.000Z</time>
      </trkpt>
      <trkpt lat="47.33934" lon="-1.33039">
        <ele>113</ele>
        <time>2015-03-18T13:53:34.000Z</time>
      </trkpt>
      <trkpt lat="47.33934" lon="-1.33039">
        <ele>113</ele>
        <time>2015-03-18T13:53:36.000Z</time>
      </trkpt>
      <trkpt lat="47.33934" lon="-1.33039">
        <ele>113</ele>
        <time>2015-03-18T13:53:38.000Z</time>
      </trkpt>
      <trkpt lat="47.33934" lon="-1.33039">
        <ele>113</ele>
        <time>2015-03-18T13:53:40.000Z</time>
      </trkpt>
      <trkpt lat="47.33944" lon="-1.33015">
        <ele>106</ele>
        <time>2015-03-18T13:54:32.000Z</time>
      </trkpt>
      <trkpt lat="47.33951" lon="-1.33001">
        <ele>107</ele>
        <time>2015-03-18T13:54:34.000Z</time>
      </trkpt>
      <trkpt lat="47.33956" lon="-1.32992">
        <ele>109</ele>
        <time>2015-03-18T13:54:36.000Z</time>
      </trkpt>
      <trkpt lat="47.3396" lon="-1.32985">
        <ele>110</ele>
        <time>2015-03-18T13:54:38.000Z</time>
      </trkpt>
      <trkpt lat="47.33963" lon="-1.32979">
        <ele>109</ele>
        <time>2015-03-18T13:54:40.000Z</time>
      </trkpt>
      <trkpt lat="47.3397" lon="-1.32967">
        <ele>106</ele>
        <time>2015-03-18T13:54:42.000Z</time>
      </trkpt>
      <trkpt lat="47.33976" lon="-1.3296">
        <ele>114</ele>
        <time>2015-03-18T13:54:46.000Z</time>
      </trkpt>
      <trkpt lat="47.33976" lon="-1.3296">
        <ele>114</ele>
        <time>2015-03-18T13:54:48.000Z</time>
      </trkpt>
      <trkpt lat="47.33976" lon="-1.3296">
        <ele>114</ele>
        <time>2015-03-18T13:54:50.000Z</time>
      </trkpt>
      <trkpt lat="47.33984" lon="-1.32955">
        <ele>114</ele>
        <time>2015-03-18T13:54:52.000Z</time>
      </trkpt>
      <trkpt lat="47.33984" lon="-1.32955">
        <ele>114</ele>
        <time>2015-03-18T13:54:54.000Z</time>
      </trkpt>
      <trkpt lat="47.33984" lon="-1.32955">
        <ele>114</ele>
        <time>2015-03-18T13:54:56.000Z</time>
      </trkpt>
      <trkpt lat="47.33989" lon="-1.32948">
        <ele>113</ele>
        <time>2015-03-18T13:54:58.000Z</time>
      </trkpt>
      <trkpt lat="47.33989" lon="-1.32948">
        <ele>113</ele>
        <time>2015-03-18T13:55:00.000Z</time>
      </trkpt>
      <trkpt lat="47.34" lon="-1.32935">
        <ele>117</ele>
        <time>2015-03-18T13:55:06.000Z</time>
      </trkpt>
      <trkpt lat="47.34006" lon="-1.32928">
        <ele>116</ele>
        <time>2015-03-18T13:55:10.000Z</time>
      </trkpt>
      <trkpt lat="47.34012" lon="-1.32918">
        <ele>119</ele>
        <time>2015-03-18T13:55:14.000Z</time>
      </trkpt>
      <trkpt lat="47.34018" lon="-1.32909">
        <ele>118</ele>
        <time>2015-03-18T13:55:18.000Z</time>
      </trkpt>
      <trkpt lat="47.34018" lon="-1.32909">
        <ele>118</ele>
        <time>2015-03-18T13:55:20.000Z</time>
      </trkpt>
      <trkpt lat="47.34023" lon="-1.329">
        <ele>124</ele>
        <time>2015-03-18T13:55:22.000Z</time>
      </trkpt>
      <trkpt lat="47.34023" lon="-1.329">
        <ele>124</ele>
        <time>2015-03-18T13:55:24.000Z</time>
      </trkpt>
      <trkpt lat="47.34027" lon="-1.32893">
        <ele>125</ele>
        <time>2015-03-18T13:55:26.000Z</time>
      </trkpt>
      <trkpt lat="47.34027" lon="-1.32893">
        <ele>125</ele>
        <time>2015-03-18T13:55:28.000Z</time>
      </trkpt>
      <trkpt lat="47.34034" lon="-1.32886">
        <ele>126</ele>
        <time>2015-03-18T13:55:30.000Z</time>
      </trkpt>
      <trkpt lat="47.3404" lon="-1.32877">
        <ele>127</ele>
        <time>2015-03-18T13:55:34.000Z</time>
      </trkpt>
      <trkpt lat="47.34046" lon="-1.32869">
        <ele>131</ele>
        <time>2015-03-18T13:55:38.000Z</time>
      </trkpt>
      <trkpt lat="47.34046" lon="-1.32869">
        <ele>131</ele>
        <time>2015-03-18T13:55:40.000Z</time>
      </trkpt>
      <trkpt lat="47.34052" lon="-1.32861">
        <ele>134</ele>
        <time>2015-03-18T13:55:42.000Z</time>
      </trkpt>
      <trkpt lat="47.34059" lon="-1.32854">
        <ele>133</ele>
        <time>2015-03-18T13:55:46.000Z</time>
      </trkpt>
      <trkpt lat="47.34059" lon="-1.32854">
        <ele>133</ele>
        <time>2015-03-18T13:55:48.000Z</time>
      </trkpt>
      <trkpt lat="47.34066" lon="-1.32847">
        <ele>132</ele>
        <time>2015-03-18T13:55:50.000Z</time>
      </trkpt>
      <trkpt lat="47.34066" lon="-1.32847">
        <ele>132</ele>
        <time>2015-03-18T13:55:52.000Z</time>
      </trkpt>
      <trkpt lat="47.34072" lon="-1.32842">
        <ele>133</ele>
        <time>2015-03-18T13:55:54.000Z</time>
      </trkpt>
      <trkpt lat="47.34072" lon="-1.32842">
        <ele>133</ele>
        <time>2015-03-18T13:55:56.000Z</time>
      </trkpt>
      <trkpt lat="47.34078" lon="-1.32838">
        <ele>132</ele>
        <time>2015-03-18T13:55:58.000Z</time>
      </trkpt>
      <trkpt lat="47.34085" lon="-1.32825">
        <ele>133</ele>
        <time>2015-03-18T13:56:02.000Z</time>
      </trkpt>
      <trkpt lat="47.3409" lon="-1.32819">
        <ele>132</ele>
        <time>2015-03-18T13:56:04.000Z</time>
      </trkpt>
      <trkpt lat="47.34095" lon="-1.32814">
        <ele>134</ele>
        <time>2015-03-18T13:56:06.000Z</time>
      </trkpt>
      <trkpt lat="47.34101" lon="-1.32803">
        <ele>126</ele>
        <time>2015-03-18T13:56:10.000Z</time>
      </trkpt>
      <trkpt lat="47.34107" lon="-1.32789">
        <ele>125</ele>
        <time>2015-03-18T13:56:14.000Z</time>
      </trkpt>
      <trkpt lat="47.34107" lon="-1.32789">
        <ele>125</ele>
        <time>2015-03-18T13:56:16.000Z</time>
      </trkpt>
      <trkpt lat="47.34114" lon="-1.32784">
        <ele>124</ele>
        <time>2015-03-18T13:56:18.000Z</time>
      </trkpt>
      <trkpt lat="47.34114" lon="-1.32784">
        <ele>124</ele>
        <time>2015-03-18T13:56:20.000Z</time>
      </trkpt>
      <trkpt lat="47.34114" lon="-1.32784">
        <ele>124</ele>
        <time>2015-03-18T13:56:22.000Z</time>
      </trkpt>
      <trkpt lat="47.34114" lon="-1.32784">
        <ele>124</ele>
        <time>2015-03-18T13:56:24.000Z</time>
      </trkpt>
      <trkpt lat="47.34114" lon="-1.32784">
        <ele>124</ele>
        <time>2015-03-18T13:56:26.000Z</time>
      </trkpt>
      <trkpt lat="47.34114" lon="-1.32784">
        <ele>124</ele>
        <time>2015-03-18T13:56:34.000Z</time>
      </trkpt>
      <trkpt lat="47.34114" lon="-1.32784">
        <ele>124</ele>
        <time>2015-03-18T13:56:36.000Z</time>
      </trkpt>
      <trkpt lat="47.34127" lon="-1.32765">
        <ele>112</ele>
        <time>2015-03-18T13:56:52.000Z</time>
      </trkpt>
      <trkpt lat="47.34134" lon="-1.32753">
        <ele>113</ele>
        <time>2015-03-18T13:56:54.000Z</time>
      </trkpt>
      <trkpt lat="47.34138" lon="-1.32747">
        <ele>115</ele>
        <time>2015-03-18T13:56:56.000Z</time>
      </trkpt>
      <trkpt lat="47.34142" lon="-1.32742">
        <ele>114</ele>
        <time>2015-03-18T13:56:58.000Z</time>
      </trkpt>
      <trkpt lat="47.34142" lon="-1.32742">
        <ele>114</ele>
        <time>2015-03-18T13:57:00.000Z</time>
      </trkpt>
      <trkpt lat="47.34146" lon="-1.32737">
        <ele>113</ele>
        <time>2015-03-18T13:57:02.000Z</time>
      </trkpt>
      <trkpt lat="47.3415" lon="-1.32734">
        <ele>116</ele>
        <time>2015-03-18T13:57:04.000Z</time>
      </trkpt>
      <trkpt lat="47.34154" lon="-1.3273">
        <ele>116</ele>
        <time>2015-03-18T13:57:06.000Z</time>
      </trkpt>
      <trkpt lat="47.34157" lon="-1.32725">
        <ele>116</ele>
        <time>2015-03-18T13:57:08.000Z</time>
      </trkpt>
      <trkpt lat="47.3416" lon="-1.32721">
        <ele>116</ele>
        <time>2015-03-18T13:57:10.000Z</time>
      </trkpt>
      <trkpt lat="47.34168" lon="-1.32712">
        <ele>118</ele>
        <time>2015-03-18T13:57:12.000Z</time>
      </trkpt>
      <trkpt lat="47.34175" lon="-1.32705">
        <ele>122</ele>
        <time>2015-03-18T13:57:16.000Z</time>
      </trkpt>
      <trkpt lat="47.34182" lon="-1.32695">
        <ele>123</ele>
        <time>2015-03-18T13:57:20.000Z</time>
      </trkpt>
      <trkpt lat="47.3419" lon="-1.32687">
        <ele>120</ele>
        <time>2015-03-18T13:57:24.000Z</time>
      </trkpt>
      <trkpt lat="47.34195" lon="-1.32682">
        <ele>117</ele>
        <time>2015-03-18T13:57:26.000Z</time>
      </trkpt>
      <trkpt lat="47.34195" lon="-1.32682">
        <ele>117</ele>
        <time>2015-03-18T13:57:28.000Z</time>
      </trkpt>
      <trkpt lat="47.34201" lon="-1.32674">
        <ele>115</ele>
        <time>2015-03-18T13:57:30.000Z</time>
      </trkpt>
      <trkpt lat="47.34201" lon="-1.32674">
        <ele>115</ele>
        <time>2015-03-18T13:57:32.000Z</time>
      </trkpt>
      <trkpt lat="47.34203" lon="-1.32666">
        <ele>114</ele>
        <time>2015-03-18T13:57:34.000Z</time>
      </trkpt>
      <trkpt lat="47.34203" lon="-1.32666">
        <ele>114</ele>
        <time>2015-03-18T13:57:36.000Z</time>
      </trkpt>
      <trkpt lat="47.34203" lon="-1.32666">
        <ele>114</ele>
        <time>2015-03-18T13:57:38.000Z</time>
      </trkpt>
      <trkpt lat="47.34203" lon="-1.32666">
        <ele>114</ele>
        <time>2015-03-18T13:57:48.000Z</time>
      </trkpt>
      <trkpt lat="47.3419" lon="-1.3262">
        <ele>102</ele>
        <time>2015-03-18T14:01:09.000Z</time>
      </trkpt>
      <trkpt lat="47.34183" lon="-1.32595">
        <ele>102</ele>
        <time>2015-03-18T14:01:11.000Z</time>
      </trkpt>
      <trkpt lat="47.34178" lon="-1.32581">
        <ele>102</ele>
        <time>2015-03-18T14:01:13.000Z</time>
      </trkpt>
      <trkpt lat="47.34175" lon="-1.32572">
        <ele>101</ele>
        <time>2015-03-18T14:01:15.000Z</time>
      </trkpt>
      <trkpt lat="47.34172" lon="-1.32566">
        <ele>103</ele>
        <time>2015-03-18T14:01:17.000Z</time>
      </trkpt>
      <trkpt lat="47.34167" lon="-1.32558">
        <ele>104</ele>
        <time>2015-03-18T14:01:19.000Z</time>
      </trkpt>
      <trkpt lat="47.34167" lon="-1.32558">
        <ele>104</ele>
        <time>2015-03-18T14:01:21.000Z</time>
      </trkpt>
      <trkpt lat="47.34164" lon="-1.32549">
        <ele>105</ele>
        <time>2015-03-18T14:01:23.000Z</time>
      </trkpt>
      <trkpt lat="47.34164" lon="-1.32549">
        <ele>105</ele>
        <time>2015-03-18T14:01:25.000Z</time>
      </trkpt>
      <trkpt lat="47.3416" lon="-1.32538">
        <ele>107</ele>
        <time>2015-03-18T14:01:27.000Z</time>
      </trkpt>
      <trkpt lat="47.34156" lon="-1.3253">
        <ele>112</ele>
        <time>2015-03-18T14:01:31.000Z</time>
      </trkpt>
      <trkpt lat="47.34156" lon="-1.3253">
        <ele>112</ele>
        <time>2015-03-18T14:01:33.000Z</time>
      </trkpt>
      <trkpt lat="47.34153" lon="-1.32522">
        <ele>117</ele>
        <time>2015-03-18T14:01:35.000Z</time>
      </trkpt>
      <trkpt lat="47.34148" lon="-1.32516">
        <ele>119</ele>
        <time>2015-03-18T14:01:39.000Z</time>
      </trkpt>
      <trkpt lat="47.34148" lon="-1.32516">
        <ele>119</ele>
        <time>2015-03-18T14:01:41.000Z</time>
      </trkpt>
      <trkpt lat="47.34148" lon="-1.32516">
        <ele>119</ele>
        <time>2015-03-18T14:01:43.000Z</time>
      </trkpt>
      <trkpt lat="47.34148" lon="-1.32516">
        <ele>119</ele>
        <time>2015-03-18T14:01:45.000Z</time>
      </trkpt>
      <trkpt lat="47.34148" lon="-1.32516">
        <ele>119</ele>
        <time>2015-03-18T14:01:51.000Z</time>
      </trkpt>
      <trkpt lat="47.34148" lon="-1.32516">
        <ele>119</ele>
        <time>2015-03-18T14:01:53.000Z</time>
      </trkpt>
      <trkpt lat="47.3413" lon="-1.32497">
        <ele>126</ele>
        <time>2015-03-18T14:01:57.000Z</time>
      </trkpt>
      <trkpt lat="47.3413" lon="-1.32497">
        <ele>126</ele>
        <time>2015-03-18T14:01:59.000Z</time>
      </trkpt>
      <trkpt lat="47.3413" lon="-1.32497">
        <ele>126</ele>
        <time>2015-03-18T14:02:01.000Z</time>
      </trkpt>
      <trkpt lat="47.3413" lon="-1.32497">
        <ele>126</ele>
        <time>2015-03-18T14:02:03.000Z</time>
      </trkpt>
      <trkpt lat="47.3413" lon="-1.32497">
        <ele>126</ele>
        <time>2015-03-18T14:02:05.000Z</time>
      </trkpt>
      <trkpt lat="47.3413" lon="-1.32497">
        <ele>126</ele>
        <time>2015-03-18T14:02:07.000Z</time>
      </trkpt>
      <trkpt lat="47.3413" lon="-1.32497">
        <ele>126</ele>
        <time>2015-03-18T14:02:09.000Z</time>
      </trkpt>
      <trkpt lat="47.3413" lon="-1.32497">
        <ele>126</ele>
        <time>2015-03-18T14:02:11.000Z</time>
      </trkpt>
      <trkpt lat="47.3413" lon="-1.32497">
        <ele>126</ele>
        <time>2015-03-18T14:02:19.000Z</time>
      </trkpt>
      <trkpt lat="47.34117" lon="-1.32481">
        <ele>125</ele>
        <time>2015-03-18T14:02:35.000Z</time>
      </trkpt>
      <trkpt lat="47.34109" lon="-1.32472">
        <ele>125</ele>
        <time>2015-03-18T14:02:37.000Z</time>
      </trkpt>
      <trkpt lat="47.34104" lon="-1.32466">
        <ele>128</ele>
        <time>2015-03-18T14:02:39.000Z</time>
      </trkpt>
      <trkpt lat="47.34101" lon="-1.32462">
        <ele>130</ele>
        <time>2015-03-18T14:02:41.000Z</time>
      </trkpt>
      <trkpt lat="47.34098" lon="-1.32458">
        <ele>130</ele>
        <time>2015-03-18T14:02:43.000Z</time>
      </trkpt>
      <trkpt lat="47.34093" lon="-1.32451">
        <ele>130</ele>
        <time>2015-03-18T14:02:45.000Z</time>
      </trkpt>
      <trkpt lat="47.34093" lon="-1.32451">
        <ele>130</ele>
        <time>2015-03-18T14:02:47.000Z</time>
      </trkpt>
      <trkpt lat="47.34089" lon="-1.32445">
        <ele>130</ele>
        <time>2015-03-18T14:02:49.000Z</time>
      </trkpt>
      <trkpt lat="47.34089" lon="-1.32445">
        <ele>130</ele>
        <time>2015-03-18T14:02:51.000Z</time>
      </trkpt>
      <trkpt lat="47.34089" lon="-1.32445">
        <ele>130</ele>
        <time>2015-03-18T14:02:53.000Z</time>
      </trkpt>
      <trkpt lat="47.34089" lon="-1.32445">
        <ele>130</ele>
        <time>2015-03-18T14:02:55.000Z</time>
      </trkpt>
      <trkpt lat="47.34079" lon="-1.3244">
        <ele>130</ele>
        <time>2015-03-18T14:02:57.000Z</time>
      </trkpt>
      <trkpt lat="47.34072" lon="-1.32432">
        <ele>132</ele>
        <time>2015-03-18T14:03:01.000Z</time>
      </trkpt>
      <trkpt lat="47.34065" lon="-1.32424">
        <ele>127</ele>
        <time>2015-03-18T14:03:05.000Z</time>
      </trkpt>
      <trkpt lat="47.34058" lon="-1.32415">
        <ele>127</ele>
        <time>2015-03-18T14:03:09.000Z</time>
      </trkpt>
      <trkpt lat="47.3405" lon="-1.32405">
        <ele>129</ele>
        <time>2015-03-18T14:03:13.000Z</time>
      </trkpt>
      <trkpt lat="47.34042" lon="-1.32396">
        <ele>130</ele>
        <time>2015-03-18T14:03:17.000Z</time>
      </trkpt>
      <trkpt lat="47.34035" lon="-1.32383">
        <ele>126</ele>
        <time>2015-03-18T14:03:21.000Z</time>
      </trkpt>
      <trkpt lat="47.34037" lon="-1.32368">
        <ele>126</ele>
        <time>2015-03-18T14:03:25.000Z</time>
      </trkpt>
      <trkpt lat="47.34038" lon="-1.32359">
        <ele>126</ele>
        <time>2015-03-18T14:03:27.000Z</time>
      </trkpt>
      <trkpt lat="47.34038" lon="-1.32346">
        <ele>129</ele>
        <time>2015-03-18T14:03:31.000Z</time>
      </trkpt>
      <trkpt lat="47.34038" lon="-1.32346">
        <ele>129</ele>
        <time>2015-03-18T14:03:33.000Z</time>
      </trkpt>
      <trkpt lat="47.34035" lon="-1.32333">
        <ele>129</ele>
        <time>2015-03-18T14:03:35.000Z</time>
      </trkpt>
      <trkpt lat="47.34035" lon="-1.32333">
        <ele>129</ele>
        <time>2015-03-18T14:03:37.000Z</time>
      </trkpt>
      <trkpt lat="47.34028" lon="-1.32321">
        <ele>130</ele>
        <time>2015-03-18T14:03:39.000Z</time>
      </trkpt>
      <trkpt lat="47.34021" lon="-1.32308">
        <ele>132</ele>
        <time>2015-03-18T14:03:43.000Z</time>
      </trkpt>
      <trkpt lat="47.34013" lon="-1.32296">
        <ele>135</ele>
        <time>2015-03-18T14:03:47.000Z</time>
      </trkpt>
      <trkpt lat="47.34008" lon="-1.32289">
        <ele>134</ele>
        <time>2015-03-18T14:03:49.000Z</time>
      </trkpt>
      <trkpt lat="47.34003" lon="-1.32283">
        <ele>136</ele>
        <time>2015-03-18T14:03:51.000Z</time>
      </trkpt>
      <trkpt lat="47.34003" lon="-1.32283">
        <ele>136</ele>
        <time>2015-03-18T14:03:53.000Z</time>
      </trkpt>
      <trkpt lat="47.33997" lon="-1.32273">
        <ele>133</ele>
        <time>2015-03-18T14:03:55.000Z</time>
      </trkpt>
      <trkpt lat="47.33995" lon="-1.32265">
        <ele>132</ele>
        <time>2015-03-18T14:03:57.000Z</time>
      </trkpt>
      <trkpt lat="47.3399" lon="-1.32256">
        <ele>133</ele>
        <time>2015-03-18T14:03:59.000Z</time>
      </trkpt>
      <trkpt lat="47.33985" lon="-1.32245">
        <ele>133</ele>
        <time>2015-03-18T14:04:01.000Z</time>
      </trkpt>
      <trkpt lat="47.33981" lon="-1.32233">
        <ele>135</ele>
        <time>2015-03-18T14:04:03.000Z</time>
      </trkpt>
      <trkpt lat="47.33976" lon="-1.32222">
        <ele>135</ele>
        <time>2015-03-18T14:04:05.000Z</time>
      </trkpt>
      <trkpt lat="47.33972" lon="-1.32212">
        <ele>136</ele>
        <time>2015-03-18T14:04:07.000Z</time>
      </trkpt>
      <trkpt lat="47.33968" lon="-1.32201">
        <ele>137</ele>
        <time>2015-03-18T14:04:09.000Z</time>
      </trkpt>
      <trkpt lat="47.33963" lon="-1.32191">
        <ele>136</ele>
        <time>2015-03-18T14:04:11.000Z</time>
      </trkpt>
      <trkpt lat="47.33957" lon="-1.3218">
        <ele>136</ele>
        <time>2015-03-18T14:04:13.000Z</time>
      </trkpt>
      <trkpt lat="47.33952" lon="-1.3217">
        <ele>136</ele>
        <time>2015-03-18T14:04:15.000Z</time>
      </trkpt>
      <trkpt lat="47.33946" lon="-1.32159">
        <ele>133</ele>
        <time>2015-03-18T14:04:17.000Z</time>
      </trkpt>
      <trkpt lat="47.3394" lon="-1.32149">
        <ele>131</ele>
        <time>2015-03-18T14:04:19.000Z</time>
      </trkpt>
      <trkpt lat="47.33935" lon="-1.32139">
        <ele>132</ele>
        <time>2015-03-18T14:04:21.000Z</time>
      </trkpt>
      <trkpt lat="47.33931" lon="-1.32131">
        <ele>133</ele>
        <time>2015-03-18T14:04:23.000Z</time>
      </trkpt>
      <trkpt lat="47.33926" lon="-1.32123">
        <ele>134</ele>
        <time>2015-03-18T14:04:25.000Z</time>
      </trkpt>
      <trkpt lat="47.33922" lon="-1.32116">
        <ele>136</ele>
        <time>2015-03-18T14:04:27.000Z</time>
      </trkpt>
      <trkpt lat="47.33918" lon="-1.32107">
        <ele>134</ele>
        <time>2015-03-18T14:04:29.000Z</time>
      </trkpt>
      <trkpt lat="47.33913" lon="-1.32096">
        <ele>132</ele>
        <time>2015-03-18T14:04:31.000Z</time>
      </trkpt>
      <trkpt lat="47.33908" lon="-1.32085">
        <ele>129</ele>
        <time>2015-03-18T14:04:33.000Z</time>
      </trkpt>
      <trkpt lat="47.33904" lon="-1.32075">
        <ele>130</ele>
        <time>2015-03-18T14:04:35.000Z</time>
      </trkpt>
      <trkpt lat="47.339" lon="-1.32066">
        <ele>129</ele>
        <time>2015-03-18T14:04:37.000Z</time>
      </trkpt>
      <trkpt lat="47.33898" lon="-1.32056">
        <ele>128</ele>
        <time>2015-03-18T14:04:39.000Z</time>
      </trkpt>
      <trkpt lat="47.33895" lon="-1.32047">
        <ele>127</ele>
        <time>2015-03-18T14:04:41.000Z</time>
      </trkpt>
      <trkpt lat="47.33892" lon="-1.32039">
        <ele>128</ele>
        <time>2015-03-18T14:04:43.000Z</time>
      </trkpt>
      <trkpt lat="47.33892" lon="-1.32039">
        <ele>128</ele>
        <time>2015-03-18T14:04:45.000Z</time>
      </trkpt>
      <trkpt lat="47.33887" lon="-1.32028">
        <ele>129</ele>
        <time>2015-03-18T14:04:47.000Z</time>
      </trkpt>
      <trkpt lat="47.33887" lon="-1.32028">
        <ele>129</ele>
        <time>2015-03-18T14:04:49.000Z</time>
      </trkpt>
      <trkpt lat="47.33883" lon="-1.32018">
        <ele>130</ele>
        <time>2015-03-18T14:04:51.000Z</time>
      </trkpt>
      <trkpt lat="47.33883" lon="-1.32018">
        <ele>130</ele>
        <time>2015-03-18T14:04:53.000Z</time>
      </trkpt>
      <trkpt lat="47.33882" lon="-1.32008">
        <ele>131</ele>
        <time>2015-03-18T14:04:55.000Z</time>
      </trkpt>
      <trkpt lat="47.33882" lon="-1.32008">
        <ele>131</ele>
        <time>2015-03-18T14:04:57.000Z</time>
      </trkpt>
      <trkpt lat="47.33883" lon="-1.31999">
        <ele>132</ele>
        <time>2015-03-18T14:04:59.000Z</time>
      </trkpt>
      <trkpt lat="47.33887" lon="-1.31986">
        <ele>133</ele>
        <time>2015-03-18T14:05:03.000Z</time>
      </trkpt>
      <trkpt lat="47.33892" lon="-1.31975">
        <ele>134</ele>
        <time>2015-03-18T14:05:07.000Z</time>
      </trkpt>
      <trkpt lat="47.33892" lon="-1.31975">
        <ele>134</ele>
        <time>2015-03-18T14:05:09.000Z</time>
      </trkpt>
      <trkpt lat="47.33895" lon="-1.31964">
        <ele>137</ele>
        <time>2015-03-18T14:05:11.000Z</time>
      </trkpt>
      <trkpt lat="47.33899" lon="-1.31952">
        <ele>137</ele>
        <time>2015-03-18T14:05:15.000Z</time>
      </trkpt>
      <trkpt lat="47.33903" lon="-1.31939">
        <ele>140</ele>
        <time>2015-03-18T14:05:19.000Z</time>
      </trkpt>
      <trkpt lat="47.33907" lon="-1.31926">
        <ele>139</ele>
        <time>2015-03-18T14:05:23.000Z</time>
      </trkpt>
      <trkpt lat="47.33907" lon="-1.31926">
        <ele>139</ele>
        <time>2015-03-18T14:05:25.000Z</time>
      </trkpt>
      <trkpt lat="47.33912" lon="-1.31914">
        <ele>137</ele>
        <time>2015-03-18T14:05:27.000Z</time>
      </trkpt>
      <trkpt lat="47.33916" lon="-1.31906">
        <ele>136</ele>
        <time>2015-03-18T14:05:29.000Z</time>
      </trkpt>
      <trkpt lat="47.33919" lon="-1.31898">
        <ele>137</ele>
        <time>2015-03-18T14:05:31.000Z</time>
      </trkpt>
      <trkpt lat="47.33923" lon="-1.31883">
        <ele>140</ele>
        <time>2015-03-18T14:05:35.000Z</time>
      </trkpt>
      <trkpt lat="47.33927" lon="-1.31877">
        <ele>138</ele>
        <time>2015-03-18T14:05:39.000Z</time>
      </trkpt>
      <trkpt lat="47.3393" lon="-1.31871">
        <ele>137</ele>
        <time>2015-03-18T14:05:41.000Z</time>
      </trkpt>
      <trkpt lat="47.33933" lon="-1.31864">
        <ele>137</ele>
        <time>2015-03-18T14:05:43.000Z</time>
      </trkpt>
      <trkpt lat="47.33937" lon="-1.31857">
        <ele>137</ele>
        <time>2015-03-18T14:05:45.000Z</time>
      </trkpt>
      <trkpt lat="47.3394" lon="-1.31849">
        <ele>136</ele>
        <time>2015-03-18T14:05:47.000Z</time>
      </trkpt>
      <trkpt lat="47.33947" lon="-1.31832">
        <ele>135</ele>
        <time>2015-03-18T14:05:49.000Z</time>
      </trkpt>
      <trkpt lat="47.33951" lon="-1.31823">
        <ele>133</ele>
        <time>2015-03-18T14:05:51.000Z</time>
      </trkpt>
      <trkpt lat="47.33955" lon="-1.31815">
        <ele>131</ele>
        <time>2015-03-18T14:05:53.000Z</time>
      </trkpt>
      <trkpt lat="47.33959" lon="-1.31807">
        <ele>130</ele>
        <time>2015-03-18T14:05:55.000Z</time>
      </trkpt>
      <trkpt lat="47.33963" lon="-1.318">
        <ele>129</ele>
        <time>2015-03-18T14:05:57.000Z</time>
      </trkpt>
      <trkpt lat="47.33967" lon="-1.31793">
        <ele>129</ele>
        <time>2015-03-18T14:05:59.000Z</time>
      </trkpt>
      <trkpt lat="47.33972" lon="-1.31786">
        <ele>129</ele>
        <time>2015-03-18T14:06:01.000Z</time>
      </trkpt>
      <trkpt lat="47.33976" lon="-1.3178">
        <ele>129</ele>
        <time>2015-03-18T14:06:03.000Z</time>
      </trkpt>
      <trkpt lat="47.3398" lon="-1.31774">
        <ele>129</ele>
        <time>2015-03-18T14:06:05.000Z</time>
      </trkpt>
      <trkpt lat="47.33985" lon="-1.31767">
        <ele>129</ele>
        <time>2015-03-18T14:06:07.000Z</time>
      </trkpt>
      <trkpt lat="47.3399" lon="-1.3176">
        <ele>128</ele>
        <time>2015-03-18T14:06:09.000Z</time>
      </trkpt>
      <trkpt lat="47.33995" lon="-1.31752">
        <ele>128</ele>
        <time>2015-03-18T14:06:11.000Z</time>
      </trkpt>
      <trkpt lat="47.34001" lon="-1.31746">
        <ele>128</ele>
        <time>2015-03-18T14:06:13.000Z</time>
      </trkpt>
      <trkpt lat="47.34007" lon="-1.3174">
        <ele>127</ele>
        <time>2015-03-18T14:06:15.000Z</time>
      </trkpt>
      <trkpt lat="47.34012" lon="-1.31733">
        <ele>126</ele>
        <time>2015-03-18T14:06:17.000Z</time>
      </trkpt>
      <trkpt lat="47.34018" lon="-1.31726">
        <ele>126</ele>
        <time>2015-03-18T14:06:19.000Z</time>
      </trkpt>
      <trkpt lat="47.34023" lon="-1.31719">
        <ele>127</ele>
        <time>2015-03-18T14:06:21.000Z</time>
      </trkpt>
      <trkpt lat="47.34024" lon="-1.3171">
        <ele>126</ele>
        <time>2015-03-18T14:06:23.000Z</time>
      </trkpt>
      <trkpt lat="47.34019" lon="-1.31686">
        <ele>125</ele>
        <time>2015-03-18T14:06:26.000Z</time>
      </trkpt>
      <trkpt lat="47.34017" lon="-1.31672">
        <ele>125</ele>
        <time>2015-03-18T14:06:28.000Z</time>
      </trkpt>
      <trkpt lat="47.34014" lon="-1.3166">
        <ele>123</ele>
        <time>2015-03-18T14:06:30.000Z</time>
      </trkpt>
      <trkpt lat="47.34011" lon="-1.31649">
        <ele>123</ele>
        <time>2015-03-18T14:06:32.000Z</time>
      </trkpt>
      <trkpt lat="47.34007" lon="-1.31638">
        <ele>123</ele>
        <time>2015-03-18T14:06:34.000Z</time>
      </trkpt>
      <trkpt lat="47.34003" lon="-1.31625">
        <ele>122</ele>
        <time>2015-03-18T14:06:36.000Z</time>
      </trkpt>
      <trkpt lat="47.33999" lon="-1.31614">
        <ele>122</ele>
        <time>2015-03-18T14:06:38.000Z</time>
      </trkpt>
      <trkpt lat="47.33995" lon="-1.31599">
        <ele>121</ele>
        <time>2015-03-18T14:06:40.000Z</time>
      </trkpt>
      <trkpt lat="47.3399" lon="-1.31581">
        <ele>121</ele>
        <time>2015-03-18T14:06:42.000Z</time>
      </trkpt>
      <trkpt lat="47.33985" lon="-1.31563">
        <ele>120</ele>
        <time>2015-03-18T14:06:44.000Z</time>
      </trkpt>
      <trkpt lat="47.33979" lon="-1.31543">
        <ele>119</ele>
        <time>2015-03-18T14:06:46.000Z</time>
      </trkpt>
      <trkpt lat="47.33973" lon="-1.31524">
        <ele>119</ele>
        <time>2015-03-18T14:06:48.000Z</time>
      </trkpt>
      <trkpt lat="47.33965" lon="-1.31507">
        <ele>118</ele>
        <time>2015-03-18T14:06:50.000Z</time>
      </trkpt>
      <trkpt lat="47.33955" lon="-1.31493">
        <ele>118</ele>
        <time>2015-03-18T14:06:52.000Z</time>
      </trkpt>
      <trkpt lat="47.33944" lon="-1.3148">
        <ele>118</ele>
        <time>2015-03-18T14:06:54.000Z</time>
      </trkpt>
      <trkpt lat="47.33933" lon="-1.31469">
        <ele>118</ele>
        <time>2015-03-18T14:06:56.000Z</time>
      </trkpt>
      <trkpt lat="47.33923" lon="-1.31462">
        <ele>117</ele>
        <time>2015-03-18T14:06:58.000Z</time>
      </trkpt>
      <trkpt lat="47.33913" lon="-1.31452">
        <ele>117</ele>
        <time>2015-03-18T14:07:00.000Z</time>
      </trkpt>
      <trkpt lat="47.33906" lon="-1.31438">
        <ele>117</ele>
        <time>2015-03-18T14:07:02.000Z</time>
      </trkpt>
      <trkpt lat="47.339" lon="-1.31424">
        <ele>116</ele>
        <time>2015-03-18T14:07:04.000Z</time>
      </trkpt>
      <trkpt lat="47.33894" lon="-1.31409">
        <ele>116</ele>
        <time>2015-03-18T14:07:06.000Z</time>
      </trkpt>
      <trkpt lat="47.33885" lon="-1.31397">
        <ele>115</ele>
        <time>2015-03-18T14:07:08.000Z</time>
      </trkpt>
      <trkpt lat="47.33876" lon="-1.31388">
        <ele>114</ele>
        <time>2015-03-18T14:07:10.000Z</time>
      </trkpt>
      <trkpt lat="47.33867" lon="-1.31377">
        <ele>113</ele>
        <time>2015-03-18T14:07:12.000Z</time>
      </trkpt>
      <trkpt lat="47.33859" lon="-1.31368">
        <ele>113</ele>
        <time>2015-03-18T14:07:14.000Z</time>
      </trkpt>
      <trkpt lat="47.33851" lon="-1.31359">
        <ele>112</ele>
        <time>2015-03-18T14:07:16.000Z</time>
      </trkpt>
      <trkpt lat="47.33851" lon="-1.31359">
        <ele>112</ele>
        <time>2015-03-18T14:07:18.000Z</time>
      </trkpt>
      <trkpt lat="47.33848" lon="-1.31349">
        <ele>112</ele>
        <time>2015-03-18T14:07:20.000Z</time>
      </trkpt>
      <trkpt lat="47.33851" lon="-1.31339">
        <ele>114</ele>
        <time>2015-03-18T14:07:22.000Z</time>
      </trkpt>
      <trkpt lat="47.33853" lon="-1.3133">
        <ele>112</ele>
        <time>2015-03-18T14:07:24.000Z</time>
      </trkpt>
      <trkpt lat="47.33853" lon="-1.3133">
        <ele>112</ele>
        <time>2015-03-18T14:07:26.000Z</time>
      </trkpt>
      <trkpt lat="47.33859" lon="-1.3132">
        <ele>111</ele>
        <time>2015-03-18T14:07:28.000Z</time>
      </trkpt>
      <trkpt lat="47.33866" lon="-1.31311">
        <ele>112</ele>
        <time>2015-03-18T14:07:30.000Z</time>
      </trkpt>
      <trkpt lat="47.33872" lon="-1.31302">
        <ele>112</ele>
        <time>2015-03-18T14:07:32.000Z</time>
      </trkpt>
      <trkpt lat="47.33879" lon="-1.31293">
        <ele>112</ele>
        <time>2015-03-18T14:07:34.000Z</time>
      </trkpt>
      <trkpt lat="47.33884" lon="-1.31286">
        <ele>113</ele>
        <time>2015-03-18T14:07:36.000Z</time>
      </trkpt>
      <trkpt lat="47.3389" lon="-1.3128">
        <ele>113</ele>
        <time>2015-03-18T14:07:38.000Z</time>
      </trkpt>
      <trkpt lat="47.33897" lon="-1.31274">
        <ele>114</ele>
        <time>2015-03-18T14:07:40.000Z</time>
      </trkpt>
      <trkpt lat="47.33907" lon="-1.3126">
        <ele>115</ele>
        <time>2015-03-18T14:07:42.000Z</time>
      </trkpt>
      <trkpt lat="47.33913" lon="-1.31252">
        <ele>116</ele>
        <time>2015-03-18T14:07:44.000Z</time>
      </trkpt>
      <trkpt lat="47.33922" lon="-1.31241">
        <ele>115</ele>
        <time>2015-03-18T14:07:46.000Z</time>
      </trkpt>
      <trkpt lat="47.33927" lon="-1.31231">
        <ele>117</ele>
        <time>2015-03-18T14:07:48.000Z</time>
      </trkpt>
      <trkpt lat="47.33931" lon="-1.31221">
        <ele>118</ele>
        <time>2015-03-18T14:07:50.000Z</time>
      </trkpt>
      <trkpt lat="47.33931" lon="-1.31221">
        <ele>118</ele>
        <time>2015-03-18T14:07:52.000Z</time>
      </trkpt>
      <trkpt lat="47.33936" lon="-1.31204">
        <ele>116</ele>
        <time>2015-03-18T14:07:54.000Z</time>
      </trkpt>
      <trkpt lat="47.33939" lon="-1.31196">
        <ele>117</ele>
        <time>2015-03-18T14:07:56.000Z</time>
      </trkpt>
      <trkpt lat="47.33944" lon="-1.31189">
        <ele>117</ele>
        <time>2015-03-18T14:07:58.000Z</time>
      </trkpt>
      <trkpt lat="47.33949" lon="-1.31183">
        <ele>117</ele>
        <time>2015-03-18T14:08:00.000Z</time>
      </trkpt>
      <trkpt lat="47.33954" lon="-1.31177">
        <ele>119</ele>
        <time>2015-03-18T14:08:02.000Z</time>
      </trkpt>
      <trkpt lat="47.33954" lon="-1.31177">
        <ele>119</ele>
        <time>2015-03-18T14:08:04.000Z</time>
      </trkpt>
      <trkpt lat="47.33961" lon="-1.31167">
        <ele>118</ele>
        <time>2015-03-18T14:08:06.000Z</time>
      </trkpt>
      <trkpt lat="47.33963" lon="-1.31158">
        <ele>119</ele>
        <time>2015-03-18T14:08:08.000Z</time>
      </trkpt>
      <trkpt lat="47.33962" lon="-1.31145">
        <ele>120</ele>
        <time>2015-03-18T14:08:10.000Z</time>
      </trkpt>
      <trkpt lat="47.33961" lon="-1.3113">
        <ele>122</ele>
        <time>2015-03-18T14:08:12.000Z</time>
      </trkpt>
      <trkpt lat="47.3396" lon="-1.31108">
        <ele>120</ele>
        <time>2015-03-18T14:08:14.000Z</time>
      </trkpt>
      <trkpt lat="47.3396" lon="-1.31088">
        <ele>119</ele>
        <time>2015-03-18T14:08:17.000Z</time>
      </trkpt>
      <trkpt lat="47.33961" lon="-1.31078">
        <ele>119</ele>
        <time>2015-03-18T14:08:19.000Z</time>
      </trkpt>
      <trkpt lat="47.33963" lon="-1.31066">
        <ele>118</ele>
        <time>2015-03-18T14:08:21.000Z</time>
      </trkpt>
      <trkpt lat="47.33964" lon="-1.31054">
        <ele>118</ele>
        <time>2015-03-18T14:08:23.000Z</time>
      </trkpt>
      <trkpt lat="47.33965" lon="-1.31044">
        <ele>119</ele>
        <time>2015-03-18T14:08:25.000Z</time>
      </trkpt>
      <trkpt lat="47.33965" lon="-1.31044">
        <ele>119</ele>
        <time>2015-03-18T14:08:27.000Z</time>
      </trkpt>
      <trkpt lat="47.33966" lon="-1.3103">
        <ele>118</ele>
        <time>2015-03-18T14:08:29.000Z</time>
      </trkpt>
      <trkpt lat="47.33966" lon="-1.3103">
        <ele>118</ele>
        <time>2015-03-18T14:08:31.000Z</time>
      </trkpt>
      <trkpt lat="47.33966" lon="-1.3103">
        <ele>118</ele>
        <time>2015-03-18T14:08:33.000Z</time>
      </trkpt>
      <trkpt lat="47.33966" lon="-1.3103">
        <ele>118</ele>
        <time>2015-03-18T14:08:35.000Z</time>
      </trkpt>
      <trkpt lat="47.33966" lon="-1.3103">
        <ele>118</ele>
        <time>2015-03-18T14:08:37.000Z</time>
      </trkpt>
      <trkpt lat="47.3396" lon="-1.31023">
        <ele>112</ele>
        <time>2015-03-18T14:09:41.000Z</time>
      </trkpt>
      <trkpt lat="47.33954" lon="-1.31017">
        <ele>113</ele>
        <time>2015-03-18T14:09:43.000Z</time>
      </trkpt>
      <trkpt lat="47.33949" lon="-1.31013">
        <ele>110</ele>
        <time>2015-03-18T14:09:45.000Z</time>
      </trkpt>
      <trkpt lat="47.33942" lon="-1.3101">
        <ele>109</ele>
        <time>2015-03-18T14:09:47.000Z</time>
      </trkpt>
      <trkpt lat="47.33936" lon="-1.31008">
        <ele>108</ele>
        <time>2015-03-18T14:09:49.000Z</time>
      </trkpt>
      <trkpt lat="47.33922" lon="-1.31005">
        <ele>108</ele>
        <time>2015-03-18T14:09:51.000Z</time>
      </trkpt>
      <trkpt lat="47.33922" lon="-1.31005">
        <ele>108</ele>
        <time>2015-03-18T14:09:53.000Z</time>
      </trkpt>
      <trkpt lat="47.33922" lon="-1.31005">
        <ele>108</ele>
        <time>2015-03-18T14:09:55.000Z</time>
      </trkpt>
      <trkpt lat="47.33922" lon="-1.31005">
        <ele>108</ele>
        <time>2015-03-18T14:09:57.000Z</time>
      </trkpt>
      <trkpt lat="47.33922" lon="-1.31005">
        <ele>108</ele>
        <time>2015-03-18T14:09:59.000Z</time>
      </trkpt>
      <trkpt lat="47.33922" lon="-1.31005">
        <ele>108</ele>
        <time>2015-03-18T14:10:01.000Z</time>
      </trkpt>
      <trkpt lat="47.33922" lon="-1.31005">
        <ele>108</ele>
        <time>2015-03-18T14:10:03.000Z</time>
      </trkpt>
      <trkpt lat="47.33903" lon="-1.30996">
        <ele>106</ele>
        <time>2015-03-18T14:10:37.000Z</time>
      </trkpt>
      <trkpt lat="47.33894" lon="-1.30973">
        <ele>103</ele>
        <time>2015-03-18T14:10:40.000Z</time>
      </trkpt>
      <trkpt lat="47.3389" lon="-1.3096">
        <ele>102</ele>
        <time>2015-03-18T14:10:42.000Z</time>
      </trkpt>
      <trkpt lat="47.33887" lon="-1.30951">
        <ele>100</ele>
        <time>2015-03-18T14:10:44.000Z</time>
      </trkpt>
      <trkpt lat="47.33884" lon="-1.30943">
        <ele>100</ele>
        <time>2015-03-18T14:10:46.000Z</time>
      </trkpt>
      <trkpt lat="47.33884" lon="-1.30943">
        <ele>100</ele>
        <time>2015-03-18T14:10:48.000Z</time>
      </trkpt>
      <trkpt lat="47.33886" lon="-1.30931">
        <ele>101</ele>
        <time>2015-03-18T14:10:50.000Z</time>
      </trkpt>
      <trkpt lat="47.33886" lon="-1.30931">
        <ele>101</ele>
        <time>2015-03-18T14:10:52.000Z</time>
      </trkpt>
      <trkpt lat="47.3389" lon="-1.30922">
        <ele>103</ele>
        <time>2015-03-18T14:10:54.000Z</time>
      </trkpt>
      <trkpt lat="47.3389" lon="-1.30922">
        <ele>103</ele>
        <time>2015-03-18T14:10:56.000Z</time>
      </trkpt>
      <trkpt lat="47.33892" lon="-1.30913">
        <ele>104</ele>
        <time>2015-03-18T14:10:58.000Z</time>
      </trkpt>
      <trkpt lat="47.33892" lon="-1.30913">
        <ele>104</ele>
        <time>2015-03-18T14:11:00.000Z</time>
      </trkpt>
      <trkpt lat="47.33892" lon="-1.30913">
        <ele>104</ele>
        <time>2015-03-18T14:11:02.000Z</time>
      </trkpt>
      <trkpt lat="47.33892" lon="-1.30913">
        <ele>104</ele>
        <time>2015-03-18T14:11:04.000Z</time>
      </trkpt>
      <trkpt lat="47.33892" lon="-1.30913">
        <ele>104</ele>
        <time>2015-03-18T14:11:06.000Z</time>
      </trkpt>
      <trkpt lat="47.33896" lon="-1.30901">
        <ele>99</ele>
        <time>2015-03-18T14:11:20.000Z</time>
      </trkpt>
      <trkpt lat="47.339" lon="-1.30893">
        <ele>99</ele>
        <time>2015-03-18T14:11:22.000Z</time>
      </trkpt>
      <trkpt lat="47.33904" lon="-1.30887">
        <ele>98</ele>
        <time>2015-03-18T14:11:24.000Z</time>
      </trkpt>
      <trkpt lat="47.33909" lon="-1.30883">
        <ele>97</ele>
        <time>2015-03-18T14:11:26.000Z</time>
      </trkpt>
      <trkpt lat="47.33915" lon="-1.30879">
        <ele>100</ele>
        <time>2015-03-18T14:11:28.000Z</time>
      </trkpt>
      <trkpt lat="47.33924" lon="-1.30869">
        <ele>100</ele>
        <time>2015-03-18T14:11:30.000Z</time>
      </trkpt>
      <trkpt lat="47.33924" lon="-1.30869">
        <ele>100</ele>
        <time>2015-03-18T14:11:32.000Z</time>
      </trkpt>
      <trkpt lat="47.33932" lon="-1.30862">
        <ele>102</ele>
        <time>2015-03-18T14:11:34.000Z</time>
      </trkpt>
      <trkpt lat="47.33932" lon="-1.30862">
        <ele>102</ele>
        <time>2015-03-18T14:11:36.000Z</time>
      </trkpt>
      <trkpt lat="47.33941" lon="-1.30857">
        <ele>100</ele>
        <time>2015-03-18T14:11:38.000Z</time>
      </trkpt>
      <trkpt lat="47.33941" lon="-1.30857">
        <ele>100</ele>
        <time>2015-03-18T14:11:40.000Z</time>
      </trkpt>
      <trkpt lat="47.33941" lon="-1.30857">
        <ele>100</ele>
        <time>2015-03-18T14:11:42.000Z</time>
      </trkpt>
      <trkpt lat="47.33941" lon="-1.30857">
        <ele>100</ele>
        <time>2015-03-18T14:11:44.000Z</time>
      </trkpt>
      <trkpt lat="47.33941" lon="-1.30857">
        <ele>100</ele>
        <time>2015-03-18T14:11:46.000Z</time>
      </trkpt>
      <trkpt lat="47.33965" lon="-1.30844">
        <ele>93</ele>
        <time>2015-03-18T14:12:08.000Z</time>
      </trkpt>
      <trkpt lat="47.33965" lon="-1.30844">
        <ele>93</ele>
        <time>2015-03-18T14:12:10.000Z</time>
      </trkpt>
      <trkpt lat="47.33965" lon="-1.30844">
        <ele>93</ele>
        <time>2015-03-18T14:12:12.000Z</time>
      </trkpt>
      <trkpt lat="47.33965" lon="-1.30844">
        <ele>93</ele>
        <time>2015-03-18T14:12:14.000Z</time>
      </trkpt>
      <trkpt lat="47.33965" lon="-1.30844">
        <ele>93</ele>
        <time>2015-03-18T14:12:28.000Z</time>
      </trkpt>
      <trkpt lat="47.33977" lon="-1.30833">
        <ele>83</ele>
        <time>2015-03-18T14:12:42.000Z</time>
      </trkpt>
      <trkpt lat="47.33984" lon="-1.30826">
        <ele>78</ele>
        <time>2015-03-18T14:12:44.000Z</time>
      </trkpt>
      <trkpt lat="47.33988" lon="-1.3082">
        <ele>79</ele>
        <time>2015-03-18T14:12:46.000Z</time>
      </trkpt>
      <trkpt lat="47.33989" lon="-1.30817">
        <ele>76</ele>
        <time>2015-03-18T14:12:48.000Z</time>
      </trkpt>
      <trkpt lat="47.33989" lon="-1.30817">
        <ele>76</ele>
        <time>2015-03-18T14:12:50.000Z</time>
      </trkpt>
      <trkpt lat="47.33989" lon="-1.30812">
        <ele>73</ele>
        <time>2015-03-18T14:12:52.000Z</time>
      </trkpt>
      <trkpt lat="47.33989" lon="-1.30812">
        <ele>73</ele>
        <time>2015-03-18T14:12:54.000Z</time>
      </trkpt>
      <trkpt lat="47.33989" lon="-1.30812">
        <ele>73</ele>
        <time>2015-03-18T14:12:56.000Z</time>
      </trkpt>
      <trkpt lat="47.33989" lon="-1.30812">
        <ele>73</ele>
        <time>2015-03-18T14:12:58.000Z</time>
      </trkpt>
      <trkpt lat="47.33987" lon="-1.30807">
        <ele>71</ele>
        <time>2015-03-18T14:13:04.000Z</time>
      </trkpt>
      <trkpt lat="47.33986" lon="-1.30804">
        <ele>71</ele>
        <time>2015-03-18T14:13:06.000Z</time>
      </trkpt>
      <trkpt lat="47.33986" lon="-1.30804">
        <ele>71</ele>
        <time>2015-03-18T14:13:08.000Z</time>
      </trkpt>
      <trkpt lat="47.33986" lon="-1.30804">
        <ele>71</ele>
        <time>2015-03-18T14:13:10.000Z</time>
      </trkpt>
      <trkpt lat="47.33986" lon="-1.30804">
        <ele>71</ele>
        <time>2015-03-18T14:13:12.000Z</time>
      </trkpt>
      <trkpt lat="47.33985" lon="-1.30786">
        <ele>69</ele>
        <time>2015-03-18T14:14:40.000Z</time>
      </trkpt>
      <trkpt lat="47.33984" lon="-1.30773">
        <ele>68</ele>
        <time>2015-03-18T14:14:42.000Z</time>
      </trkpt>
      <trkpt lat="47.33983" lon="-1.30763">
        <ele>65</ele>
        <time>2015-03-18T14:14:44.000Z</time>
      </trkpt>
      <trkpt lat="47.33981" lon="-1.30755">
        <ele>63</ele>
        <time>2015-03-18T14:14:46.000Z</time>
      </trkpt>
      <trkpt lat="47.33978" lon="-1.30747">
        <ele>61</ele>
        <time>2015-03-18T14:14:48.000Z</time>
      </trkpt>
      <trkpt lat="47.33975" lon="-1.30732">
        <ele>59</ele>
        <time>2015-03-18T14:14:50.000Z</time>
      </trkpt>
      <trkpt lat="47.33975" lon="-1.30732">
        <ele>59</ele>
        <time>2015-03-18T14:14:52.000Z</time>
      </trkpt>
      <trkpt lat="47.33975" lon="-1.30732">
        <ele>59</ele>
        <time>2015-03-18T14:14:54.000Z</time>
      </trkpt>
      <trkpt lat="47.33975" lon="-1.30732">
        <ele>59</ele>
        <time>2015-03-18T14:14:56.000Z</time>
      </trkpt>
      <trkpt lat="47.33975" lon="-1.30732">
        <ele>59</ele>
        <time>2015-03-18T14:14:58.000Z</time>
      </trkpt>
      <trkpt lat="47.33974" lon="-1.30741">
        <ele>54</ele>
        <time>2015-03-18T14:15:04.000Z</time>
      </trkpt>
      <trkpt lat="47.33966" lon="-1.30746">
        <ele>59</ele>
        <time>2015-03-18T14:15:08.000Z</time>
      </trkpt>
      <trkpt lat="47.33958" lon="-1.30749">
        <ele>62</ele>
        <time>2015-03-18T14:15:12.000Z</time>
      </trkpt>
      <trkpt lat="47.33958" lon="-1.30749">
        <ele>62</ele>
        <time>2015-03-18T14:15:14.000Z</time>
      </trkpt>
      <trkpt lat="47.33949" lon="-1.30752">
        <ele>64</ele>
        <time>2015-03-18T14:15:16.000Z</time>
      </trkpt>
      <trkpt lat="47.33949" lon="-1.30752">
        <ele>64</ele>
        <time>2015-03-18T14:15:18.000Z</time>
      </trkpt>
      <trkpt lat="47.33941" lon="-1.30758">
        <ele>66</ele>
        <time>2015-03-18T14:15:20.000Z</time>
      </trkpt>
      <trkpt lat="47.33941" lon="-1.30758">
        <ele>66</ele>
        <time>2015-03-18T14:15:22.000Z</time>
      </trkpt>
      <trkpt lat="47.33937" lon="-1.30768">
        <ele>70</ele>
        <time>2015-03-18T14:15:24.000Z</time>
      </trkpt>
      <trkpt lat="47.33937" lon="-1.30768">
        <ele>70</ele>
        <time>2015-03-18T14:15:26.000Z</time>
      </trkpt>
      <trkpt lat="47.33932" lon="-1.30774">
        <ele>71</ele>
        <time>2015-03-18T14:15:28.000Z</time>
      </trkpt>
      <trkpt lat="47.33932" lon="-1.30774">
        <ele>71</ele>
        <time>2015-03-18T14:15:30.000Z</time>
      </trkpt>
      <trkpt lat="47.33932" lon="-1.30774">
        <ele>71</ele>
        <time>2015-03-18T14:15:32.000Z</time>
      </trkpt>
      <trkpt lat="47.33932" lon="-1.30774">
        <ele>71</ele>
        <time>2015-03-18T14:15:34.000Z</time>
      </trkpt>
      <trkpt lat="47.33932" lon="-1.30774">
        <ele>71</ele>
        <time>2015-03-18T14:15:36.000Z</time>
      </trkpt>
      <trkpt lat="47.33928" lon="-1.30764">
        <ele>74</ele>
        <time>2015-03-18T14:16:00.000Z</time>
      </trkpt>
      <trkpt lat="47.33934" lon="-1.30755">
        <ele>75</ele>
        <time>2015-03-18T14:16:06.000Z</time>
      </trkpt>
      <trkpt lat="47.33934" lon="-1.30755">
        <ele>75</ele>
        <time>2015-03-18T14:16:08.000Z</time>
      </trkpt>
      <trkpt lat="47.33936" lon="-1.30752">
        <ele>76</ele>
        <time>2015-03-18T14:16:10.000Z</time>
      </trkpt>
      <trkpt lat="47.33939" lon="-1.30748">
        <ele>77</ele>
        <time>2015-03-18T14:16:12.000Z</time>
      </trkpt>
      <trkpt lat="47.33942" lon="-1.30743">
        <ele>77</ele>
        <time>2015-03-18T14:16:14.000Z</time>
      </trkpt>
      <trkpt lat="47.33944" lon="-1.3074">
        <ele>78</ele>
        <time>2015-03-18T14:16:16.000Z</time>
      </trkpt>
      <trkpt lat="47.33946" lon="-1.30736">
        <ele>81</ele>
        <time>2015-03-18T14:16:18.000Z</time>
      </trkpt>
      <trkpt lat="47.3395" lon="-1.30725">
        <ele>82</ele>
        <time>2015-03-18T14:16:20.000Z</time>
      </trkpt>
      <trkpt lat="47.33954" lon="-1.30715">
        <ele>80</ele>
        <time>2015-03-18T14:16:24.000Z</time>
      </trkpt>
      <trkpt lat="47.33954" lon="-1.30715">
        <ele>80</ele>
        <time>2015-03-18T14:16:26.000Z</time>
      </trkpt>
      <trkpt lat="47.33957" lon="-1.30705">
        <ele>80</ele>
        <time>2015-03-18T14:16:28.000Z</time>
      </trkpt>
      <trkpt lat="47.33955" lon="-1.30695">
        <ele>79</ele>
        <time>2015-03-18T14:16:32.000Z</time>
      </trkpt>
      <trkpt lat="47.33955" lon="-1.30695">
        <ele>79</ele>
        <time>2015-03-18T14:16:34.000Z</time>
      </trkpt>
      <trkpt lat="47.3395" lon="-1.30701">
        <ele>76</ele>
        <time>2015-03-18T14:16:38.000Z</time>
      </trkpt>
      <trkpt lat="47.33943" lon="-1.30712">
        <ele>66</ele>
        <time>2015-03-18T14:16:42.000Z</time>
      </trkpt>
      <trkpt lat="47.33928" lon="-1.30724">
        <ele>62</ele>
        <time>2015-03-18T14:16:45.000Z</time>
      </trkpt>
      <trkpt lat="47.33919" lon="-1.30737">
        <ele>60</ele>
        <time>2015-03-18T14:16:48.000Z</time>
      </trkpt>
      <trkpt lat="47.33914" lon="-1.30743">
        <ele>59</ele>
        <time>2015-03-18T14:16:50.000Z</time>
      </trkpt>
      <trkpt lat="47.33914" lon="-1.30743">
        <ele>59</ele>
        <time>2015-03-18T14:16:52.000Z</time>
      </trkpt>
      <trkpt lat="47.33904" lon="-1.30754">
        <ele>61</ele>
        <time>2015-03-18T14:16:54.000Z</time>
      </trkpt>
      <trkpt lat="47.33898" lon="-1.30761">
        <ele>61</ele>
        <time>2015-03-18T14:16:56.000Z</time>
      </trkpt>
      <trkpt lat="47.33892" lon="-1.30768">
        <ele>64</ele>
        <time>2015-03-18T14:16:58.000Z</time>
      </trkpt>
      <trkpt lat="47.33886" lon="-1.30773">
        <ele>65</ele>
        <time>2015-03-18T14:17:00.000Z</time>
      </trkpt>
      <trkpt lat="47.3388" lon="-1.3078">
        <ele>67</ele>
        <time>2015-03-18T14:17:02.000Z</time>
      </trkpt>
      <trkpt lat="47.33874" lon="-1.30785">
        <ele>66</ele>
        <time>2015-03-18T14:17:04.000Z</time>
      </trkpt>
      <trkpt lat="47.33867" lon="-1.30791">
        <ele>66</ele>
        <time>2015-03-18T14:17:06.000Z</time>
      </trkpt>
      <trkpt lat="47.3386" lon="-1.30798">
        <ele>65</ele>
        <time>2015-03-18T14:17:08.000Z</time>
      </trkpt>
      <trkpt lat="47.33854" lon="-1.30803">
        <ele>65</ele>
        <time>2015-03-18T14:17:10.000Z</time>
      </trkpt>
      <trkpt lat="47.33847" lon="-1.3081">
        <ele>64</ele>
        <time>2015-03-18T14:17:12.000Z</time>
      </trkpt>
      <trkpt lat="47.3384" lon="-1.30818">
        <ele>64</ele>
        <time>2015-03-18T14:17:14.000Z</time>
      </trkpt>
      <trkpt lat="47.33833" lon="-1.30825">
        <ele>65</ele>
        <time>2015-03-18T14:17:16.000Z</time>
      </trkpt>
      <trkpt lat="47.33825" lon="-1.30831">
        <ele>66</ele>
        <time>2015-03-18T14:17:18.000Z</time>
      </trkpt>
      <trkpt lat="47.33818" lon="-1.30837">
        <ele>66</ele>
        <time>2015-03-18T14:17:20.000Z</time>
      </trkpt>
      <trkpt lat="47.338" lon="-1.30852">
        <ele>65</ele>
        <time>2015-03-18T14:17:23.000Z</time>
      </trkpt>
      <trkpt lat="47.33792" lon="-1.30862">
        <ele>65</ele>
        <time>2015-03-18T14:17:25.000Z</time>
      </trkpt>
      <trkpt lat="47.33786" lon="-1.3087">
        <ele>65</ele>
        <time>2015-03-18T14:17:27.000Z</time>
      </trkpt>
      <trkpt lat="47.33778" lon="-1.30877">
        <ele>65</ele>
        <time>2015-03-18T14:17:29.000Z</time>
      </trkpt>
      <trkpt lat="47.33773" lon="-1.30884">
        <ele>65</ele>
        <time>2015-03-18T14:17:31.000Z</time>
      </trkpt>
      <trkpt lat="47.33766" lon="-1.30891">
        <ele>64</ele>
        <time>2015-03-18T14:17:33.000Z</time>
      </trkpt>
      <trkpt lat="47.3376" lon="-1.30897">
        <ele>65</ele>
        <time>2015-03-18T14:17:35.000Z</time>
      </trkpt>
      <trkpt lat="47.33754" lon="-1.30903">
        <ele>65</ele>
        <time>2015-03-18T14:17:37.000Z</time>
      </trkpt>
      <trkpt lat="47.33746" lon="-1.30912">
        <ele>65</ele>
        <time>2015-03-18T14:17:39.000Z</time>
      </trkpt>
      <trkpt lat="47.33738" lon="-1.30924">
        <ele>62</ele>
        <time>2015-03-18T14:17:41.000Z</time>
      </trkpt>
      <trkpt lat="47.33731" lon="-1.30936">
        <ele>61</ele>
        <time>2015-03-18T14:17:43.000Z</time>
      </trkpt>
      <trkpt lat="47.33714" lon="-1.30957">
        <ele>62</ele>
        <time>2015-03-18T14:17:46.000Z</time>
      </trkpt>
      <trkpt lat="47.33703" lon="-1.3097">
        <ele>65</ele>
        <time>2015-03-18T14:17:50.000Z</time>
      </trkpt>
      <trkpt lat="47.33696" lon="-1.30979">
        <ele>62</ele>
        <time>2015-03-18T14:17:52.000Z</time>
      </trkpt>
      <trkpt lat="47.33691" lon="-1.30984">
        <ele>62</ele>
        <time>2015-03-18T14:17:55.000Z</time>
      </trkpt>
      <trkpt lat="47.33691" lon="-1.30984">
        <ele>62</ele>
        <time>2015-03-18T14:17:57.000Z</time>
      </trkpt>
      <trkpt lat="47.33685" lon="-1.30991">
        <ele>59</ele>
        <time>2015-03-18T14:17:59.000Z</time>
      </trkpt>
      <trkpt lat="47.33685" lon="-1.30991">
        <ele>59</ele>
        <time>2015-03-18T14:18:01.000Z</time>
      </trkpt>
      <trkpt lat="47.33675" lon="-1.31002">
        <ele>58</ele>
        <time>2015-03-18T14:18:03.000Z</time>
      </trkpt>
      <trkpt lat="47.33668" lon="-1.31012">
        <ele>55</ele>
        <time>2015-03-18T14:18:05.000Z</time>
      </trkpt>
      <trkpt lat="47.3366" lon="-1.3102">
        <ele>55</ele>
        <time>2015-03-18T14:18:07.000Z</time>
      </trkpt>
      <trkpt lat="47.33652" lon="-1.31028">
        <ele>54</ele>
        <time>2015-03-18T14:18:09.000Z</time>
      </trkpt>
      <trkpt lat="47.33646" lon="-1.31037">
        <ele>55</ele>
        <time>2015-03-18T14:18:11.000Z</time>
      </trkpt>
      <trkpt lat="47.3364" lon="-1.31044">
        <ele>55</ele>
        <time>2015-03-18T14:18:13.000Z</time>
      </trkpt>
      <trkpt lat="47.33635" lon="-1.31051">
        <ele>57</ele>
        <time>2015-03-18T14:18:15.000Z</time>
      </trkpt>
      <trkpt lat="47.33622" lon="-1.31088">
        <ele>51</ele>
        <time>2015-03-18T14:18:19.000Z</time>
      </trkpt>
      <trkpt lat="47.33616" lon="-1.311">
        <ele>51</ele>
        <time>2015-03-18T14:18:21.000Z</time>
      </trkpt>
      <trkpt lat="47.33609" lon="-1.31113">
        <ele>50</ele>
        <time>2015-03-18T14:18:23.000Z</time>
      </trkpt>
      <trkpt lat="47.33601" lon="-1.31125">
        <ele>51</ele>
        <time>2015-03-18T14:18:25.000Z</time>
      </trkpt>
      <trkpt lat="47.33593" lon="-1.31138">
        <ele>51</ele>
        <time>2015-03-18T14:18:27.000Z</time>
      </trkpt>
      <trkpt lat="47.33585" lon="-1.31154">
        <ele>51</ele>
        <time>2015-03-18T14:18:29.000Z</time>
      </trkpt>
      <trkpt lat="47.33575" lon="-1.31168">
        <ele>52</ele>
        <time>2015-03-18T14:18:31.000Z</time>
      </trkpt>
      <trkpt lat="47.33567" lon="-1.31179">
        <ele>52</ele>
        <time>2015-03-18T14:18:33.000Z</time>
      </trkpt>
      <trkpt lat="47.3356" lon="-1.31191">
        <ele>52</ele>
        <time>2015-03-18T14:18:35.000Z</time>
      </trkpt>
      <trkpt lat="47.33555" lon="-1.31205">
        <ele>53</ele>
        <time>2015-03-18T14:18:37.000Z</time>
      </trkpt>
      <trkpt lat="47.3355" lon="-1.3122">
        <ele>48</ele>
        <time>2015-03-18T14:18:39.000Z</time>
      </trkpt>
      <trkpt lat="47.33542" lon="-1.31232">
        <ele>49</ele>
        <time>2015-03-18T14:18:41.000Z</time>
      </trkpt>
      <trkpt lat="47.33535" lon="-1.31244">
        <ele>49</ele>
        <time>2015-03-18T14:18:43.000Z</time>
      </trkpt>
      <trkpt lat="47.33528" lon="-1.31255">
        <ele>50</ele>
        <time>2015-03-18T14:18:45.000Z</time>
      </trkpt>
      <trkpt lat="47.33521" lon="-1.31268">
        <ele>49</ele>
        <time>2015-03-18T14:18:47.000Z</time>
      </trkpt>
      <trkpt lat="47.33515" lon="-1.31279">
        <ele>49</ele>
        <time>2015-03-18T14:18:49.000Z</time>
      </trkpt>
      <trkpt lat="47.33511" lon="-1.31293">
        <ele>47</ele>
        <time>2015-03-18T14:18:51.000Z</time>
      </trkpt>
      <trkpt lat="47.33506" lon="-1.31306">
        <ele>47</ele>
        <time>2015-03-18T14:18:53.000Z</time>
      </trkpt>
      <trkpt lat="47.33501" lon="-1.31317">
        <ele>48</ele>
        <time>2015-03-18T14:18:55.000Z</time>
      </trkpt>
      <trkpt lat="47.33494" lon="-1.31332">
        <ele>46</ele>
        <time>2015-03-18T14:18:57.000Z</time>
      </trkpt>
      <trkpt lat="47.33489" lon="-1.31341">
        <ele>47</ele>
        <time>2015-03-18T14:18:59.000Z</time>
      </trkpt>
      <trkpt lat="47.3348" lon="-1.31352">
        <ele>48</ele>
        <time>2015-03-18T14:19:01.000Z</time>
      </trkpt>
      <trkpt lat="47.33471" lon="-1.31367">
        <ele>49</ele>
        <time>2015-03-18T14:19:03.000Z</time>
      </trkpt>
      <trkpt lat="47.33467" lon="-1.3138">
        <ele>49</ele>
        <time>2015-03-18T14:19:05.000Z</time>
      </trkpt>
      <trkpt lat="47.33464" lon="-1.3139">
        <ele>50</ele>
        <time>2015-03-18T14:19:07.000Z</time>
      </trkpt>
      <trkpt lat="47.33459" lon="-1.31399">
        <ele>50</ele>
        <time>2015-03-18T14:19:09.000Z</time>
      </trkpt>
      <trkpt lat="47.33459" lon="-1.31399">
        <ele>50</ele>
        <time>2015-03-18T14:19:11.000Z</time>
      </trkpt>
      <trkpt lat="47.33452" lon="-1.31411">
        <ele>49</ele>
        <time>2015-03-18T14:19:13.000Z</time>
      </trkpt>
      <trkpt lat="47.33449" lon="-1.31419">
        <ele>49</ele>
        <time>2015-03-18T14:19:15.000Z</time>
      </trkpt>
      <trkpt lat="47.33449" lon="-1.31419">
        <ele>49</ele>
        <time>2015-03-18T14:19:17.000Z</time>
      </trkpt>
      <trkpt lat="47.33446" lon="-1.31434">
        <ele>46</ele>
        <time>2015-03-18T14:19:19.000Z</time>
      </trkpt>
      <trkpt lat="47.33443" lon="-1.31442">
        <ele>46</ele>
        <time>2015-03-18T14:19:21.000Z</time>
      </trkpt>
      <trkpt lat="47.3344" lon="-1.3145">
        <ele>46</ele>
        <time>2015-03-18T14:19:23.000Z</time>
      </trkpt>
      <trkpt lat="47.33437" lon="-1.31457">
        <ele>46</ele>
        <time>2015-03-18T14:19:25.000Z</time>
      </trkpt>
      <trkpt lat="47.33437" lon="-1.31457">
        <ele>46</ele>
        <time>2015-03-18T14:19:27.000Z</time>
      </trkpt>
      <trkpt lat="47.33433" lon="-1.3147">
        <ele>47</ele>
        <time>2015-03-18T14:19:29.000Z</time>
      </trkpt>
      <trkpt lat="47.33433" lon="-1.3147">
        <ele>47</ele>
        <time>2015-03-18T14:19:31.000Z</time>
      </trkpt>
      <trkpt lat="47.33428" lon="-1.31486">
        <ele>52</ele>
        <time>2015-03-18T14:19:33.000Z</time>
      </trkpt>
      <trkpt lat="47.33423" lon="-1.31495">
        <ele>53</ele>
        <time>2015-03-18T14:19:35.000Z</time>
      </trkpt>
      <trkpt lat="47.33416" lon="-1.31507">
        <ele>53</ele>
        <time>2015-03-18T14:19:37.000Z</time>
      </trkpt>
      <trkpt lat="47.33408" lon="-1.3152">
        <ele>57</ele>
        <time>2015-03-18T14:19:39.000Z</time>
      </trkpt>
      <trkpt lat="47.33401" lon="-1.31531">
        <ele>58</ele>
        <time>2015-03-18T14:19:41.000Z</time>
      </trkpt>
      <trkpt lat="47.33393" lon="-1.31541">
        <ele>60</ele>
        <time>2015-03-18T14:19:43.000Z</time>
      </trkpt>
      <trkpt lat="47.33375" lon="-1.31567">
        <ele>61</ele>
        <time>2015-03-18T14:19:46.000Z</time>
      </trkpt>
      <trkpt lat="47.33361" lon="-1.31586">
        <ele>63</ele>
        <time>2015-03-18T14:19:50.000Z</time>
      </trkpt>
      <trkpt lat="47.33356" lon="-1.31601">
        <ele>65</ele>
        <time>2015-03-18T14:19:52.000Z</time>
      </trkpt>
      <trkpt lat="47.33348" lon="-1.31613">
        <ele>64</ele>
        <time>2015-03-18T14:19:54.000Z</time>
      </trkpt>
      <trkpt lat="47.33342" lon="-1.31622">
        <ele>64</ele>
        <time>2015-03-18T14:19:56.000Z</time>
      </trkpt>
      <trkpt lat="47.33334" lon="-1.31634">
        <ele>63</ele>
        <time>2015-03-18T14:19:58.000Z</time>
      </trkpt>
      <trkpt lat="47.33328" lon="-1.31645">
        <ele>64</ele>
        <time>2015-03-18T14:20:00.000Z</time>
      </trkpt>
      <trkpt lat="47.33323" lon="-1.31656">
        <ele>67</ele>
        <time>2015-03-18T14:20:02.000Z</time>
      </trkpt>
      <trkpt lat="47.33319" lon="-1.31665">
        <ele>69</ele>
        <time>2015-03-18T14:20:04.000Z</time>
      </trkpt>
      <trkpt lat="47.33315" lon="-1.31675">
        <ele>74</ele>
        <time>2015-03-18T14:20:06.000Z</time>
      </trkpt>
      <trkpt lat="47.33309" lon="-1.31685">
        <ele>75</ele>
        <time>2015-03-18T14:20:08.000Z</time>
      </trkpt>
      <trkpt lat="47.33303" lon="-1.31694">
        <ele>73</ele>
        <time>2015-03-18T14:20:10.000Z</time>
      </trkpt>
      <trkpt lat="47.33297" lon="-1.31703">
        <ele>74</ele>
        <time>2015-03-18T14:20:12.000Z</time>
      </trkpt>
      <trkpt lat="47.3329" lon="-1.31711">
        <ele>77</ele>
        <time>2015-03-18T14:20:14.000Z</time>
      </trkpt>
      <trkpt lat="47.33283" lon="-1.31721">
        <ele>75</ele>
        <time>2015-03-18T14:20:16.000Z</time>
      </trkpt>
      <trkpt lat="47.33276" lon="-1.31734">
        <ele>73</ele>
        <time>2015-03-18T14:20:18.000Z</time>
      </trkpt>
      <trkpt lat="47.33269" lon="-1.31747">
        <ele>74</ele>
        <time>2015-03-18T14:20:20.000Z</time>
      </trkpt>
      <trkpt lat="47.33263" lon="-1.3176">
        <ele>73</ele>
        <time>2015-03-18T14:20:22.000Z</time>
      </trkpt>
      <trkpt lat="47.33256" lon="-1.31772">
        <ele>71</ele>
        <time>2015-03-18T14:20:24.000Z</time>
      </trkpt>
      <trkpt lat="47.3325" lon="-1.31786">
        <ele>71</ele>
        <time>2015-03-18T14:20:26.000Z</time>
      </trkpt>
      <trkpt lat="47.33234" lon="-1.31835">
        <ele>69</ele>
        <time>2015-03-18T14:20:30.000Z</time>
      </trkpt>
      <trkpt lat="47.33221" lon="-1.31853">
        <ele>60</ele>
        <time>2015-03-18T14:20:33.000Z</time>
      </trkpt>
      <trkpt lat="47.33215" lon="-1.31865">
        <ele>61</ele>
        <time>2015-03-18T14:20:35.000Z</time>
      </trkpt>
      <trkpt lat="47.33211" lon="-1.31879">
        <ele>60</ele>
        <time>2015-03-18T14:20:37.000Z</time>
      </trkpt>
      <trkpt lat="47.33204" lon="-1.31889">
        <ele>60</ele>
        <time>2015-03-18T14:20:39.000Z</time>
      </trkpt>
      <trkpt lat="47.33199" lon="-1.31902">
        <ele>60</ele>
        <time>2015-03-18T14:20:41.000Z</time>
      </trkpt>
      <trkpt lat="47.33189" lon="-1.31915">
        <ele>61</ele>
        <time>2015-03-18T14:20:43.000Z</time>
      </trkpt>
      <trkpt lat="47.33183" lon="-1.3193">
        <ele>61</ele>
        <time>2015-03-18T14:20:45.000Z</time>
      </trkpt>
      <trkpt lat="47.33176" lon="-1.31942">
        <ele>59</ele>
        <time>2015-03-18T14:20:47.000Z</time>
      </trkpt>
      <trkpt lat="47.33169" lon="-1.31951">
        <ele>59</ele>
        <time>2015-03-18T14:20:49.000Z</time>
      </trkpt>
      <trkpt lat="47.33162" lon="-1.3196">
        <ele>59</ele>
        <time>2015-03-18T14:20:51.000Z</time>
      </trkpt>
      <trkpt lat="47.33162" lon="-1.3196">
        <ele>59</ele>
        <time>2015-03-18T14:20:53.000Z</time>
      </trkpt>
      <trkpt lat="47.33154" lon="-1.3197">
        <ele>66</ele>
        <time>2015-03-18T14:20:55.000Z</time>
      </trkpt>
      <trkpt lat="47.33154" lon="-1.3197">
        <ele>66</ele>
        <time>2015-03-18T14:20:57.000Z</time>
      </trkpt>
      <trkpt lat="47.33142" lon="-1.31977">
        <ele>69</ele>
        <time>2015-03-18T14:20:59.000Z</time>
      </trkpt>
      <trkpt lat="47.33137" lon="-1.31982">
        <ele>70</ele>
        <time>2015-03-18T14:21:01.000Z</time>
      </trkpt>
      <trkpt lat="47.33118" lon="-1.32006">
        <ele>65</ele>
        <time>2015-03-18T14:21:05.000Z</time>
      </trkpt>
      <trkpt lat="47.33112" lon="-1.32015">
        <ele>61</ele>
        <time>2015-03-18T14:21:07.000Z</time>
      </trkpt>
      <trkpt lat="47.33109" lon="-1.32023">
        <ele>62</ele>
        <time>2015-03-18T14:21:09.000Z</time>
      </trkpt>
      <trkpt lat="47.33103" lon="-1.32028">
        <ele>60</ele>
        <time>2015-03-18T14:21:11.000Z</time>
      </trkpt>
      <trkpt lat="47.331" lon="-1.32043">
        <ele>56</ele>
        <time>2015-03-18T14:21:13.000Z</time>
      </trkpt>
      <trkpt lat="47.33101" lon="-1.32056">
        <ele>54</ele>
        <time>2015-03-18T14:21:15.000Z</time>
      </trkpt>
      <trkpt lat="47.33098" lon="-1.32073">
        <ele>54</ele>
        <time>2015-03-18T14:21:17.000Z</time>
      </trkpt>
      <trkpt lat="47.33094" lon="-1.32087">
        <ele>53</ele>
        <time>2015-03-18T14:21:19.000Z</time>
      </trkpt>
      <trkpt lat="47.33087" lon="-1.32105">
        <ele>51</ele>
        <time>2015-03-18T14:21:21.000Z</time>
      </trkpt>
      <trkpt lat="47.33081" lon="-1.32119">
        <ele>51</ele>
        <time>2015-03-18T14:21:23.000Z</time>
      </trkpt>
      <trkpt lat="47.33073" lon="-1.32132">
        <ele>49</ele>
        <time>2015-03-18T14:21:25.000Z</time>
      </trkpt>
      <trkpt lat="47.33065" lon="-1.32145">
        <ele>50</ele>
        <time>2015-03-18T14:21:27.000Z</time>
      </trkpt>
      <trkpt lat="47.33057" lon="-1.3216">
        <ele>50</ele>
        <time>2015-03-18T14:21:29.000Z</time>
      </trkpt>
      <trkpt lat="47.3305" lon="-1.32175">
        <ele>50</ele>
        <time>2015-03-18T14:21:31.000Z</time>
      </trkpt>
      <trkpt lat="47.33044" lon="-1.3219">
        <ele>50</ele>
        <time>2015-03-18T14:21:33.000Z</time>
      </trkpt>
      <trkpt lat="47.33036" lon="-1.32206">
        <ele>49</ele>
        <time>2015-03-18T14:21:35.000Z</time>
      </trkpt>
      <trkpt lat="47.33029" lon="-1.32221">
        <ele>50</ele>
        <time>2015-03-18T14:21:37.000Z</time>
      </trkpt>
      <trkpt lat="47.33023" lon="-1.32235">
        <ele>51</ele>
        <time>2015-03-18T14:21:39.000Z</time>
      </trkpt>
      <trkpt lat="47.33016" lon="-1.32247">
        <ele>51</ele>
        <time>2015-03-18T14:21:41.000Z</time>
      </trkpt>
      <trkpt lat="47.33009" lon="-1.3226">
        <ele>50</ele>
        <time>2015-03-18T14:21:43.000Z</time>
      </trkpt>
      <trkpt lat="47.33003" lon="-1.32273">
        <ele>50</ele>
        <time>2015-03-18T14:21:45.000Z</time>
      </trkpt>
      <trkpt lat="47.32996" lon="-1.32285">
        <ele>50</ele>
        <time>2015-03-18T14:21:47.000Z</time>
      </trkpt>
      <trkpt lat="47.32992" lon="-1.32296">
        <ele>50</ele>
        <time>2015-03-18T14:21:49.000Z</time>
      </trkpt>
      <trkpt lat="47.32987" lon="-1.3231">
        <ele>51</ele>
        <time>2015-03-18T14:21:51.000Z</time>
      </trkpt>
      <trkpt lat="47.32977" lon="-1.32324">
        <ele>52</ele>
        <time>2015-03-18T14:21:53.000Z</time>
      </trkpt>
      <trkpt lat="47.3297" lon="-1.32336">
        <ele>51</ele>
        <time>2015-03-18T14:21:55.000Z</time>
      </trkpt>
      <trkpt lat="47.32963" lon="-1.32349">
        <ele>52</ele>
        <time>2015-03-18T14:21:57.000Z</time>
      </trkpt>
      <trkpt lat="47.32958" lon="-1.3236">
        <ele>54</ele>
        <time>2015-03-18T14:21:59.000Z</time>
      </trkpt>
      <trkpt lat="47.32952" lon="-1.32373">
        <ele>53</ele>
        <time>2015-03-18T14:22:01.000Z</time>
      </trkpt>
      <trkpt lat="47.32945" lon="-1.32386">
        <ele>54</ele>
        <time>2015-03-18T14:22:03.000Z</time>
      </trkpt>
      <trkpt lat="47.32938" lon="-1.32399">
        <ele>53</ele>
        <time>2015-03-18T14:22:05.000Z</time>
      </trkpt>
      <trkpt lat="47.32931" lon="-1.32411">
        <ele>53</ele>
        <time>2015-03-18T14:22:07.000Z</time>
      </trkpt>
      <trkpt lat="47.32925" lon="-1.32424">
        <ele>54</ele>
        <time>2015-03-18T14:22:09.000Z</time>
      </trkpt>
      <trkpt lat="47.32917" lon="-1.32437">
        <ele>54</ele>
        <time>2015-03-18T14:22:11.000Z</time>
      </trkpt>
      <trkpt lat="47.3291" lon="-1.32448">
        <ele>53</ele>
        <time>2015-03-18T14:22:13.000Z</time>
      </trkpt>
      <trkpt lat="47.32904" lon="-1.32463">
        <ele>52</ele>
        <time>2015-03-18T14:22:15.000Z</time>
      </trkpt>
      <trkpt lat="47.32899" lon="-1.32475">
        <ele>52</ele>
        <time>2015-03-18T14:22:17.000Z</time>
      </trkpt>
      <trkpt lat="47.32893" lon="-1.32489">
        <ele>52</ele>
        <time>2015-03-18T14:22:19.000Z</time>
      </trkpt>
      <trkpt lat="47.32889" lon="-1.325">
        <ele>52</ele>
        <time>2015-03-18T14:22:21.000Z</time>
      </trkpt>
      <trkpt lat="47.32883" lon="-1.32511">
        <ele>55</ele>
        <time>2015-03-18T14:22:23.000Z</time>
      </trkpt>
      <trkpt lat="47.32877" lon="-1.3252">
        <ele>54</ele>
        <time>2015-03-18T14:22:25.000Z</time>
      </trkpt>
      <trkpt lat="47.32869" lon="-1.32533">
        <ele>55</ele>
        <time>2015-03-18T14:22:27.000Z</time>
      </trkpt>
      <trkpt lat="47.32862" lon="-1.32548">
        <ele>55</ele>
        <time>2015-03-18T14:22:29.000Z</time>
      </trkpt>
      <trkpt lat="47.32856" lon="-1.32562">
        <ele>55</ele>
        <time>2015-03-18T14:22:31.000Z</time>
      </trkpt>
      <trkpt lat="47.32852" lon="-1.32571">
        <ele>56</ele>
        <time>2015-03-18T14:22:33.000Z</time>
      </trkpt>
      <trkpt lat="47.32846" lon="-1.32581">
        <ele>58</ele>
        <time>2015-03-18T14:22:35.000Z</time>
      </trkpt>
      <trkpt lat="47.32839" lon="-1.32593">
        <ele>56</ele>
        <time>2015-03-18T14:22:37.000Z</time>
      </trkpt>
      <trkpt lat="47.32833" lon="-1.32604">
        <ele>57</ele>
        <time>2015-03-18T14:22:39.000Z</time>
      </trkpt>
      <trkpt lat="47.32825" lon="-1.32617">
        <ele>57</ele>
        <time>2015-03-18T14:22:41.000Z</time>
      </trkpt>
      <trkpt lat="47.32818" lon="-1.32627">
        <ele>56</ele>
        <time>2015-03-18T14:22:43.000Z</time>
      </trkpt>
      <trkpt lat="47.32813" lon="-1.32639">
        <ele>57</ele>
        <time>2015-03-18T14:22:45.000Z</time>
      </trkpt>
      <trkpt lat="47.32806" lon="-1.32649">
        <ele>57</ele>
        <time>2015-03-18T14:22:47.000Z</time>
      </trkpt>
      <trkpt lat="47.32799" lon="-1.32656">
        <ele>58</ele>
        <time>2015-03-18T14:22:49.000Z</time>
      </trkpt>
      <trkpt lat="47.32795" lon="-1.32665">
        <ele>58</ele>
        <time>2015-03-18T14:22:51.000Z</time>
      </trkpt>
      <trkpt lat="47.32789" lon="-1.32674">
        <ele>59</ele>
        <time>2015-03-18T14:22:53.000Z</time>
      </trkpt>
      <trkpt lat="47.3278" lon="-1.32697">
        <ele>59</ele>
        <time>2015-03-18T14:22:56.000Z</time>
      </trkpt>
      <trkpt lat="47.32772" lon="-1.32714">
        <ele>56</ele>
        <time>2015-03-18T14:22:58.000Z</time>
      </trkpt>
      <trkpt lat="47.32765" lon="-1.32727">
        <ele>55</ele>
        <time>2015-03-18T14:23:00.000Z</time>
      </trkpt>
      <trkpt lat="47.32758" lon="-1.32742">
        <ele>54</ele>
        <time>2015-03-18T14:23:02.000Z</time>
      </trkpt>
      <trkpt lat="47.32751" lon="-1.32755">
        <ele>53</ele>
        <time>2015-03-18T14:23:04.000Z</time>
      </trkpt>
      <trkpt lat="47.32746" lon="-1.32768">
        <ele>53</ele>
        <time>2015-03-18T14:23:06.000Z</time>
      </trkpt>
      <trkpt lat="47.3274" lon="-1.3278">
        <ele>54</ele>
        <time>2015-03-18T14:23:08.000Z</time>
      </trkpt>
      <trkpt lat="47.32734" lon="-1.3279">
        <ele>56</ele>
        <time>2015-03-18T14:23:10.000Z</time>
      </trkpt>
      <trkpt lat="47.32727" lon="-1.32803">
        <ele>53</ele>
        <time>2015-03-18T14:23:12.000Z</time>
      </trkpt>
      <trkpt lat="47.32721" lon="-1.32814">
        <ele>55</ele>
        <time>2015-03-18T14:23:14.000Z</time>
      </trkpt>
      <trkpt lat="47.32716" lon="-1.32825">
        <ele>54</ele>
        <time>2015-03-18T14:23:16.000Z</time>
      </trkpt>
      <trkpt lat="47.3271" lon="-1.32833">
        <ele>54</ele>
        <time>2015-03-18T14:23:18.000Z</time>
      </trkpt>
      <trkpt lat="47.32706" lon="-1.32845">
        <ele>53</ele>
        <time>2015-03-18T14:23:20.000Z</time>
      </trkpt>
      <trkpt lat="47.32699" lon="-1.32855">
        <ele>54</ele>
        <time>2015-03-18T14:23:22.000Z</time>
      </trkpt>
      <trkpt lat="47.32695" lon="-1.32864">
        <ele>55</ele>
        <time>2015-03-18T14:23:24.000Z</time>
      </trkpt>
      <trkpt lat="47.32691" lon="-1.32873">
        <ele>55</ele>
        <time>2015-03-18T14:23:26.000Z</time>
      </trkpt>
      <trkpt lat="47.32686" lon="-1.32882">
        <ele>56</ele>
        <time>2015-03-18T14:23:28.000Z</time>
      </trkpt>
      <trkpt lat="47.3268" lon="-1.32893">
        <ele>56</ele>
        <time>2015-03-18T14:23:30.000Z</time>
      </trkpt>
      <trkpt lat="47.32673" lon="-1.32902">
        <ele>55</ele>
        <time>2015-03-18T14:23:32.000Z</time>
      </trkpt>
      <trkpt lat="47.32664" lon="-1.32911">
        <ele>52</ele>
        <time>2015-03-18T14:23:34.000Z</time>
      </trkpt>
      <trkpt lat="47.32655" lon="-1.3292">
        <ele>51</ele>
        <time>2015-03-18T14:23:36.000Z</time>
      </trkpt>
      <trkpt lat="47.32647" lon="-1.32927">
        <ele>52</ele>
        <time>2015-03-18T14:23:38.000Z</time>
      </trkpt>
      <trkpt lat="47.32639" lon="-1.3293">
        <ele>54</ele>
        <time>2015-03-18T14:23:40.000Z</time>
      </trkpt>
      <trkpt lat="47.32612" lon="-1.32955">
        <ele>53</ele>
        <time>2015-03-18T14:23:44.000Z</time>
      </trkpt>
      <trkpt lat="47.32601" lon="-1.32971">
        <ele>53</ele>
        <time>2015-03-18T14:23:46.000Z</time>
      </trkpt>
      <trkpt lat="47.32592" lon="-1.32986">
        <ele>54</ele>
        <time>2015-03-18T14:23:48.000Z</time>
      </trkpt>
      <trkpt lat="47.32581" lon="-1.32996">
        <ele>54</ele>
        <time>2015-03-18T14:23:50.000Z</time>
      </trkpt>
      <trkpt lat="47.32575" lon="-1.33006">
        <ele>56</ele>
        <time>2015-03-18T14:23:52.000Z</time>
      </trkpt>
      <trkpt lat="47.32567" lon="-1.33013">
        <ele>56</ele>
        <time>2015-03-18T14:23:54.000Z</time>
      </trkpt>
      <trkpt lat="47.32558" lon="-1.33022">
        <ele>56</ele>
        <time>2015-03-18T14:23:56.000Z</time>
      </trkpt>
      <trkpt lat="47.32552" lon="-1.33029">
        <ele>56</ele>
        <time>2015-03-18T14:23:58.000Z</time>
      </trkpt>
      <trkpt lat="47.32543" lon="-1.33036">
        <ele>55</ele>
        <time>2015-03-18T14:24:00.000Z</time>
      </trkpt>
      <trkpt lat="47.32533" lon="-1.33046">
        <ele>56</ele>
        <time>2015-03-18T14:24:02.000Z</time>
      </trkpt>
      <trkpt lat="47.32524" lon="-1.33058">
        <ele>56</ele>
        <time>2015-03-18T14:24:04.000Z</time>
      </trkpt>
      <trkpt lat="47.32513" lon="-1.33067">
        <ele>56</ele>
        <time>2015-03-18T14:24:06.000Z</time>
      </trkpt>
      <trkpt lat="47.32505" lon="-1.33077">
        <ele>56</ele>
        <time>2015-03-18T14:24:08.000Z</time>
      </trkpt>
      <trkpt lat="47.32497" lon="-1.33086">
        <ele>57</ele>
        <time>2015-03-18T14:24:10.000Z</time>
      </trkpt>
      <trkpt lat="47.32489" lon="-1.33098">
        <ele>58</ele>
        <time>2015-03-18T14:24:12.000Z</time>
      </trkpt>
      <trkpt lat="47.3248" lon="-1.33108">
        <ele>59</ele>
        <time>2015-03-18T14:24:14.000Z</time>
      </trkpt>
      <trkpt lat="47.3247" lon="-1.33119">
        <ele>60</ele>
        <time>2015-03-18T14:24:16.000Z</time>
      </trkpt>
      <trkpt lat="47.32461" lon="-1.33126">
        <ele>65</ele>
        <time>2015-03-18T14:24:18.000Z</time>
      </trkpt>
      <trkpt lat="47.32453" lon="-1.3313">
        <ele>69</ele>
        <time>2015-03-18T14:24:20.000Z</time>
      </trkpt>
      <trkpt lat="47.32445" lon="-1.3313">
        <ele>70</ele>
        <time>2015-03-18T14:24:22.000Z</time>
      </trkpt>
      <trkpt lat="47.32439" lon="-1.33127">
        <ele>70</ele>
        <time>2015-03-18T14:24:24.000Z</time>
      </trkpt>
      <trkpt lat="47.3243" lon="-1.33131">
        <ele>70</ele>
        <time>2015-03-18T14:24:26.000Z</time>
      </trkpt>
      <trkpt lat="47.32421" lon="-1.33136">
        <ele>66</ele>
        <time>2015-03-18T14:24:28.000Z</time>
      </trkpt>
      <trkpt lat="47.32404" lon="-1.3316">
        <ele>63</ele>
        <time>2015-03-18T14:24:31.000Z</time>
      </trkpt>
      <trkpt lat="47.32395" lon="-1.33172">
        <ele>61</ele>
        <time>2015-03-18T14:24:33.000Z</time>
      </trkpt>
      <trkpt lat="47.32388" lon="-1.33186">
        <ele>61</ele>
        <time>2015-03-18T14:24:35.000Z</time>
      </trkpt>
      <trkpt lat="47.3238" lon="-1.332">
        <ele>59</ele>
        <time>2015-03-18T14:24:37.000Z</time>
      </trkpt>
      <trkpt lat="47.32373" lon="-1.33212">
        <ele>57</ele>
        <time>2015-03-18T14:24:39.000Z</time>
      </trkpt>
      <trkpt lat="47.32367" lon="-1.33223">
        <ele>56</ele>
        <time>2015-03-18T14:24:41.000Z</time>
      </trkpt>
      <trkpt lat="47.32363" lon="-1.33233">
        <ele>56</ele>
        <time>2015-03-18T14:24:43.000Z</time>
      </trkpt>
      <trkpt lat="47.32359" lon="-1.33244">
        <ele>54</ele>
        <time>2015-03-18T14:24:45.000Z</time>
      </trkpt>
      <trkpt lat="47.32353" lon="-1.33254">
        <ele>52</ele>
        <time>2015-03-18T14:24:47.000Z</time>
      </trkpt>
      <trkpt lat="47.32349" lon="-1.33264">
        <ele>53</ele>
        <time>2015-03-18T14:24:49.000Z</time>
      </trkpt>
      <trkpt lat="47.32344" lon="-1.33274">
        <ele>56</ele>
        <time>2015-03-18T14:24:51.000Z</time>
      </trkpt>
      <trkpt lat="47.32338" lon="-1.33285">
        <ele>55</ele>
        <time>2015-03-18T14:24:53.000Z</time>
      </trkpt>
      <trkpt lat="47.32332" lon="-1.33294">
        <ele>59</ele>
        <time>2015-03-18T14:24:55.000Z</time>
      </trkpt>
      <trkpt lat="47.32327" lon="-1.33303">
        <ele>60</ele>
        <time>2015-03-18T14:24:57.000Z</time>
      </trkpt>
      <trkpt lat="47.32325" lon="-1.33313">
        <ele>62</ele>
        <time>2015-03-18T14:24:59.000Z</time>
      </trkpt>
      <trkpt lat="47.32319" lon="-1.33325">
        <ele>61</ele>
        <time>2015-03-18T14:25:01.000Z</time>
      </trkpt>
      <trkpt lat="47.32312" lon="-1.3334">
        <ele>61</ele>
        <time>2015-03-18T14:25:03.000Z</time>
      </trkpt>
      <trkpt lat="47.32306" lon="-1.33359">
        <ele>61</ele>
        <time>2015-03-18T14:25:06.000Z</time>
      </trkpt>
      <trkpt lat="47.32301" lon="-1.3337">
        <ele>60</ele>
        <time>2015-03-18T14:25:08.000Z</time>
      </trkpt>
      <trkpt lat="47.32295" lon="-1.33383">
        <ele>61</ele>
        <time>2015-03-18T14:25:10.000Z</time>
      </trkpt>
      <trkpt lat="47.32288" lon="-1.33395">
        <ele>61</ele>
        <time>2015-03-18T14:25:12.000Z</time>
      </trkpt>
      <trkpt lat="47.32282" lon="-1.33407">
        <ele>62</ele>
        <time>2015-03-18T14:25:14.000Z</time>
      </trkpt>
      <trkpt lat="47.32277" lon="-1.33419">
        <ele>62</ele>
        <time>2015-03-18T14:25:16.000Z</time>
      </trkpt>
      <trkpt lat="47.32271" lon="-1.33434">
        <ele>58</ele>
        <time>2015-03-18T14:25:18.000Z</time>
      </trkpt>
      <trkpt lat="47.32265" lon="-1.33449">
        <ele>57</ele>
        <time>2015-03-18T14:25:20.000Z</time>
      </trkpt>
      <trkpt lat="47.32259" lon="-1.33463">
        <ele>57</ele>
        <time>2015-03-18T14:25:22.000Z</time>
      </trkpt>
      <trkpt lat="47.32254" lon="-1.33479">
        <ele>57</ele>
        <time>2015-03-18T14:25:24.000Z</time>
      </trkpt>
      <trkpt lat="47.32234" lon="-1.33518">
        <ele>56</ele>
        <time>2015-03-18T14:25:28.000Z</time>
      </trkpt>
      <trkpt lat="47.32224" lon="-1.33539">
        <ele>52</ele>
        <time>2015-03-18T14:25:32.000Z</time>
      </trkpt>
      <trkpt lat="47.32217" lon="-1.33552">
        <ele>52</ele>
        <time>2015-03-18T14:25:34.000Z</time>
      </trkpt>
      <trkpt lat="47.32212" lon="-1.33565">
        <ele>50</ele>
        <time>2015-03-18T14:25:36.000Z</time>
      </trkpt>
      <trkpt lat="47.32207" lon="-1.33579">
        <ele>51</ele>
        <time>2015-03-18T14:25:38.000Z</time>
      </trkpt>
      <trkpt lat="47.32204" lon="-1.33592">
        <ele>52</ele>
        <time>2015-03-18T14:25:40.000Z</time>
      </trkpt>
      <trkpt lat="47.32198" lon="-1.33607">
        <ele>53</ele>
        <time>2015-03-18T14:25:42.000Z</time>
      </trkpt>
      <trkpt lat="47.32192" lon="-1.33623">
        <ele>53</ele>
        <time>2015-03-18T14:25:44.000Z</time>
      </trkpt>
      <trkpt lat="47.32188" lon="-1.33634">
        <ele>53</ele>
        <time>2015-03-18T14:25:46.000Z</time>
      </trkpt>
      <trkpt lat="47.32183" lon="-1.33644">
        <ele>53</ele>
        <time>2015-03-18T14:25:48.000Z</time>
      </trkpt>
      <trkpt lat="47.32177" lon="-1.33657">
        <ele>56</ele>
        <time>2015-03-18T14:25:50.000Z</time>
      </trkpt>
      <trkpt lat="47.32172" lon="-1.33667">
        <ele>56</ele>
        <time>2015-03-18T14:25:52.000Z</time>
      </trkpt>
      <trkpt lat="47.32168" lon="-1.33676">
        <ele>56</ele>
        <time>2015-03-18T14:25:54.000Z</time>
      </trkpt>
      <trkpt lat="47.32162" lon="-1.33685">
        <ele>61</ele>
        <time>2015-03-18T14:25:56.000Z</time>
      </trkpt>
      <trkpt lat="47.32159" lon="-1.33695">
        <ele>61</ele>
        <time>2015-03-18T14:25:58.000Z</time>
      </trkpt>
      <trkpt lat="47.32154" lon="-1.33706">
        <ele>63</ele>
        <time>2015-03-18T14:26:00.000Z</time>
      </trkpt>
      <trkpt lat="47.3215" lon="-1.33715">
        <ele>64</ele>
        <time>2015-03-18T14:26:02.000Z</time>
      </trkpt>
      <trkpt lat="47.32145" lon="-1.33724">
        <ele>68</ele>
        <time>2015-03-18T14:26:04.000Z</time>
      </trkpt>
      <trkpt lat="47.32138" lon="-1.33735">
        <ele>70</ele>
        <time>2015-03-18T14:26:06.000Z</time>
      </trkpt>
      <trkpt lat="47.32127" lon="-1.33764">
        <ele>68</ele>
        <time>2015-03-18T14:26:09.000Z</time>
      </trkpt>
      <trkpt lat="47.3212" lon="-1.33778">
        <ele>67</ele>
        <time>2015-03-18T14:26:11.000Z</time>
      </trkpt>
      <trkpt lat="47.32114" lon="-1.33792">
        <ele>71</ele>
        <time>2015-03-18T14:26:14.000Z</time>
      </trkpt>
      <trkpt lat="47.32105" lon="-1.33831">
        <ele>64</ele>
        <time>2015-03-18T14:26:18.000Z</time>
      </trkpt>
      <trkpt lat="47.32096" lon="-1.33848">
        <ele>64</ele>
        <time>2015-03-18T14:26:20.000Z</time>
      </trkpt>
      <trkpt lat="47.32089" lon="-1.33864">
        <ele>63</ele>
        <time>2015-03-18T14:26:22.000Z</time>
      </trkpt>
      <trkpt lat="47.32084" lon="-1.33876">
        <ele>62</ele>
        <time>2015-03-18T14:26:24.000Z</time>
      </trkpt>
      <trkpt lat="47.32077" lon="-1.33889">
        <ele>62</ele>
        <time>2015-03-18T14:26:26.000Z</time>
      </trkpt>
      <trkpt lat="47.32068" lon="-1.33904">
        <ele>60</ele>
        <time>2015-03-18T14:26:28.000Z</time>
      </trkpt>
      <trkpt lat="47.32059" lon="-1.33918">
        <ele>60</ele>
        <time>2015-03-18T14:26:30.000Z</time>
      </trkpt>
      <trkpt lat="47.32051" lon="-1.33931">
        <ele>59</ele>
        <time>2015-03-18T14:26:32.000Z</time>
      </trkpt>
      <trkpt lat="47.32045" lon="-1.33946">
        <ele>58</ele>
        <time>2015-03-18T14:26:34.000Z</time>
      </trkpt>
      <trkpt lat="47.32038" lon="-1.33958">
        <ele>57</ele>
        <time>2015-03-18T14:26:36.000Z</time>
      </trkpt>
      <trkpt lat="47.32036" lon="-1.33967">
        <ele>58</ele>
        <time>2015-03-18T14:26:38.000Z</time>
      </trkpt>
      <trkpt lat="47.32031" lon="-1.33979">
        <ele>57</ele>
        <time>2015-03-18T14:26:40.000Z</time>
      </trkpt>
      <trkpt lat="47.32023" lon="-1.33991">
        <ele>56</ele>
        <time>2015-03-18T14:26:42.000Z</time>
      </trkpt>
      <trkpt lat="47.32016" lon="-1.34003">
        <ele>55</ele>
        <time>2015-03-18T14:26:44.000Z</time>
      </trkpt>
      <trkpt lat="47.32008" lon="-1.34013">
        <ele>55</ele>
        <time>2015-03-18T14:26:46.000Z</time>
      </trkpt>
      <trkpt lat="47.32" lon="-1.34025">
        <ele>54</ele>
        <time>2015-03-18T14:26:48.000Z</time>
      </trkpt>
      <trkpt lat="47.31993" lon="-1.34035">
        <ele>56</ele>
        <time>2015-03-18T14:26:50.000Z</time>
      </trkpt>
      <trkpt lat="47.31986" lon="-1.34044">
        <ele>56</ele>
        <time>2015-03-18T14:26:52.000Z</time>
      </trkpt>
      <trkpt lat="47.31979" lon="-1.34056">
        <ele>56</ele>
        <time>2015-03-18T14:26:54.000Z</time>
      </trkpt>
      <trkpt lat="47.31972" lon="-1.34067">
        <ele>56</ele>
        <time>2015-03-18T14:26:56.000Z</time>
      </trkpt>
      <trkpt lat="47.31965" lon="-1.34078">
        <ele>55</ele>
        <time>2015-03-18T14:26:58.000Z</time>
      </trkpt>
      <trkpt lat="47.3196" lon="-1.34087">
        <ele>55</ele>
        <time>2015-03-18T14:27:00.000Z</time>
      </trkpt>
      <trkpt lat="47.31953" lon="-1.34098">
        <ele>56</ele>
        <time>2015-03-18T14:27:02.000Z</time>
      </trkpt>
      <trkpt lat="47.31945" lon="-1.34109">
        <ele>55</ele>
        <time>2015-03-18T14:27:04.000Z</time>
      </trkpt>
      <trkpt lat="47.31938" lon="-1.34118">
        <ele>56</ele>
        <time>2015-03-18T14:27:06.000Z</time>
      </trkpt>
      <trkpt lat="47.31931" lon="-1.34128">
        <ele>55</ele>
        <time>2015-03-18T14:27:08.000Z</time>
      </trkpt>
      <trkpt lat="47.31923" lon="-1.3414">
        <ele>56</ele>
        <time>2015-03-18T14:27:10.000Z</time>
      </trkpt>
      <trkpt lat="47.31918" lon="-1.3415">
        <ele>55</ele>
        <time>2015-03-18T14:27:12.000Z</time>
      </trkpt>
      <trkpt lat="47.31913" lon="-1.34158">
        <ele>58</ele>
        <time>2015-03-18T14:27:14.000Z</time>
      </trkpt>
      <trkpt lat="47.31904" lon="-1.34169">
        <ele>55</ele>
        <time>2015-03-18T14:27:16.000Z</time>
      </trkpt>
      <trkpt lat="47.31897" lon="-1.34181">
        <ele>55</ele>
        <time>2015-03-18T14:27:18.000Z</time>
      </trkpt>
      <trkpt lat="47.31887" lon="-1.34193">
        <ele>54</ele>
        <time>2015-03-18T14:27:20.000Z</time>
      </trkpt>
      <trkpt lat="47.31878" lon="-1.34204">
        <ele>54</ele>
        <time>2015-03-18T14:27:22.000Z</time>
      </trkpt>
      <trkpt lat="47.31871" lon="-1.34216">
        <ele>54</ele>
        <time>2015-03-18T14:27:24.000Z</time>
      </trkpt>
      <trkpt lat="47.31863" lon="-1.3423">
        <ele>52</ele>
        <time>2015-03-18T14:27:26.000Z</time>
      </trkpt>
      <trkpt lat="47.31855" lon="-1.34243">
        <ele>53</ele>
        <time>2015-03-18T14:27:28.000Z</time>
      </trkpt>
      <trkpt lat="47.31845" lon="-1.34256">
        <ele>53</ele>
        <time>2015-03-18T14:27:30.000Z</time>
      </trkpt>
      <trkpt lat="47.31836" lon="-1.3427">
        <ele>51</ele>
        <time>2015-03-18T14:27:32.000Z</time>
      </trkpt>
      <trkpt lat="47.31829" lon="-1.34282">
        <ele>50</ele>
        <time>2015-03-18T14:27:34.000Z</time>
      </trkpt>
      <trkpt lat="47.31823" lon="-1.34292">
        <ele>51</ele>
        <time>2015-03-18T14:27:36.000Z</time>
      </trkpt>
      <trkpt lat="47.31816" lon="-1.34303">
        <ele>51</ele>
        <time>2015-03-18T14:27:38.000Z</time>
      </trkpt>
      <trkpt lat="47.31811" lon="-1.34312">
        <ele>52</ele>
        <time>2015-03-18T14:27:40.000Z</time>
      </trkpt>
      <trkpt lat="47.31803" lon="-1.34324">
        <ele>53</ele>
        <time>2015-03-18T14:27:42.000Z</time>
      </trkpt>
      <trkpt lat="47.31797" lon="-1.34331">
        <ele>53</ele>
        <time>2015-03-18T14:27:44.000Z</time>
      </trkpt>
      <trkpt lat="47.31791" lon="-1.34342">
        <ele>54</ele>
        <time>2015-03-18T14:27:46.000Z</time>
      </trkpt>
      <trkpt lat="47.31789" lon="-1.34352">
        <ele>54</ele>
        <time>2015-03-18T14:27:48.000Z</time>
      </trkpt>
      <trkpt lat="47.31786" lon="-1.34363">
        <ele>55</ele>
        <time>2015-03-18T14:27:50.000Z</time>
      </trkpt>
      <trkpt lat="47.31782" lon="-1.34372">
        <ele>55</ele>
        <time>2015-03-18T14:27:52.000Z</time>
      </trkpt>
      <trkpt lat="47.31778" lon="-1.34381">
        <ele>59</ele>
        <time>2015-03-18T14:27:54.000Z</time>
      </trkpt>
      <trkpt lat="47.31775" lon="-1.34389">
        <ele>63</ele>
        <time>2015-03-18T14:27:56.000Z</time>
      </trkpt>
      <trkpt lat="47.31771" lon="-1.34397">
        <ele>64</ele>
        <time>2015-03-18T14:27:58.000Z</time>
      </trkpt>
      <trkpt lat="47.31765" lon="-1.34406">
        <ele>65</ele>
        <time>2015-03-18T14:28:00.000Z</time>
      </trkpt>
      <trkpt lat="47.31758" lon="-1.34415">
        <ele>66</ele>
        <time>2015-03-18T14:28:02.000Z</time>
      </trkpt>
      <trkpt lat="47.31751" lon="-1.34425">
        <ele>67</ele>
        <time>2015-03-18T14:28:04.000Z</time>
      </trkpt>
      <trkpt lat="47.31742" lon="-1.34435">
        <ele>66</ele>
        <time>2015-03-18T14:28:06.000Z</time>
      </trkpt>
      <trkpt lat="47.31734" lon="-1.34446">
        <ele>66</ele>
        <time>2015-03-18T14:28:08.000Z</time>
      </trkpt>
      <trkpt lat="47.31725" lon="-1.34457">
        <ele>65</ele>
        <time>2015-03-18T14:28:10.000Z</time>
      </trkpt>
      <trkpt lat="47.31718" lon="-1.34467">
        <ele>64</ele>
        <time>2015-03-18T14:28:12.000Z</time>
      </trkpt>
      <trkpt lat="47.31712" lon="-1.34478">
        <ele>63</ele>
        <time>2015-03-18T14:28:14.000Z</time>
      </trkpt>
      <trkpt lat="47.31705" lon="-1.3449">
        <ele>63</ele>
        <time>2015-03-18T14:28:16.000Z</time>
      </trkpt>
      <trkpt lat="47.31697" lon="-1.34502">
        <ele>65</ele>
        <time>2015-03-18T14:28:18.000Z</time>
      </trkpt>
      <trkpt lat="47.31689" lon="-1.34512">
        <ele>67</ele>
        <time>2015-03-18T14:28:20.000Z</time>
      </trkpt>
      <trkpt lat="47.31681" lon="-1.34523">
        <ele>68</ele>
        <time>2015-03-18T14:28:22.000Z</time>
      </trkpt>
      <trkpt lat="47.31675" lon="-1.34533">
        <ele>68</ele>
        <time>2015-03-18T14:28:24.000Z</time>
      </trkpt>
      <trkpt lat="47.31668" lon="-1.34542">
        <ele>67</ele>
        <time>2015-03-18T14:28:26.000Z</time>
      </trkpt>
      <trkpt lat="47.31663" lon="-1.34549">
        <ele>65</ele>
        <time>2015-03-18T14:28:28.000Z</time>
      </trkpt>
      <trkpt lat="47.31663" lon="-1.34549">
        <ele>65</ele>
        <time>2015-03-18T14:28:30.000Z</time>
      </trkpt>
      <trkpt lat="47.3166" lon="-1.34559">
        <ele>64</ele>
        <time>2015-03-18T14:28:32.000Z</time>
      </trkpt>
      <trkpt lat="47.3166" lon="-1.34559">
        <ele>64</ele>
        <time>2015-03-18T14:28:34.000Z</time>
      </trkpt>
      <trkpt lat="47.3166" lon="-1.34559">
        <ele>64</ele>
        <time>2015-03-18T14:28:36.000Z</time>
      </trkpt>
      <trkpt lat="47.31667" lon="-1.34567">
        <ele>58</ele>
        <time>2015-03-18T14:28:38.000Z</time>
      </trkpt>
      <trkpt lat="47.31667" lon="-1.34567">
        <ele>58</ele>
        <time>2015-03-18T14:28:40.000Z</time>
      </trkpt>
      <trkpt lat="47.31673" lon="-1.34565">
        <ele>57</ele>
        <time>2015-03-18T14:28:42.000Z</time>
      </trkpt>
      <trkpt lat="47.31681" lon="-1.34563">
        <ele>56</ele>
        <time>2015-03-18T14:28:48.000Z</time>
      </trkpt>
      <trkpt lat="47.31681" lon="-1.34563">
        <ele>56</ele>
        <time>2015-03-18T14:28:50.000Z</time>
      </trkpt>
      <trkpt lat="47.31687" lon="-1.34559">
        <ele>58</ele>
        <time>2015-03-18T14:28:52.000Z</time>
      </trkpt>
      <trkpt lat="47.31692" lon="-1.34554">
        <ele>60</ele>
        <time>2015-03-18T14:28:56.000Z</time>
      </trkpt>
      <trkpt lat="47.31698" lon="-1.34548">
        <ele>62</ele>
        <time>2015-03-18T14:29:00.000Z</time>
      </trkpt>
      <trkpt lat="47.31704" lon="-1.34542">
        <ele>64</ele>
        <time>2015-03-18T14:29:04.000Z</time>
      </trkpt>
      <trkpt lat="47.31704" lon="-1.34542">
        <ele>64</ele>
        <time>2015-03-18T14:29:06.000Z</time>
      </trkpt>
      <trkpt lat="47.31709" lon="-1.34537">
        <ele>66</ele>
        <time>2015-03-18T14:29:08.000Z</time>
      </trkpt>
      <trkpt lat="47.31709" lon="-1.34537">
        <ele>66</ele>
        <time>2015-03-18T14:29:10.000Z</time>
      </trkpt>
      <trkpt lat="47.31709" lon="-1.34537">
        <ele>66</ele>
        <time>2015-03-18T14:29:12.000Z</time>
      </trkpt>
      <trkpt lat="47.31715" lon="-1.34534">
        <ele>72</ele>
        <time>2015-03-18T14:29:14.000Z</time>
      </trkpt>
      <trkpt lat="47.31715" lon="-1.34534">
        <ele>72</ele>
        <time>2015-03-18T14:29:16.000Z</time>
      </trkpt>
      <trkpt lat="47.31715" lon="-1.34534">
        <ele>72</ele>
        <time>2015-03-18T14:29:18.000Z</time>
      </trkpt>
      <trkpt lat="47.31719" lon="-1.34536">
        <ele>73</ele>
        <time>2015-03-18T14:29:20.000Z</time>
      </trkpt>
      <trkpt lat="47.31723" lon="-1.34538">
        <ele>74</ele>
        <time>2015-03-18T14:29:22.000Z</time>
      </trkpt>
      <trkpt lat="47.31726" lon="-1.3454">
        <ele>73</ele>
        <time>2015-03-18T14:29:24.000Z</time>
      </trkpt>
      <trkpt lat="47.31729" lon="-1.34541">
        <ele>73</ele>
        <time>2015-03-18T14:29:26.000Z</time>
      </trkpt>
      <trkpt lat="47.31733" lon="-1.34543">
        <ele>73</ele>
        <time>2015-03-18T14:29:28.000Z</time>
      </trkpt>
      <trkpt lat="47.31738" lon="-1.34547">
        <ele>73</ele>
        <time>2015-03-18T14:29:30.000Z</time>
      </trkpt>
      <trkpt lat="47.31738" lon="-1.34547">
        <ele>73</ele>
        <time>2015-03-18T14:29:32.000Z</time>
      </trkpt>
      <trkpt lat="47.31738" lon="-1.34547">
        <ele>73</ele>
        <time>2015-03-18T14:29:34.000Z</time>
      </trkpt>
      <trkpt lat="47.31744" lon="-1.34555">
        <ele>73</ele>
        <time>2015-03-18T14:29:36.000Z</time>
      </trkpt>
      <trkpt lat="47.31744" lon="-1.34555">
        <ele>73</ele>
        <time>2015-03-18T14:29:38.000Z</time>
      </trkpt>
      <trkpt lat="47.31744" lon="-1.34555">
        <ele>73</ele>
        <time>2015-03-18T14:29:40.000Z</time>
      </trkpt>
      <trkpt lat="47.3175" lon="-1.34561">
        <ele>75</ele>
        <time>2015-03-18T14:29:42.000Z</time>
      </trkpt>
      <trkpt lat="47.31757" lon="-1.34569">
        <ele>76</ele>
        <time>2015-03-18T14:29:48.000Z</time>
      </trkpt>
      <trkpt lat="47.31762" lon="-1.34576">
        <ele>77</ele>
        <time>2015-03-18T14:29:52.000Z</time>
      </trkpt>
      <trkpt lat="47.31766" lon="-1.34582">
        <ele>78</ele>
        <time>2015-03-18T14:29:56.000Z</time>
      </trkpt>
      <trkpt lat="47.3177" lon="-1.3459">
        <ele>78</ele>
        <time>2015-03-18T14:30:00.000Z</time>
      </trkpt>
      <trkpt lat="47.31774" lon="-1.34597">
        <ele>78</ele>
        <time>2015-03-18T14:30:04.000Z</time>
      </trkpt>
      <trkpt lat="47.31778" lon="-1.34604">
        <ele>79</ele>
        <time>2015-03-18T14:30:08.000Z</time>
      </trkpt>
      <trkpt lat="47.31778" lon="-1.34604">
        <ele>79</ele>
        <time>2015-03-18T14:30:10.000Z</time>
      </trkpt>
      <trkpt lat="47.31778" lon="-1.34604">
        <ele>79</ele>
        <time>2015-03-18T14:30:12.000Z</time>
      </trkpt>
      <trkpt lat="47.31782" lon="-1.34613">
        <ele>80</ele>
        <time>2015-03-18T14:30:14.000Z</time>
      </trkpt>
      <trkpt lat="47.31785" lon="-1.34621">
        <ele>80</ele>
        <time>2015-03-18T14:30:18.000Z</time>
      </trkpt>
      <trkpt lat="47.31788" lon="-1.34629">
        <ele>78</ele>
        <time>2015-03-18T14:30:22.000Z</time>
      </trkpt>
      <trkpt lat="47.31792" lon="-1.34637">
        <ele>81</ele>
        <time>2015-03-18T14:30:26.000Z</time>
      </trkpt>
      <trkpt lat="47.31797" lon="-1.34643">
        <ele>80</ele>
        <time>2015-03-18T14:30:30.000Z</time>
      </trkpt>
      <trkpt lat="47.31801" lon="-1.34649">
        <ele>79</ele>
        <time>2015-03-18T14:30:34.000Z</time>
      </trkpt>
      <trkpt lat="47.31801" lon="-1.34649">
        <ele>79</ele>
        <time>2015-03-18T14:30:36.000Z</time>
      </trkpt>
      <trkpt lat="47.31801" lon="-1.34649">
        <ele>79</ele>
        <time>2015-03-18T14:30:38.000Z</time>
      </trkpt>
      <trkpt lat="47.31807" lon="-1.34657">
        <ele>81</ele>
        <time>2015-03-18T14:30:40.000Z</time>
      </trkpt>
      <trkpt lat="47.31807" lon="-1.34657">
        <ele>81</ele>
        <time>2015-03-18T14:30:42.000Z</time>
      </trkpt>
      <trkpt lat="47.31807" lon="-1.34657">
        <ele>81</ele>
        <time>2015-03-18T14:30:44.000Z</time>
      </trkpt>
      <trkpt lat="47.31812" lon="-1.34663">
        <ele>80</ele>
        <time>2015-03-18T14:30:46.000Z</time>
      </trkpt>
      <trkpt lat="47.31812" lon="-1.34663">
        <ele>80</ele>
        <time>2015-03-18T14:30:48.000Z</time>
      </trkpt>
      <trkpt lat="47.31812" lon="-1.34663">
        <ele>80</ele>
        <time>2015-03-18T14:30:50.000Z</time>
      </trkpt>
      <trkpt lat="47.31816" lon="-1.3467">
        <ele>84</ele>
        <time>2015-03-18T14:30:52.000Z</time>
      </trkpt>
      <trkpt lat="47.31816" lon="-1.3467">
        <ele>84</ele>
        <time>2015-03-18T14:30:54.000Z</time>
      </trkpt>
      <trkpt lat="47.31816" lon="-1.3467">
        <ele>84</ele>
        <time>2015-03-18T14:30:56.000Z</time>
      </trkpt>
      <trkpt lat="47.31816" lon="-1.34679">
        <ele>86</ele>
        <time>2015-03-18T14:30:58.000Z</time>
      </trkpt>
      <trkpt lat="47.31822" lon="-1.34681">
        <ele>88</ele>
        <time>2015-03-18T14:31:06.000Z</time>
      </trkpt>
      <trkpt lat="47.31826" lon="-1.34678">
        <ele>90</ele>
        <time>2015-03-18T14:31:10.000Z</time>
      </trkpt>
      <trkpt lat="47.31829" lon="-1.34675">
        <ele>91</ele>
        <time>2015-03-18T14:31:12.000Z</time>
      </trkpt>
      <trkpt lat="47.31832" lon="-1.34672">
        <ele>92</ele>
        <time>2015-03-18T14:31:14.000Z</time>
      </trkpt>
      <trkpt lat="47.31834" lon="-1.34669">
        <ele>96</ele>
        <time>2015-03-18T14:31:16.000Z</time>
      </trkpt>
      <trkpt lat="47.31834" lon="-1.34669">
        <ele>96</ele>
        <time>2015-03-18T14:31:18.000Z</time>
      </trkpt>
      <trkpt lat="47.31837" lon="-1.34665">
        <ele>99</ele>
        <time>2015-03-18T14:31:20.000Z</time>
      </trkpt>
      <trkpt lat="47.3184" lon="-1.34662">
        <ele>101</ele>
        <time>2015-03-18T14:31:22.000Z</time>
      </trkpt>
      <trkpt lat="47.3184" lon="-1.34662">
        <ele>101</ele>
        <time>2015-03-18T14:31:24.000Z</time>
      </trkpt>
      <trkpt lat="47.31844" lon="-1.34663">
        <ele>100</ele>
        <time>2015-03-18T14:31:26.000Z</time>
      </trkpt>
      <trkpt lat="47.31847" lon="-1.34665">
        <ele>101</ele>
        <time>2015-03-18T14:31:28.000Z</time>
      </trkpt>
      <trkpt lat="47.31849" lon="-1.34669">
        <ele>103</ele>
        <time>2015-03-18T14:31:30.000Z</time>
      </trkpt>
      <trkpt lat="47.3185" lon="-1.34672">
        <ele>106</ele>
        <time>2015-03-18T14:31:32.000Z</time>
      </trkpt>
      <trkpt lat="47.31852" lon="-1.34676">
        <ele>106</ele>
        <time>2015-03-18T14:31:34.000Z</time>
      </trkpt>
      <trkpt lat="47.31855" lon="-1.34686">
        <ele>107</ele>
        <time>2015-03-18T14:31:36.000Z</time>
      </trkpt>
      <trkpt lat="47.31856" lon="-1.34702">
        <ele>108</ele>
        <time>2015-03-18T14:31:40.000Z</time>
      </trkpt>
      <trkpt lat="47.31857" lon="-1.3471">
        <ele>108</ele>
        <time>2015-03-18T14:31:42.000Z</time>
      </trkpt>
      <trkpt lat="47.3186" lon="-1.34725">
        <ele>110</ele>
        <time>2015-03-18T14:31:46.000Z</time>
      </trkpt>
      <trkpt lat="47.3186" lon="-1.34725">
        <ele>110</ele>
        <time>2015-03-18T14:31:48.000Z</time>
      </trkpt>
      <trkpt lat="47.31862" lon="-1.34738">
        <ele>112</ele>
        <time>2015-03-18T14:31:50.000Z</time>
      </trkpt>
      <trkpt lat="47.31865" lon="-1.34754">
        <ele>112</ele>
        <time>2015-03-18T14:31:54.000Z</time>
      </trkpt>
      <trkpt lat="47.31865" lon="-1.34754">
        <ele>112</ele>
        <time>2015-03-18T14:31:56.000Z</time>
      </trkpt>
      <trkpt lat="47.31868" lon="-1.34769">
        <ele>112</ele>
        <time>2015-03-18T14:31:58.000Z</time>
      </trkpt>
      <trkpt lat="47.31868" lon="-1.34769">
        <ele>112</ele>
        <time>2015-03-18T14:32:00.000Z</time>
      </trkpt>
      <trkpt lat="47.3187" lon="-1.34783">
        <ele>115</ele>
        <time>2015-03-18T14:32:02.000Z</time>
      </trkpt>
      <trkpt lat="47.3187" lon="-1.34783">
        <ele>115</ele>
        <time>2015-03-18T14:32:04.000Z</time>
      </trkpt>
      <trkpt lat="47.31873" lon="-1.34797">
        <ele>117</ele>
        <time>2015-03-18T14:32:06.000Z</time>
      </trkpt>
      <trkpt lat="47.31876" lon="-1.34811">
        <ele>120</ele>
        <time>2015-03-18T14:32:10.000Z</time>
      </trkpt>
      <trkpt lat="47.31879" lon="-1.3482">
        <ele>118</ele>
        <time>2015-03-18T14:32:12.000Z</time>
      </trkpt>
      <trkpt lat="47.3188" lon="-1.3483">
        <ele>117</ele>
        <time>2015-03-18T14:32:14.000Z</time>
      </trkpt>
      <trkpt lat="47.31881" lon="-1.34842">
        <ele>114</ele>
        <time>2015-03-18T14:32:16.000Z</time>
      </trkpt>
      <trkpt lat="47.31878" lon="-1.34855">
        <ele>114</ele>
        <time>2015-03-18T14:32:18.000Z</time>
      </trkpt>
      <trkpt lat="47.31873" lon="-1.34867">
        <ele>111</ele>
        <time>2015-03-18T14:32:20.000Z</time>
      </trkpt>
      <trkpt lat="47.31871" lon="-1.34876">
        <ele>111</ele>
        <time>2015-03-18T14:32:22.000Z</time>
      </trkpt>
      <trkpt lat="47.31871" lon="-1.34876">
        <ele>111</ele>
        <time>2015-03-18T14:32:24.000Z</time>
      </trkpt>
      <trkpt lat="47.31871" lon="-1.34876">
        <ele>111</ele>
        <time>2015-03-18T14:32:26.000Z</time>
      </trkpt>
      <trkpt lat="47.31871" lon="-1.34876">
        <ele>111</ele>
        <time>2015-03-18T14:32:28.000Z</time>
      </trkpt>
      <trkpt lat="47.31871" lon="-1.34876">
        <ele>111</ele>
        <time>2015-03-18T14:32:30.000Z</time>
      </trkpt>
      <trkpt lat="47.31871" lon="-1.34876">
        <ele>111</ele>
        <time>2015-03-18T14:32:32.000Z</time>
      </trkpt>
      <trkpt lat="47.31875" lon="-1.34886">
        <ele>93</ele>
        <time>2015-03-18T14:36:48.000Z</time>
      </trkpt>
      <trkpt lat="47.31878" lon="-1.34896">
        <ele>93</ele>
        <time>2015-03-18T14:36:50.000Z</time>
      </trkpt>
      <trkpt lat="47.3188" lon="-1.34904">
        <ele>90</ele>
        <time>2015-03-18T14:36:52.000Z</time>
      </trkpt>
      <trkpt lat="47.31881" lon="-1.34911">
        <ele>91</ele>
        <time>2015-03-18T14:36:54.000Z</time>
      </trkpt>
      <trkpt lat="47.31882" lon="-1.34918">
        <ele>90</ele>
        <time>2015-03-18T14:36:56.000Z</time>
      </trkpt>
      <trkpt lat="47.3188" lon="-1.34936">
        <ele>90</ele>
        <time>2015-03-18T14:36:58.000Z</time>
      </trkpt>
      <trkpt lat="47.31878" lon="-1.34945">
        <ele>90</ele>
        <time>2015-03-18T14:37:00.000Z</time>
      </trkpt>
      <trkpt lat="47.3187" lon="-1.34958">
        <ele>97</ele>
        <time>2015-03-18T14:37:04.000Z</time>
      </trkpt>
      <trkpt lat="47.31863" lon="-1.34964">
        <ele>98</ele>
        <time>2015-03-18T14:37:06.000Z</time>
      </trkpt>
      <trkpt lat="47.31858" lon="-1.34972">
        <ele>98</ele>
        <time>2015-03-18T14:37:08.000Z</time>
      </trkpt>
      <trkpt lat="47.31853" lon="-1.34981">
        <ele>99</ele>
        <time>2015-03-18T14:37:10.000Z</time>
      </trkpt>
      <trkpt lat="47.31848" lon="-1.3499">
        <ele>99</ele>
        <time>2015-03-18T14:37:12.000Z</time>
      </trkpt>
      <trkpt lat="47.31844" lon="-1.35">
        <ele>99</ele>
        <time>2015-03-18T14:37:14.000Z</time>
      </trkpt>
      <trkpt lat="47.3184" lon="-1.35011">
        <ele>99</ele>
        <time>2015-03-18T14:37:16.000Z</time>
      </trkpt>
      <trkpt lat="47.31836" lon="-1.35023">
        <ele>98</ele>
        <time>2015-03-18T14:37:18.000Z</time>
      </trkpt>
      <trkpt lat="47.31831" lon="-1.35035">
        <ele>100</ele>
        <time>2015-03-18T14:37:20.000Z</time>
      </trkpt>
      <trkpt lat="47.31826" lon="-1.35046">
        <ele>102</ele>
        <time>2015-03-18T14:37:22.000Z</time>
      </trkpt>
      <trkpt lat="47.31821" lon="-1.35056">
        <ele>98</ele>
        <time>2015-03-18T14:37:24.000Z</time>
      </trkpt>
      <trkpt lat="47.31815" lon="-1.35063">
        <ele>94</ele>
        <time>2015-03-18T14:37:26.000Z</time>
      </trkpt>
      <trkpt lat="47.3181" lon="-1.35069">
        <ele>95</ele>
        <time>2015-03-18T14:37:28.000Z</time>
      </trkpt>
      <trkpt lat="47.31805" lon="-1.35075">
        <ele>95</ele>
        <time>2015-03-18T14:37:30.000Z</time>
      </trkpt>
      <trkpt lat="47.318" lon="-1.3508">
        <ele>95</ele>
        <time>2015-03-18T14:37:32.000Z</time>
      </trkpt>
      <trkpt lat="47.31795" lon="-1.35084">
        <ele>93</ele>
        <time>2015-03-18T14:37:34.000Z</time>
      </trkpt>
      <trkpt lat="47.31789" lon="-1.35088">
        <ele>92</ele>
        <time>2015-03-18T14:37:36.000Z</time>
      </trkpt>
      <trkpt lat="47.31783" lon="-1.35096">
        <ele>90</ele>
        <time>2015-03-18T14:37:38.000Z</time>
      </trkpt>
      <trkpt lat="47.31775" lon="-1.35106">
        <ele>90</ele>
        <time>2015-03-18T14:37:40.000Z</time>
      </trkpt>
      <trkpt lat="47.31768" lon="-1.35116">
        <ele>92</ele>
        <time>2015-03-18T14:37:42.000Z</time>
      </trkpt>
      <trkpt lat="47.31762" lon="-1.35125">
        <ele>92</ele>
        <time>2015-03-18T14:37:44.000Z</time>
      </trkpt>
      <trkpt lat="47.31755" lon="-1.35133">
        <ele>90</ele>
        <time>2015-03-18T14:37:46.000Z</time>
      </trkpt>
      <trkpt lat="47.31747" lon="-1.3514">
        <ele>86</ele>
        <time>2015-03-18T14:37:48.000Z</time>
      </trkpt>
      <trkpt lat="47.31738" lon="-1.35149">
        <ele>81</ele>
        <time>2015-03-18T14:37:50.000Z</time>
      </trkpt>
      <trkpt lat="47.3173" lon="-1.35156">
        <ele>72</ele>
        <time>2015-03-18T14:37:52.000Z</time>
      </trkpt>
      <trkpt lat="47.31725" lon="-1.35161">
        <ele>69</ele>
        <time>2015-03-18T14:37:54.000Z</time>
      </trkpt>
      <trkpt lat="47.31719" lon="-1.35167">
        <ele>66</ele>
        <time>2015-03-18T14:37:56.000Z</time>
      </trkpt>
      <trkpt lat="47.31719" lon="-1.35167">
        <ele>66</ele>
        <time>2015-03-18T14:37:58.000Z</time>
      </trkpt>
      <trkpt lat="47.31711" lon="-1.35178">
        <ele>69</ele>
        <time>2015-03-18T14:38:00.000Z</time>
      </trkpt>
      <trkpt lat="47.31711" lon="-1.35178">
        <ele>69</ele>
        <time>2015-03-18T14:38:02.000Z</time>
      </trkpt>
      <trkpt lat="47.31711" lon="-1.35178">
        <ele>69</ele>
        <time>2015-03-18T14:38:04.000Z</time>
      </trkpt>
      <trkpt lat="47.31711" lon="-1.35178">
        <ele>69</ele>
        <time>2015-03-18T14:38:06.000Z</time>
      </trkpt>
      <trkpt lat="47.31711" lon="-1.35178">
        <ele>69</ele>
        <time>2015-03-18T14:38:08.000Z</time>
      </trkpt>
      <trkpt lat="47.31713" lon="-1.352">
        <ele>88</ele>
        <time>2015-03-18T14:39:02.000Z</time>
      </trkpt>
      <trkpt lat="47.31714" lon="-1.35214">
        <ele>86</ele>
        <time>2015-03-18T14:39:04.000Z</time>
      </trkpt>
      <trkpt lat="47.31715" lon="-1.35224">
        <ele>87</ele>
        <time>2015-03-18T14:39:06.000Z</time>
      </trkpt>
      <trkpt lat="47.31717" lon="-1.35231">
        <ele>92</ele>
        <time>2015-03-18T14:39:08.000Z</time>
      </trkpt>
      <trkpt lat="47.31718" lon="-1.35238">
        <ele>93</ele>
        <time>2015-03-18T14:39:10.000Z</time>
      </trkpt>
      <trkpt lat="47.31722" lon="-1.35251">
        <ele>96</ele>
        <time>2015-03-18T14:39:12.000Z</time>
      </trkpt>
      <trkpt lat="47.31726" lon="-1.35266">
        <ele>99</ele>
        <time>2015-03-18T14:39:16.000Z</time>
      </trkpt>
      <trkpt lat="47.31731" lon="-1.35279">
        <ele>101</ele>
        <time>2015-03-18T14:39:20.000Z</time>
      </trkpt>
      <trkpt lat="47.31731" lon="-1.35279">
        <ele>101</ele>
        <time>2015-03-18T14:39:22.000Z</time>
      </trkpt>
      <trkpt lat="47.31736" lon="-1.35294">
        <ele>107</ele>
        <time>2015-03-18T14:39:24.000Z</time>
      </trkpt>
      <trkpt lat="47.31737" lon="-1.35302">
        <ele>108</ele>
        <time>2015-03-18T14:39:26.000Z</time>
      </trkpt>
      <trkpt lat="47.31739" lon="-1.35312">
        <ele>107</ele>
        <time>2015-03-18T14:39:28.000Z</time>
      </trkpt>
      <trkpt lat="47.31742" lon="-1.35325">
        <ele>100</ele>
        <time>2015-03-18T14:39:30.000Z</time>
      </trkpt>
      <trkpt lat="47.31744" lon="-1.35339">
        <ele>98</ele>
        <time>2015-03-18T14:39:32.000Z</time>
      </trkpt>
      <trkpt lat="47.31746" lon="-1.3535">
        <ele>103</ele>
        <time>2015-03-18T14:39:34.000Z</time>
      </trkpt>
      <trkpt lat="47.31747" lon="-1.3536">
        <ele>106</ele>
        <time>2015-03-18T14:39:36.000Z</time>
      </trkpt>
      <trkpt lat="47.31748" lon="-1.3537">
        <ele>110</ele>
        <time>2015-03-18T14:39:38.000Z</time>
      </trkpt>
      <trkpt lat="47.31747" lon="-1.3538">
        <ele>106</ele>
        <time>2015-03-18T14:39:40.000Z</time>
      </trkpt>
      <trkpt lat="47.31746" lon="-1.35391">
        <ele>106</ele>
        <time>2015-03-18T14:39:42.000Z</time>
      </trkpt>
      <trkpt lat="47.31744" lon="-1.35402">
        <ele>105</ele>
        <time>2015-03-18T14:39:44.000Z</time>
      </trkpt>
      <trkpt lat="47.31744" lon="-1.35411">
        <ele>104</ele>
        <time>2015-03-18T14:39:46.000Z</time>
      </trkpt>
      <trkpt lat="47.31743" lon="-1.35419">
        <ele>101</ele>
        <time>2015-03-18T14:39:48.000Z</time>
      </trkpt>
      <trkpt lat="47.31743" lon="-1.35419">
        <ele>101</ele>
        <time>2015-03-18T14:39:50.000Z</time>
      </trkpt>
      <trkpt lat="47.31744" lon="-1.35431">
        <ele>102</ele>
        <time>2015-03-18T14:39:52.000Z</time>
      </trkpt>
      <trkpt lat="47.31744" lon="-1.35431">
        <ele>102</ele>
        <time>2015-03-18T14:39:54.000Z</time>
      </trkpt>
      <trkpt lat="47.31745" lon="-1.35444">
        <ele>105</ele>
        <time>2015-03-18T14:39:56.000Z</time>
      </trkpt>
      <trkpt lat="47.31747" lon="-1.35454">
        <ele>110</ele>
        <time>2015-03-18T14:40:00.000Z</time>
      </trkpt>
      <trkpt lat="47.3175" lon="-1.35465">
        <ele>115</ele>
        <time>2015-03-18T14:40:04.000Z</time>
      </trkpt>
      <trkpt lat="47.31752" lon="-1.35474">
        <ele>119</ele>
        <time>2015-03-18T14:40:08.000Z</time>
      </trkpt>
      <trkpt lat="47.31752" lon="-1.35474">
        <ele>119</ele>
        <time>2015-03-18T14:40:10.000Z</time>
      </trkpt>
      <trkpt lat="47.31755" lon="-1.35483">
        <ele>121</ele>
        <time>2015-03-18T14:40:12.000Z</time>
      </trkpt>
      <trkpt lat="47.31758" lon="-1.35496">
        <ele>120</ele>
        <time>2015-03-18T14:40:16.000Z</time>
      </trkpt>
      <trkpt lat="47.31761" lon="-1.35506">
        <ele>119</ele>
        <time>2015-03-18T14:40:20.000Z</time>
      </trkpt>
      <trkpt lat="47.31765" lon="-1.35512">
        <ele>116</ele>
        <time>2015-03-18T14:40:22.000Z</time>
      </trkpt>
      <trkpt lat="47.3177" lon="-1.35526">
        <ele>114</ele>
        <time>2015-03-18T14:40:26.000Z</time>
      </trkpt>
      <trkpt lat="47.3177" lon="-1.35526">
        <ele>114</ele>
        <time>2015-03-18T14:40:28.000Z</time>
      </trkpt>
      <trkpt lat="47.31773" lon="-1.35538">
        <ele>113</ele>
        <time>2015-03-18T14:40:30.000Z</time>
      </trkpt>
      <trkpt lat="47.31773" lon="-1.35538">
        <ele>113</ele>
        <time>2015-03-18T14:40:32.000Z</time>
      </trkpt>
      <trkpt lat="47.31773" lon="-1.35538">
        <ele>113</ele>
        <time>2015-03-18T14:40:34.000Z</time>
      </trkpt>
      <trkpt lat="47.31773" lon="-1.35538">
        <ele>113</ele>
        <time>2015-03-18T14:40:42.000Z</time>
      </trkpt>
      <trkpt lat="47.3179" lon="-1.35597">
        <ele>89</ele>
        <time>2015-03-18T14:40:52.000Z</time>
      </trkpt>
      <trkpt lat="47.31797" lon="-1.35606">
        <ele>90</ele>
        <time>2015-03-18T14:40:56.000Z</time>
      </trkpt>
      <trkpt lat="47.31797" lon="-1.35606">
        <ele>90</ele>
        <time>2015-03-18T14:40:58.000Z</time>
      </trkpt>
      <trkpt lat="47.31797" lon="-1.35606">
        <ele>90</ele>
        <time>2015-03-18T14:41:00.000Z</time>
      </trkpt>
      <trkpt lat="47.31801" lon="-1.35616">
        <ele>90</ele>
        <time>2015-03-18T14:41:02.000Z</time>
      </trkpt>
      <trkpt lat="47.31801" lon="-1.35616">
        <ele>90</ele>
        <time>2015-03-18T14:41:04.000Z</time>
      </trkpt>
      <trkpt lat="47.31807" lon="-1.35633">
        <ele>97</ele>
        <time>2015-03-18T14:41:18.000Z</time>
      </trkpt>
      <trkpt lat="47.3181" lon="-1.35644">
        <ele>98</ele>
        <time>2015-03-18T14:41:20.000Z</time>
      </trkpt>
      <trkpt lat="47.31811" lon="-1.35652">
        <ele>97</ele>
        <time>2015-03-18T14:41:22.000Z</time>
      </trkpt>
      <trkpt lat="47.31813" lon="-1.35658">
        <ele>97</ele>
        <time>2015-03-18T14:41:24.000Z</time>
      </trkpt>
      <trkpt lat="47.31813" lon="-1.35663">
        <ele>97</ele>
        <time>2015-03-18T14:41:26.000Z</time>
      </trkpt>
      <trkpt lat="47.31815" lon="-1.35672">
        <ele>98</ele>
        <time>2015-03-18T14:41:28.000Z</time>
      </trkpt>
      <trkpt lat="47.31815" lon="-1.35672">
        <ele>98</ele>
        <time>2015-03-18T14:41:30.000Z</time>
      </trkpt>
      <trkpt lat="47.31815" lon="-1.35672">
        <ele>98</ele>
        <time>2015-03-18T14:41:32.000Z</time>
      </trkpt>
      <trkpt lat="47.31815" lon="-1.35672">
        <ele>98</ele>
        <time>2015-03-18T14:41:34.000Z</time>
      </trkpt>
      <trkpt lat="47.31826" lon="-1.35693">
        <ele>98</ele>
        <time>2015-03-18T14:41:38.000Z</time>
      </trkpt>
      <trkpt lat="47.31831" lon="-1.35705">
        <ele>102</ele>
        <time>2015-03-18T14:41:42.000Z</time>
      </trkpt>
      <trkpt lat="47.31836" lon="-1.35715">
        <ele>99</ele>
        <time>2015-03-18T14:41:46.000Z</time>
      </trkpt>
      <trkpt lat="47.31842" lon="-1.35728">
        <ele>96</ele>
        <time>2015-03-18T14:41:50.000Z</time>
      </trkpt>
      <trkpt lat="47.31842" lon="-1.35728">
        <ele>96</ele>
        <time>2015-03-18T14:41:52.000Z</time>
      </trkpt>
      <trkpt lat="47.31842" lon="-1.35728">
        <ele>96</ele>
        <time>2015-03-18T14:41:54.000Z</time>
      </trkpt>
      <trkpt lat="47.31842" lon="-1.35728">
        <ele>96</ele>
        <time>2015-03-18T14:41:56.000Z</time>
      </trkpt>
      <trkpt lat="47.31854" lon="-1.35751">
        <ele>100</ele>
        <time>2015-03-18T14:41:58.000Z</time>
      </trkpt>
      <trkpt lat="47.31857" lon="-1.35759">
        <ele>108</ele>
        <time>2015-03-18T14:42:00.000Z</time>
      </trkpt>
      <trkpt lat="47.3186" lon="-1.35768">
        <ele>109</ele>
        <time>2015-03-18T14:42:02.000Z</time>
      </trkpt>
      <trkpt lat="47.31863" lon="-1.35776">
        <ele>108</ele>
        <time>2015-03-18T14:42:04.000Z</time>
      </trkpt>
      <trkpt lat="47.31866" lon="-1.35787">
        <ele>107</ele>
        <time>2015-03-18T14:42:06.000Z</time>
      </trkpt>
      <trkpt lat="47.31871" lon="-1.35799">
        <ele>105</ele>
        <time>2015-03-18T14:42:08.000Z</time>
      </trkpt>
      <trkpt lat="47.31876" lon="-1.35811">
        <ele>101</ele>
        <time>2015-03-18T14:42:10.000Z</time>
      </trkpt>
      <trkpt lat="47.31884" lon="-1.35823">
        <ele>104</ele>
        <time>2015-03-18T14:42:12.000Z</time>
      </trkpt>
      <trkpt lat="47.31891" lon="-1.35833">
        <ele>103</ele>
        <time>2015-03-18T14:42:14.000Z</time>
      </trkpt>
      <trkpt lat="47.31895" lon="-1.35841">
        <ele>103</ele>
        <time>2015-03-18T14:42:16.000Z</time>
      </trkpt>
      <trkpt lat="47.31895" lon="-1.35841">
        <ele>103</ele>
        <time>2015-03-18T14:42:18.000Z</time>
      </trkpt>
      <trkpt lat="47.319" lon="-1.35854">
        <ele>105</ele>
        <time>2015-03-18T14:42:20.000Z</time>
      </trkpt>
      <trkpt lat="47.319" lon="-1.35854">
        <ele>105</ele>
        <time>2015-03-18T14:42:22.000Z</time>
      </trkpt>
      <trkpt lat="47.31903" lon="-1.35863">
        <ele>104</ele>
        <time>2015-03-18T14:42:24.000Z</time>
      </trkpt>
      <trkpt lat="47.31903" lon="-1.35863">
        <ele>104</ele>
        <time>2015-03-18T14:42:26.000Z</time>
      </trkpt>
      <trkpt lat="47.31908" lon="-1.35873">
        <ele>103</ele>
        <time>2015-03-18T14:42:28.000Z</time>
      </trkpt>
      <trkpt lat="47.31914" lon="-1.3588">
        <ele>100</ele>
        <time>2015-03-18T14:42:32.000Z</time>
      </trkpt>
      <trkpt lat="47.31914" lon="-1.3588">
        <ele>100</ele>
        <time>2015-03-18T14:42:34.000Z</time>
      </trkpt>
      <trkpt lat="47.3192" lon="-1.35887">
        <ele>99</ele>
        <time>2015-03-18T14:42:36.000Z</time>
      </trkpt>
      <trkpt lat="47.31927" lon="-1.35899">
        <ele>99</ele>
        <time>2015-03-18T14:42:40.000Z</time>
      </trkpt>
      <trkpt lat="47.31931" lon="-1.35908">
        <ele>101</ele>
        <time>2015-03-18T14:42:42.000Z</time>
      </trkpt>
      <trkpt lat="47.31936" lon="-1.35918">
        <ele>101</ele>
        <time>2015-03-18T14:42:44.000Z</time>
      </trkpt>
      <trkpt lat="47.31942" lon="-1.35927">
        <ele>106</ele>
        <time>2015-03-18T14:42:46.000Z</time>
      </trkpt>
      <trkpt lat="47.31947" lon="-1.35937">
        <ele>103</ele>
        <time>2015-03-18T14:42:48.000Z</time>
      </trkpt>
      <trkpt lat="47.31951" lon="-1.35947">
        <ele>99</ele>
        <time>2015-03-18T14:42:50.000Z</time>
      </trkpt>
      <trkpt lat="47.31956" lon="-1.35958">
        <ele>97</ele>
        <time>2015-03-18T14:42:52.000Z</time>
      </trkpt>
      <trkpt lat="47.31959" lon="-1.35969">
        <ele>98</ele>
        <time>2015-03-18T14:42:54.000Z</time>
      </trkpt>
      <trkpt lat="47.31962" lon="-1.35979">
        <ele>97</ele>
        <time>2015-03-18T14:42:56.000Z</time>
      </trkpt>
      <trkpt lat="47.31966" lon="-1.35988">
        <ele>94</ele>
        <time>2015-03-18T14:42:58.000Z</time>
      </trkpt>
      <trkpt lat="47.3197" lon="-1.35996">
        <ele>94</ele>
        <time>2015-03-18T14:43:00.000Z</time>
      </trkpt>
      <trkpt lat="47.31974" lon="-1.36003">
        <ele>92</ele>
        <time>2015-03-18T14:43:02.000Z</time>
      </trkpt>
      <trkpt lat="47.31978" lon="-1.3601">
        <ele>97</ele>
        <time>2015-03-18T14:43:04.000Z</time>
      </trkpt>
      <trkpt lat="47.31978" lon="-1.3601">
        <ele>97</ele>
        <time>2015-03-18T14:43:06.000Z</time>
      </trkpt>
      <trkpt lat="47.31987" lon="-1.36025">
        <ele>92</ele>
        <time>2015-03-18T14:43:08.000Z</time>
      </trkpt>
      <trkpt lat="47.31987" lon="-1.36025">
        <ele>92</ele>
        <time>2015-03-18T14:43:10.000Z</time>
      </trkpt>
      <trkpt lat="47.31993" lon="-1.36033">
        <ele>90</ele>
        <time>2015-03-18T14:43:12.000Z</time>
      </trkpt>
      <trkpt lat="47.31993" lon="-1.36033">
        <ele>90</ele>
        <time>2015-03-18T14:43:16.000Z</time>
      </trkpt>
      <trkpt lat="47.31993" lon="-1.36033">
        <ele>90</ele>
        <time>2015-03-18T14:43:18.000Z</time>
      </trkpt>
      <trkpt lat="47.31993" lon="-1.36033">
        <ele>90</ele>
        <time>2015-03-18T14:43:20.000Z</time>
      </trkpt>
      <trkpt lat="47.31993" lon="-1.36033">
        <ele>90</ele>
        <time>2015-03-18T14:43:22.000Z</time>
      </trkpt>
      <trkpt lat="47.31993" lon="-1.36033">
        <ele>90</ele>
        <time>2015-03-18T14:43:24.000Z</time>
      </trkpt>
      <trkpt lat="47.31993" lon="-1.36033">
        <ele>90</ele>
        <time>2015-03-18T14:43:26.000Z</time>
      </trkpt>
      <trkpt lat="47.31993" lon="-1.36033">
        <ele>90</ele>
        <time>2015-03-18T14:43:28.000Z</time>
      </trkpt>
      <trkpt lat="47.32001" lon="-1.3605">
        <ele>105</ele>
        <time>2015-03-18T14:44:46.000Z</time>
      </trkpt>
      <trkpt lat="47.32005" lon="-1.36061">
        <ele>108</ele>
        <time>2015-03-18T14:44:48.000Z</time>
      </trkpt>
      <trkpt lat="47.32008" lon="-1.36068">
        <ele>109</ele>
        <time>2015-03-18T14:44:50.000Z</time>
      </trkpt>
      <trkpt lat="47.32009" lon="-1.36073">
        <ele>110</ele>
        <time>2015-03-18T14:44:52.000Z</time>
      </trkpt>
      <trkpt lat="47.3201" lon="-1.36078">
        <ele>110</ele>
        <time>2015-03-18T14:44:54.000Z</time>
      </trkpt>
      <trkpt lat="47.32011" lon="-1.36088">
        <ele>107</ele>
        <time>2015-03-18T14:44:56.000Z</time>
      </trkpt>
      <trkpt lat="47.32012" lon="-1.36099">
        <ele>111</ele>
        <time>2015-03-18T14:45:00.000Z</time>
      </trkpt>
      <trkpt lat="47.32012" lon="-1.36099">
        <ele>111</ele>
        <time>2015-03-18T14:45:02.000Z</time>
      </trkpt>
      <trkpt lat="47.32016" lon="-1.36106">
        <ele>115</ele>
        <time>2015-03-18T14:45:04.000Z</time>
      </trkpt>
      <trkpt lat="47.32016" lon="-1.36106">
        <ele>115</ele>
        <time>2015-03-18T14:45:06.000Z</time>
      </trkpt>
      <trkpt lat="47.32018" lon="-1.36116">
        <ele>113</ele>
        <time>2015-03-18T14:45:08.000Z</time>
      </trkpt>
      <trkpt lat="47.3202" lon="-1.36125">
        <ele>113</ele>
        <time>2015-03-18T14:45:12.000Z</time>
      </trkpt>
      <trkpt lat="47.3202" lon="-1.36125">
        <ele>113</ele>
        <time>2015-03-18T14:45:14.000Z</time>
      </trkpt>
      <trkpt lat="47.3202" lon="-1.36125">
        <ele>113</ele>
        <time>2015-03-18T14:45:16.000Z</time>
      </trkpt>
      <trkpt lat="47.3202" lon="-1.36125">
        <ele>113</ele>
        <time>2015-03-18T14:45:18.000Z</time>
      </trkpt>
      <trkpt lat="47.3202" lon="-1.36125">
        <ele>113</ele>
        <time>2015-03-18T14:45:20.000Z</time>
      </trkpt>
      <trkpt lat="47.32031" lon="-1.36173">
        <ele>101</ele>
        <time>2015-03-18T14:45:32.000Z</time>
      </trkpt>
      <trkpt lat="47.32035" lon="-1.36187">
        <ele>97</ele>
        <time>2015-03-18T14:45:36.000Z</time>
      </trkpt>
      <trkpt lat="47.32039" lon="-1.36199">
        <ele>100</ele>
        <time>2015-03-18T14:45:40.000Z</time>
      </trkpt>
      <trkpt lat="47.32039" lon="-1.36199">
        <ele>100</ele>
        <time>2015-03-18T14:45:42.000Z</time>
      </trkpt>
      <trkpt lat="47.32044" lon="-1.36209">
        <ele>101</ele>
        <time>2015-03-18T14:45:44.000Z</time>
      </trkpt>
      <trkpt lat="47.32044" lon="-1.36209">
        <ele>101</ele>
        <time>2015-03-18T14:45:46.000Z</time>
      </trkpt>
      <trkpt lat="47.3205" lon="-1.36219">
        <ele>101</ele>
        <time>2015-03-18T14:45:48.000Z</time>
      </trkpt>
      <trkpt lat="47.3205" lon="-1.36219">
        <ele>101</ele>
        <time>2015-03-18T14:45:50.000Z</time>
      </trkpt>
      <trkpt lat="47.32055" lon="-1.36226">
        <ele>105</ele>
        <time>2015-03-18T14:45:52.000Z</time>
      </trkpt>
      <trkpt lat="47.32055" lon="-1.36226">
        <ele>105</ele>
        <time>2015-03-18T14:45:54.000Z</time>
      </trkpt>
      <trkpt lat="47.3206" lon="-1.36233">
        <ele>103</ele>
        <time>2015-03-18T14:45:56.000Z</time>
      </trkpt>
      <trkpt lat="47.3206" lon="-1.36233">
        <ele>103</ele>
        <time>2015-03-18T14:45:58.000Z</time>
      </trkpt>
      <trkpt lat="47.32062" lon="-1.36243">
        <ele>104</ele>
        <time>2015-03-18T14:46:00.000Z</time>
      </trkpt>
      <trkpt lat="47.32062" lon="-1.36243">
        <ele>104</ele>
        <time>2015-03-18T14:46:02.000Z</time>
      </trkpt>
      <trkpt lat="47.32066" lon="-1.3625">
        <ele>104</ele>
        <time>2015-03-18T14:46:04.000Z</time>
      </trkpt>
      <trkpt lat="47.32066" lon="-1.3625">
        <ele>104</ele>
        <time>2015-03-18T14:46:06.000Z</time>
      </trkpt>
      <trkpt lat="47.32069" lon="-1.36258">
        <ele>103</ele>
        <time>2015-03-18T14:46:08.000Z</time>
      </trkpt>
      <trkpt lat="47.32069" lon="-1.36258">
        <ele>103</ele>
        <time>2015-03-18T14:46:10.000Z</time>
      </trkpt>
      <trkpt lat="47.32071" lon="-1.36267">
        <ele>104</ele>
        <time>2015-03-18T14:46:12.000Z</time>
      </trkpt>
      <trkpt lat="47.32071" lon="-1.36267">
        <ele>104</ele>
        <time>2015-03-18T14:46:14.000Z</time>
      </trkpt>
      <trkpt lat="47.32071" lon="-1.36267">
        <ele>104</ele>
        <time>2015-03-18T14:46:16.000Z</time>
      </trkpt>
      <trkpt lat="47.32071" lon="-1.36267">
        <ele>104</ele>
        <time>2015-03-18T14:46:18.000Z</time>
      </trkpt>
      <trkpt lat="47.32075" lon="-1.36279">
        <ele>105</ele>
        <time>2015-03-18T14:46:20.000Z</time>
      </trkpt>
      <trkpt lat="47.32079" lon="-1.36285">
        <ele>103</ele>
        <time>2015-03-18T14:46:24.000Z</time>
      </trkpt>
      <trkpt lat="47.32079" lon="-1.36285">
        <ele>103</ele>
        <time>2015-03-18T14:46:26.000Z</time>
      </trkpt>
      <trkpt lat="47.32084" lon="-1.36296">
        <ele>106</ele>
        <time>2015-03-18T14:46:28.000Z</time>
      </trkpt>
      <trkpt lat="47.32084" lon="-1.36296">
        <ele>106</ele>
        <time>2015-03-18T14:46:30.000Z</time>
      </trkpt>
      <trkpt lat="47.32084" lon="-1.36296">
        <ele>106</ele>
        <time>2015-03-18T14:46:32.000Z</time>
      </trkpt>
      <trkpt lat="47.32089" lon="-1.36309">
        <ele>111</ele>
        <time>2015-03-18T14:46:36.000Z</time>
      </trkpt>
      <trkpt lat="47.32092" lon="-1.36319">
        <ele>109</ele>
        <time>2015-03-18T14:46:38.000Z</time>
      </trkpt>
      <trkpt lat="47.32095" lon="-1.36327">
        <ele>108</ele>
        <time>2015-03-18T14:46:40.000Z</time>
      </trkpt>
      <trkpt lat="47.32097" lon="-1.36335">
        <ele>108</ele>
        <time>2015-03-18T14:46:42.000Z</time>
      </trkpt>
      <trkpt lat="47.32098" lon="-1.36342">
        <ele>106</ele>
        <time>2015-03-18T14:46:44.000Z</time>
      </trkpt>
      <trkpt lat="47.32101" lon="-1.36355">
        <ele>104</ele>
        <time>2015-03-18T14:46:46.000Z</time>
      </trkpt>
      <trkpt lat="47.32102" lon="-1.36366">
        <ele>105</ele>
        <time>2015-03-18T14:46:50.000Z</time>
      </trkpt>
      <trkpt lat="47.32102" lon="-1.36366">
        <ele>105</ele>
        <time>2015-03-18T14:46:52.000Z</time>
      </trkpt>
      <trkpt lat="47.32102" lon="-1.36366">
        <ele>105</ele>
        <time>2015-03-18T14:46:54.000Z</time>
      </trkpt>
      <trkpt lat="47.32106" lon="-1.36376">
        <ele>106</ele>
        <time>2015-03-18T14:46:56.000Z</time>
      </trkpt>
      <trkpt lat="47.32109" lon="-1.36387">
        <ele>104</ele>
        <time>2015-03-18T14:47:00.000Z</time>
      </trkpt>
      <trkpt lat="47.32109" lon="-1.36387">
        <ele>104</ele>
        <time>2015-03-18T14:47:04.000Z</time>
      </trkpt>
      <trkpt lat="47.32113" lon="-1.36398">
        <ele>106</ele>
        <time>2015-03-18T14:47:06.000Z</time>
      </trkpt>
      <trkpt lat="47.32113" lon="-1.36398">
        <ele>106</ele>
        <time>2015-03-18T14:47:08.000Z</time>
      </trkpt>
      <trkpt lat="47.32117" lon="-1.36405">
        <ele>111</ele>
        <time>2015-03-18T14:47:10.000Z</time>
      </trkpt>
      <trkpt lat="47.32122" lon="-1.36412">
        <ele>114</ele>
        <time>2015-03-18T14:47:14.000Z</time>
      </trkpt>
      <trkpt lat="47.32122" lon="-1.36412">
        <ele>114</ele>
        <time>2015-03-18T14:47:16.000Z</time>
      </trkpt>
      <trkpt lat="47.32126" lon="-1.36419">
        <ele>113</ele>
        <time>2015-03-18T14:47:18.000Z</time>
      </trkpt>
      <trkpt lat="47.32126" lon="-1.36419">
        <ele>113</ele>
        <time>2015-03-18T14:47:20.000Z</time>
      </trkpt>
      <trkpt lat="47.3213" lon="-1.36426">
        <ele>114</ele>
        <time>2015-03-18T14:47:22.000Z</time>
      </trkpt>
      <trkpt lat="47.3213" lon="-1.36426">
        <ele>114</ele>
        <time>2015-03-18T14:47:24.000Z</time>
      </trkpt>
      <trkpt lat="47.3213" lon="-1.36426">
        <ele>114</ele>
        <time>2015-03-18T14:47:26.000Z</time>
      </trkpt>
      <trkpt lat="47.3213" lon="-1.36426">
        <ele>114</ele>
        <time>2015-03-18T14:47:28.000Z</time>
      </trkpt>
      <trkpt lat="47.3213" lon="-1.36426">
        <ele>114</ele>
        <time>2015-03-18T14:47:30.000Z</time>
      </trkpt>
      <trkpt lat="47.3213" lon="-1.36426">
        <ele>114</ele>
        <time>2015-03-18T14:47:32.000Z</time>
      </trkpt>
      <trkpt lat="47.3213" lon="-1.36426">
        <ele>114</ele>
        <time>2015-03-18T14:47:34.000Z</time>
      </trkpt>
      <trkpt lat="47.32145" lon="-1.36483">
        <ele>120</ele>
        <time>2015-03-18T14:47:50.000Z</time>
      </trkpt>
      <trkpt lat="47.32146" lon="-1.36493">
        <ele>123</ele>
        <time>2015-03-18T14:47:54.000Z</time>
      </trkpt>
      <trkpt lat="47.32146" lon="-1.36503">
        <ele>125</ele>
        <time>2015-03-18T14:47:58.000Z</time>
      </trkpt>
      <trkpt lat="47.32146" lon="-1.36503">
        <ele>125</ele>
        <time>2015-03-18T14:48:00.000Z</time>
      </trkpt>
      <trkpt lat="47.32146" lon="-1.36503">
        <ele>125</ele>
        <time>2015-03-18T14:48:02.000Z</time>
      </trkpt>
      <trkpt lat="47.32146" lon="-1.36503">
        <ele>125</ele>
        <time>2015-03-18T14:48:04.000Z</time>
      </trkpt>
      <trkpt lat="47.32146" lon="-1.36503">
        <ele>125</ele>
        <time>2015-03-18T14:48:06.000Z</time>
      </trkpt>
      <trkpt lat="47.32146" lon="-1.36503">
        <ele>125</ele>
        <time>2015-03-18T14:48:08.000Z</time>
      </trkpt>
      <trkpt lat="47.32146" lon="-1.36503">
        <ele>125</ele>
        <time>2015-03-18T14:48:16.000Z</time>
      </trkpt>
      <trkpt lat="47.32146" lon="-1.36503">
        <ele>125</ele>
        <time>2015-03-18T14:48:18.000Z</time>
      </trkpt>
      <trkpt lat="47.32146" lon="-1.36503">
        <ele>125</ele>
        <time>2015-03-18T14:48:20.000Z</time>
      </trkpt>
      <trkpt lat="47.32156" lon="-1.36537">
        <ele>125</ele>
        <time>2015-03-18T14:48:34.000Z</time>
      </trkpt>
      <trkpt lat="47.32162" lon="-1.36559">
        <ele>122</ele>
        <time>2015-03-18T14:48:36.000Z</time>
      </trkpt>
      <trkpt lat="47.32167" lon="-1.36573">
        <ele>120</ele>
        <time>2015-03-18T14:48:38.000Z</time>
      </trkpt>
      <trkpt lat="47.3217" lon="-1.36584">
        <ele>114</ele>
        <time>2015-03-18T14:48:40.000Z</time>
      </trkpt>
      <trkpt lat="47.32173" lon="-1.36594">
        <ele>109</ele>
        <time>2015-03-18T14:48:42.000Z</time>
      </trkpt>
      <trkpt lat="47.32179" lon="-1.36617">
        <ele>108</ele>
        <time>2015-03-18T14:48:44.000Z</time>
      </trkpt>
      <trkpt lat="47.32179" lon="-1.36617">
        <ele>108</ele>
        <time>2015-03-18T14:48:47.000Z</time>
      </trkpt>
      <trkpt lat="47.32179" lon="-1.36617">
        <ele>108</ele>
        <time>2015-03-18T14:48:49.000Z</time>
      </trkpt>
      <trkpt lat="47.32179" lon="-1.36617">
        <ele>108</ele>
        <time>2015-03-18T14:48:51.000Z</time>
      </trkpt>
      <trkpt lat="47.32189" lon="-1.36635">
        <ele>109</ele>
        <time>2015-03-18T14:48:53.000Z</time>
      </trkpt>
      <trkpt lat="47.32189" lon="-1.36635">
        <ele>109</ele>
        <time>2015-03-18T14:48:59.000Z</time>
      </trkpt>
      <trkpt lat="47.32189" lon="-1.36635">
        <ele>109</ele>
        <time>2015-03-18T14:49:01.000Z</time>
      </trkpt>
      <trkpt lat="47.32189" lon="-1.36635">
        <ele>109</ele>
        <time>2015-03-18T14:49:03.000Z</time>
      </trkpt>
      <trkpt lat="47.32189" lon="-1.36635">
        <ele>109</ele>
        <time>2015-03-18T14:49:05.000Z</time>
      </trkpt>
      <trkpt lat="47.32189" lon="-1.36635">
        <ele>109</ele>
        <time>2015-03-18T14:49:07.000Z</time>
      </trkpt>
      <trkpt lat="47.32189" lon="-1.36635">
        <ele>109</ele>
        <time>2015-03-18T14:49:09.000Z</time>
      </trkpt>
      <trkpt lat="47.32189" lon="-1.36635">
        <ele>109</ele>
        <time>2015-03-18T14:49:27.000Z</time>
      </trkpt>
      <trkpt lat="47.32241" lon="-1.36695">
        <ele>106</ele>
        <time>2015-03-18T14:49:39.000Z</time>
      </trkpt>
      <trkpt lat="47.32248" lon="-1.36702">
        <ele>109</ele>
        <time>2015-03-18T14:49:43.000Z</time>
      </trkpt>
      <trkpt lat="47.32248" lon="-1.36702">
        <ele>109</ele>
        <time>2015-03-18T14:49:45.000Z</time>
      </trkpt>
      <trkpt lat="47.32255" lon="-1.36709">
        <ele>109</ele>
        <time>2015-03-18T14:49:47.000Z</time>
      </trkpt>
      <trkpt lat="47.32262" lon="-1.36715">
        <ele>108</ele>
        <time>2015-03-18T14:49:51.000Z</time>
      </trkpt>
      <trkpt lat="47.32262" lon="-1.36715">
        <ele>108</ele>
        <time>2015-03-18T14:49:53.000Z</time>
      </trkpt>
      <trkpt lat="47.32267" lon="-1.36719">
        <ele>108</ele>
        <time>2015-03-18T14:49:55.000Z</time>
      </trkpt>
      <trkpt lat="47.32267" lon="-1.36719">
        <ele>108</ele>
        <time>2015-03-18T14:49:57.000Z</time>
      </trkpt>
      <trkpt lat="47.3227" lon="-1.36722">
        <ele>110</ele>
        <time>2015-03-18T14:49:59.000Z</time>
      </trkpt>
      <trkpt lat="47.32273" lon="-1.36725">
        <ele>111</ele>
        <time>2015-03-18T14:50:01.000Z</time>
      </trkpt>
      <trkpt lat="47.32276" lon="-1.36728">
        <ele>111</ele>
        <time>2015-03-18T14:50:03.000Z</time>
      </trkpt>
      <trkpt lat="47.32279" lon="-1.3673">
        <ele>111</ele>
        <time>2015-03-18T14:50:05.000Z</time>
      </trkpt>
      <trkpt lat="47.32282" lon="-1.36732">
        <ele>111</ele>
        <time>2015-03-18T14:50:07.000Z</time>
      </trkpt>
      <trkpt lat="47.32289" lon="-1.36737">
        <ele>110</ele>
        <time>2015-03-18T14:50:09.000Z</time>
      </trkpt>
      <trkpt lat="47.32298" lon="-1.36743">
        <ele>111</ele>
        <time>2015-03-18T14:50:13.000Z</time>
      </trkpt>
      <trkpt lat="47.32307" lon="-1.36751">
        <ele>111</ele>
        <time>2015-03-18T14:50:17.000Z</time>
      </trkpt>
      <trkpt lat="47.32307" lon="-1.36751">
        <ele>111</ele>
        <time>2015-03-18T14:50:19.000Z</time>
      </trkpt>
      <trkpt lat="47.32314" lon="-1.36761">
        <ele>110</ele>
        <time>2015-03-18T14:50:21.000Z</time>
      </trkpt>
      <trkpt lat="47.32314" lon="-1.36761">
        <ele>110</ele>
        <time>2015-03-18T14:50:23.000Z</time>
      </trkpt>
      <trkpt lat="47.32322" lon="-1.36769">
        <ele>113</ele>
        <time>2015-03-18T14:50:25.000Z</time>
      </trkpt>
      <trkpt lat="47.32322" lon="-1.36769">
        <ele>113</ele>
        <time>2015-03-18T14:50:27.000Z</time>
      </trkpt>
      <trkpt lat="47.32331" lon="-1.36777">
        <ele>111</ele>
        <time>2015-03-18T14:50:29.000Z</time>
      </trkpt>
      <trkpt lat="47.32336" lon="-1.36781">
        <ele>112</ele>
        <time>2015-03-18T14:50:31.000Z</time>
      </trkpt>
      <trkpt lat="47.32346" lon="-1.36782">
        <ele>115</ele>
        <time>2015-03-18T14:50:35.000Z</time>
      </trkpt>
      <trkpt lat="47.32346" lon="-1.36782">
        <ele>115</ele>
        <time>2015-03-18T14:50:37.000Z</time>
      </trkpt>
      <trkpt lat="47.32354" lon="-1.36786">
        <ele>109</ele>
        <time>2015-03-18T14:50:39.000Z</time>
      </trkpt>
      <trkpt lat="47.32354" lon="-1.36786">
        <ele>109</ele>
        <time>2015-03-18T14:50:41.000Z</time>
      </trkpt>
      <trkpt lat="47.32361" lon="-1.36786">
        <ele>110</ele>
        <time>2015-03-18T14:50:43.000Z</time>
      </trkpt>
      <trkpt lat="47.32361" lon="-1.36786">
        <ele>110</ele>
        <time>2015-03-18T14:50:45.000Z</time>
      </trkpt>
      <trkpt lat="47.3237" lon="-1.36788">
        <ele>108</ele>
        <time>2015-03-18T14:50:47.000Z</time>
      </trkpt>
      <trkpt lat="47.32378" lon="-1.36795">
        <ele>110</ele>
        <time>2015-03-18T14:50:51.000Z</time>
      </trkpt>
      <trkpt lat="47.32388" lon="-1.36804">
        <ele>111</ele>
        <time>2015-03-18T14:50:55.000Z</time>
      </trkpt>
      <trkpt lat="47.32395" lon="-1.3681">
        <ele>113</ele>
        <time>2015-03-18T14:50:59.000Z</time>
      </trkpt>
      <trkpt lat="47.32395" lon="-1.3681">
        <ele>113</ele>
        <time>2015-03-18T14:51:01.000Z</time>
      </trkpt>
      <trkpt lat="47.32402" lon="-1.36816">
        <ele>115</ele>
        <time>2015-03-18T14:51:03.000Z</time>
      </trkpt>
      <trkpt lat="47.32412" lon="-1.36822">
        <ele>114</ele>
        <time>2015-03-18T14:51:07.000Z</time>
      </trkpt>
      <trkpt lat="47.32421" lon="-1.3683">
        <ele>114</ele>
        <time>2015-03-18T14:51:11.000Z</time>
      </trkpt>
      <trkpt lat="47.3243" lon="-1.36839">
        <ele>110</ele>
        <time>2015-03-18T14:51:15.000Z</time>
      </trkpt>
      <trkpt lat="47.3243" lon="-1.36839">
        <ele>110</ele>
        <time>2015-03-18T14:51:17.000Z</time>
      </trkpt>
      <trkpt lat="47.3243" lon="-1.36839">
        <ele>110</ele>
        <time>2015-03-18T14:51:19.000Z</time>
      </trkpt>
      <trkpt lat="47.32437" lon="-1.36831">
        <ele>112</ele>
        <time>2015-03-18T14:51:21.000Z</time>
      </trkpt>
      <trkpt lat="47.32439" lon="-1.36819">
        <ele>114</ele>
        <time>2015-03-18T14:51:25.000Z</time>
      </trkpt>
      <trkpt lat="47.32441" lon="-1.36806">
        <ele>113</ele>
        <time>2015-03-18T14:51:29.000Z</time>
      </trkpt>
      <trkpt lat="47.32444" lon="-1.36793">
        <ele>115</ele>
        <time>2015-03-18T14:51:33.000Z</time>
      </trkpt>
      <trkpt lat="47.32444" lon="-1.36793">
        <ele>115</ele>
        <time>2015-03-18T14:51:35.000Z</time>
      </trkpt>
      <trkpt lat="47.32446" lon="-1.36782">
        <ele>114</ele>
        <time>2015-03-18T14:51:37.000Z</time>
      </trkpt>
      <trkpt lat="47.32446" lon="-1.36782">
        <ele>114</ele>
        <time>2015-03-18T14:51:39.000Z</time>
      </trkpt>
      <trkpt lat="47.32448" lon="-1.36771">
        <ele>114</ele>
        <time>2015-03-18T14:51:41.000Z</time>
      </trkpt>
      <trkpt lat="47.3245" lon="-1.36758">
        <ele>115</ele>
        <time>2015-03-18T14:51:45.000Z</time>
      </trkpt>
      <trkpt lat="47.32451" lon="-1.36742">
        <ele>116</ele>
        <time>2015-03-18T14:51:49.000Z</time>
      </trkpt>
      <trkpt lat="47.32454" lon="-1.36726">
        <ele>116</ele>
        <time>2015-03-18T14:51:53.000Z</time>
      </trkpt>
      <trkpt lat="47.32456" lon="-1.36712">
        <ele>116</ele>
        <time>2015-03-18T14:51:57.000Z</time>
      </trkpt>
      <trkpt lat="47.32457" lon="-1.36697">
        <ele>116</ele>
        <time>2015-03-18T14:52:01.000Z</time>
      </trkpt>
      <trkpt lat="47.32458" lon="-1.36682">
        <ele>116</ele>
        <time>2015-03-18T14:52:05.000Z</time>
      </trkpt>
      <trkpt lat="47.32458" lon="-1.36682">
        <ele>116</ele>
        <time>2015-03-18T14:52:07.000Z</time>
      </trkpt>
      <trkpt lat="47.32458" lon="-1.36675">
        <ele>116</ele>
        <time>2015-03-18T14:52:09.000Z</time>
      </trkpt>
      <trkpt lat="47.32458" lon="-1.36667">
        <ele>116</ele>
        <time>2015-03-18T14:52:11.000Z</time>
      </trkpt>
      <trkpt lat="47.32458" lon="-1.36659">
        <ele>115</ele>
        <time>2015-03-18T14:52:13.000Z</time>
      </trkpt>
      <trkpt lat="47.32457" lon="-1.36651">
        <ele>115</ele>
        <time>2015-03-18T14:52:15.000Z</time>
      </trkpt>
      <trkpt lat="47.32457" lon="-1.36644">
        <ele>115</ele>
        <time>2015-03-18T14:52:17.000Z</time>
      </trkpt>
      <trkpt lat="47.32457" lon="-1.36629">
        <ele>116</ele>
        <time>2015-03-18T14:52:19.000Z</time>
      </trkpt>
      <trkpt lat="47.32457" lon="-1.36612">
        <ele>117</ele>
        <time>2015-03-18T14:52:23.000Z</time>
      </trkpt>
      <trkpt lat="47.32457" lon="-1.36598">
        <ele>116</ele>
        <time>2015-03-18T14:52:27.000Z</time>
      </trkpt>
      <trkpt lat="47.32457" lon="-1.36598">
        <ele>116</ele>
        <time>2015-03-18T14:52:29.000Z</time>
      </trkpt>
      <trkpt lat="47.32455" lon="-1.36583">
        <ele>117</ele>
        <time>2015-03-18T14:52:31.000Z</time>
      </trkpt>
      <trkpt lat="47.32455" lon="-1.36574">
        <ele>116</ele>
        <time>2015-03-18T14:52:33.000Z</time>
      </trkpt>
      <trkpt lat="47.32456" lon="-1.36564">
        <ele>117</ele>
        <time>2015-03-18T14:52:35.000Z</time>
      </trkpt>
      <trkpt lat="47.32456" lon="-1.36556">
        <ele>117</ele>
        <time>2015-03-18T14:52:37.000Z</time>
      </trkpt>
      <trkpt lat="47.32457" lon="-1.3654">
        <ele>118</ele>
        <time>2015-03-18T14:52:41.000Z</time>
      </trkpt>
      <trkpt lat="47.32457" lon="-1.3654">
        <ele>118</ele>
        <time>2015-03-18T14:52:43.000Z</time>
      </trkpt>
      <trkpt lat="47.32457" lon="-1.36526">
        <ele>118</ele>
        <time>2015-03-18T14:52:45.000Z</time>
      </trkpt>
      <trkpt lat="47.32457" lon="-1.36526">
        <ele>118</ele>
        <time>2015-03-18T14:52:47.000Z</time>
      </trkpt>
      <trkpt lat="47.32457" lon="-1.36511">
        <ele>117</ele>
        <time>2015-03-18T14:52:49.000Z</time>
      </trkpt>
      <trkpt lat="47.32459" lon="-1.36495">
        <ele>118</ele>
        <time>2015-03-18T14:52:53.000Z</time>
      </trkpt>
      <trkpt lat="47.32458" lon="-1.36479">
        <ele>121</ele>
        <time>2015-03-18T14:52:57.000Z</time>
      </trkpt>
      <trkpt lat="47.32458" lon="-1.36479">
        <ele>121</ele>
        <time>2015-03-18T14:52:59.000Z</time>
      </trkpt>
      <trkpt lat="47.32458" lon="-1.36466">
        <ele>121</ele>
        <time>2015-03-18T14:53:01.000Z</time>
      </trkpt>
      <trkpt lat="47.32458" lon="-1.36466">
        <ele>121</ele>
        <time>2015-03-18T14:53:03.000Z</time>
      </trkpt>
      <trkpt lat="47.3246" lon="-1.36452">
        <ele>120</ele>
        <time>2015-03-18T14:53:05.000Z</time>
      </trkpt>
      <trkpt lat="47.32462" lon="-1.3644">
        <ele>121</ele>
        <time>2015-03-18T14:53:09.000Z</time>
      </trkpt>
      <trkpt lat="47.32462" lon="-1.3644">
        <ele>121</ele>
        <time>2015-03-18T14:53:11.000Z</time>
      </trkpt>
      <trkpt lat="47.32462" lon="-1.36425">
        <ele>122</ele>
        <time>2015-03-18T14:53:13.000Z</time>
      </trkpt>
      <trkpt lat="47.32463" lon="-1.36415">
        <ele>119</ele>
        <time>2015-03-18T14:53:15.000Z</time>
      </trkpt>
      <trkpt lat="47.32465" lon="-1.36405">
        <ele>120</ele>
        <time>2015-03-18T14:53:17.000Z</time>
      </trkpt>
      <trkpt lat="47.32465" lon="-1.36394">
        <ele>124</ele>
        <time>2015-03-18T14:53:19.000Z</time>
      </trkpt>
      <trkpt lat="47.32465" lon="-1.36385">
        <ele>125</ele>
        <time>2015-03-18T14:53:21.000Z</time>
      </trkpt>
      <trkpt lat="47.32465" lon="-1.36377">
        <ele>122</ele>
        <time>2015-03-18T14:53:23.000Z</time>
      </trkpt>
      <trkpt lat="47.32465" lon="-1.36377">
        <ele>122</ele>
        <time>2015-03-18T14:53:25.000Z</time>
      </trkpt>
      <trkpt lat="47.32465" lon="-1.36365">
        <ele>124</ele>
        <time>2015-03-18T14:53:27.000Z</time>
      </trkpt>
      <trkpt lat="47.32465" lon="-1.36365">
        <ele>124</ele>
        <time>2015-03-18T14:53:29.000Z</time>
      </trkpt>
      <trkpt lat="47.32466" lon="-1.36355">
        <ele>125</ele>
        <time>2015-03-18T14:53:31.000Z</time>
      </trkpt>
      <trkpt lat="47.32466" lon="-1.3634">
        <ele>123</ele>
        <time>2015-03-18T14:53:35.000Z</time>
      </trkpt>
      <trkpt lat="47.3247" lon="-1.36324">
        <ele>122</ele>
        <time>2015-03-18T14:53:39.000Z</time>
      </trkpt>
      <trkpt lat="47.32472" lon="-1.36312">
        <ele>122</ele>
        <time>2015-03-18T14:53:43.000Z</time>
      </trkpt>
      <trkpt lat="47.32472" lon="-1.36312">
        <ele>122</ele>
        <time>2015-03-18T14:53:45.000Z</time>
      </trkpt>
      <trkpt lat="47.32472" lon="-1.36312">
        <ele>122</ele>
        <time>2015-03-18T14:53:47.000Z</time>
      </trkpt>
      <trkpt lat="47.32475" lon="-1.36304">
        <ele>123</ele>
        <time>2015-03-18T14:53:49.000Z</time>
      </trkpt>
      <trkpt lat="47.32475" lon="-1.36304">
        <ele>123</ele>
        <time>2015-03-18T14:53:51.000Z</time>
      </trkpt>
      <trkpt lat="47.32475" lon="-1.36304">
        <ele>123</ele>
        <time>2015-03-18T14:53:53.000Z</time>
      </trkpt>
      <trkpt lat="47.32483" lon="-1.36288">
        <ele>116</ele>
        <time>2015-03-18T14:54:56.000Z</time>
      </trkpt>
      <trkpt lat="47.32488" lon="-1.36277">
        <ele>116</ele>
        <time>2015-03-18T14:54:58.000Z</time>
      </trkpt>
      <trkpt lat="47.32492" lon="-1.36268">
        <ele>116</ele>
        <time>2015-03-18T14:55:00.000Z</time>
      </trkpt>
      <trkpt lat="47.32494" lon="-1.36262">
        <ele>115</ele>
        <time>2015-03-18T14:55:02.000Z</time>
      </trkpt>
      <trkpt lat="47.32496" lon="-1.36256">
        <ele>114</ele>
        <time>2015-03-18T14:55:04.000Z</time>
      </trkpt>
      <trkpt lat="47.325" lon="-1.36245">
        <ele>114</ele>
        <time>2015-03-18T14:55:06.000Z</time>
      </trkpt>
      <trkpt lat="47.325" lon="-1.36245">
        <ele>114</ele>
        <time>2015-03-18T14:55:08.000Z</time>
      </trkpt>
      <trkpt lat="47.32505" lon="-1.36231">
        <ele>113</ele>
        <time>2015-03-18T14:55:10.000Z</time>
      </trkpt>
      <trkpt lat="47.32507" lon="-1.36221">
        <ele>112</ele>
        <time>2015-03-18T14:55:12.000Z</time>
      </trkpt>
      <trkpt lat="47.3251" lon="-1.36205">
        <ele>112</ele>
        <time>2015-03-18T14:55:16.000Z</time>
      </trkpt>
      <trkpt lat="47.32512" lon="-1.36192">
        <ele>112</ele>
        <time>2015-03-18T14:55:18.000Z</time>
      </trkpt>
      <trkpt lat="47.32515" lon="-1.36176">
        <ele>112</ele>
        <time>2015-03-18T14:55:20.000Z</time>
      </trkpt>
      <trkpt lat="47.32522" lon="-1.36155">
        <ele>111</ele>
        <time>2015-03-18T14:55:22.000Z</time>
      </trkpt>
      <trkpt lat="47.32531" lon="-1.36134">
        <ele>108</ele>
        <time>2015-03-18T14:55:27.000Z</time>
      </trkpt>
      <trkpt lat="47.32539" lon="-1.36126">
        <ele>106</ele>
        <time>2015-03-18T14:55:29.000Z</time>
      </trkpt>
      <trkpt lat="47.32542" lon="-1.36117">
        <ele>99</ele>
        <time>2015-03-18T14:55:31.000Z</time>
      </trkpt>
      <trkpt lat="47.32547" lon="-1.3611">
        <ele>98</ele>
        <time>2015-03-18T14:55:33.000Z</time>
      </trkpt>
      <trkpt lat="47.32547" lon="-1.3611">
        <ele>98</ele>
        <time>2015-03-18T14:55:35.000Z</time>
      </trkpt>
      <trkpt lat="47.32556" lon="-1.36101">
        <ele>97</ele>
        <time>2015-03-18T14:55:37.000Z</time>
      </trkpt>
      <trkpt lat="47.32556" lon="-1.36101">
        <ele>97</ele>
        <time>2015-03-18T14:55:39.000Z</time>
      </trkpt>
      <trkpt lat="47.32563" lon="-1.36095">
        <ele>94</ele>
        <time>2015-03-18T14:55:41.000Z</time>
      </trkpt>
      <trkpt lat="47.32563" lon="-1.36095">
        <ele>94</ele>
        <time>2015-03-18T14:55:43.000Z</time>
      </trkpt>
      <trkpt lat="47.32563" lon="-1.36095">
        <ele>94</ele>
        <time>2015-03-18T14:55:45.000Z</time>
      </trkpt>
      <trkpt lat="47.32566" lon="-1.36084">
        <ele>92</ele>
        <time>2015-03-18T14:55:47.000Z</time>
      </trkpt>
      <trkpt lat="47.32561" lon="-1.36073">
        <ele>90</ele>
        <time>2015-03-18T14:55:51.000Z</time>
      </trkpt>
      <trkpt lat="47.32557" lon="-1.36064">
        <ele>91</ele>
        <time>2015-03-18T14:55:53.000Z</time>
      </trkpt>
      <trkpt lat="47.32556" lon="-1.36053">
        <ele>93</ele>
        <time>2015-03-18T14:55:57.000Z</time>
      </trkpt>
      <trkpt lat="47.32556" lon="-1.36053">
        <ele>93</ele>
        <time>2015-03-18T14:55:59.000Z</time>
      </trkpt>
      <trkpt lat="47.32556" lon="-1.36043">
        <ele>94</ele>
        <time>2015-03-18T14:56:01.000Z</time>
      </trkpt>
      <trkpt lat="47.32557" lon="-1.36026">
        <ele>93</ele>
        <time>2015-03-18T14:56:05.000Z</time>
      </trkpt>
      <trkpt lat="47.32557" lon="-1.36026">
        <ele>93</ele>
        <time>2015-03-18T14:56:07.000Z</time>
      </trkpt>
      <trkpt lat="47.32562" lon="-1.36018">
        <ele>97</ele>
        <time>2015-03-18T14:56:09.000Z</time>
      </trkpt>
      <trkpt lat="47.32562" lon="-1.36018">
        <ele>97</ele>
        <time>2015-03-18T14:56:11.000Z</time>
      </trkpt>
      <trkpt lat="47.32571" lon="-1.36017">
        <ele>109</ele>
        <time>2015-03-18T14:56:13.000Z</time>
      </trkpt>
      <trkpt lat="47.32571" lon="-1.36017">
        <ele>109</ele>
        <time>2015-03-18T14:56:15.000Z</time>
      </trkpt>
      <trkpt lat="47.32578" lon="-1.36018">
        <ele>111</ele>
        <time>2015-03-18T14:56:17.000Z</time>
      </trkpt>
      <trkpt lat="47.32578" lon="-1.36018">
        <ele>111</ele>
        <time>2015-03-18T14:56:19.000Z</time>
      </trkpt>
      <trkpt lat="47.32585" lon="-1.36019">
        <ele>108</ele>
        <time>2015-03-18T14:56:21.000Z</time>
      </trkpt>
      <trkpt lat="47.32585" lon="-1.36019">
        <ele>108</ele>
        <time>2015-03-18T14:56:23.000Z</time>
      </trkpt>
      <trkpt lat="47.32592" lon="-1.36022">
        <ele>107</ele>
        <time>2015-03-18T14:56:25.000Z</time>
      </trkpt>
      <trkpt lat="47.32597" lon="-1.36035">
        <ele>105</ele>
        <time>2015-03-18T14:56:29.000Z</time>
      </trkpt>
      <trkpt lat="47.32606" lon="-1.36043">
        <ele>103</ele>
        <time>2015-03-18T14:56:33.000Z</time>
      </trkpt>
      <trkpt lat="47.32613" lon="-1.36048">
        <ele>102</ele>
        <time>2015-03-18T14:56:35.000Z</time>
      </trkpt>
      <trkpt lat="47.32619" lon="-1.36052">
        <ele>106</ele>
        <time>2015-03-18T14:56:37.000Z</time>
      </trkpt>
      <trkpt lat="47.32626" lon="-1.36055">
        <ele>104</ele>
        <time>2015-03-18T14:56:39.000Z</time>
      </trkpt>
      <trkpt lat="47.32626" lon="-1.36055">
        <ele>104</ele>
        <time>2015-03-18T14:56:41.000Z</time>
      </trkpt>
      <trkpt lat="47.32634" lon="-1.36063">
        <ele>106</ele>
        <time>2015-03-18T14:56:43.000Z</time>
      </trkpt>
      <trkpt lat="47.32634" lon="-1.36063">
        <ele>106</ele>
        <time>2015-03-18T14:56:45.000Z</time>
      </trkpt>
      <trkpt lat="47.32639" lon="-1.36073">
        <ele>108</ele>
        <time>2015-03-18T14:56:47.000Z</time>
      </trkpt>
      <trkpt lat="47.32644" lon="-1.36087">
        <ele>107</ele>
        <time>2015-03-18T14:56:51.000Z</time>
      </trkpt>
      <trkpt lat="47.32648" lon="-1.36094">
        <ele>106</ele>
        <time>2015-03-18T14:56:53.000Z</time>
      </trkpt>
      <trkpt lat="47.32653" lon="-1.36099">
        <ele>106</ele>
        <time>2015-03-18T14:56:55.000Z</time>
      </trkpt>
      <trkpt lat="47.32657" lon="-1.36104">
        <ele>109</ele>
        <time>2015-03-18T14:56:57.000Z</time>
      </trkpt>
      <trkpt lat="47.32664" lon="-1.36114">
        <ele>109</ele>
        <time>2015-03-18T14:57:01.000Z</time>
      </trkpt>
      <trkpt lat="47.32664" lon="-1.36114">
        <ele>109</ele>
        <time>2015-03-18T14:57:03.000Z</time>
      </trkpt>
      <trkpt lat="47.32671" lon="-1.36125">
        <ele>108</ele>
        <time>2015-03-18T14:57:05.000Z</time>
      </trkpt>
      <trkpt lat="47.32671" lon="-1.36125">
        <ele>108</ele>
        <time>2015-03-18T14:57:07.000Z</time>
      </trkpt>
      <trkpt lat="47.32677" lon="-1.36137">
        <ele>114</ele>
        <time>2015-03-18T14:57:09.000Z</time>
      </trkpt>
      <trkpt lat="47.32677" lon="-1.36137">
        <ele>114</ele>
        <time>2015-03-18T14:57:11.000Z</time>
      </trkpt>
      <trkpt lat="47.32684" lon="-1.36148">
        <ele>114</ele>
        <time>2015-03-18T14:57:13.000Z</time>
      </trkpt>
      <trkpt lat="47.32684" lon="-1.36148">
        <ele>114</ele>
        <time>2015-03-18T14:57:15.000Z</time>
      </trkpt>
      <trkpt lat="47.32687" lon="-1.36159">
        <ele>111</ele>
        <time>2015-03-18T14:57:17.000Z</time>
      </trkpt>
      <trkpt lat="47.32687" lon="-1.36159">
        <ele>111</ele>
        <time>2015-03-18T14:57:19.000Z</time>
      </trkpt>
      <trkpt lat="47.32694" lon="-1.36172">
        <ele>109</ele>
        <time>2015-03-18T14:57:21.000Z</time>
      </trkpt>
      <trkpt lat="47.32694" lon="-1.36172">
        <ele>109</ele>
        <time>2015-03-18T14:57:23.000Z</time>
      </trkpt>
      <trkpt lat="47.32701" lon="-1.3618">
        <ele>108</ele>
        <time>2015-03-18T14:57:25.000Z</time>
      </trkpt>
      <trkpt lat="47.32701" lon="-1.3618">
        <ele>108</ele>
        <time>2015-03-18T14:57:27.000Z</time>
      </trkpt>
      <trkpt lat="47.32708" lon="-1.36188">
        <ele>107</ele>
        <time>2015-03-18T14:57:29.000Z</time>
      </trkpt>
      <trkpt lat="47.32716" lon="-1.36202">
        <ele>105</ele>
        <time>2015-03-18T14:57:33.000Z</time>
      </trkpt>
      <trkpt lat="47.32723" lon="-1.3621">
        <ele>104</ele>
        <time>2015-03-18T14:57:35.000Z</time>
      </trkpt>
      <trkpt lat="47.32729" lon="-1.36215">
        <ele>106</ele>
        <time>2015-03-18T14:57:37.000Z</time>
      </trkpt>
      <trkpt lat="47.32732" lon="-1.3622">
        <ele>106</ele>
        <time>2015-03-18T14:57:41.000Z</time>
      </trkpt>
      <trkpt lat="47.32735" lon="-1.36224">
        <ele>104</ele>
        <time>2015-03-18T14:57:43.000Z</time>
      </trkpt>
      <trkpt lat="47.3274" lon="-1.36228">
        <ele>105</ele>
        <time>2015-03-18T14:57:45.000Z</time>
      </trkpt>
      <trkpt lat="47.32745" lon="-1.36232">
        <ele>105</ele>
        <time>2015-03-18T14:57:47.000Z</time>
      </trkpt>
      <trkpt lat="47.3275" lon="-1.36235">
        <ele>105</ele>
        <time>2015-03-18T14:57:49.000Z</time>
      </trkpt>
      <trkpt lat="47.32758" lon="-1.36242">
        <ele>105</ele>
        <time>2015-03-18T14:57:51.000Z</time>
      </trkpt>
      <trkpt lat="47.32767" lon="-1.36252">
        <ele>109</ele>
        <time>2015-03-18T14:57:55.000Z</time>
      </trkpt>
      <trkpt lat="47.32773" lon="-1.36257">
        <ele>110</ele>
        <time>2015-03-18T14:57:57.000Z</time>
      </trkpt>
      <trkpt lat="47.32782" lon="-1.36265">
        <ele>113</ele>
        <time>2015-03-18T14:58:01.000Z</time>
      </trkpt>
      <trkpt lat="47.32789" lon="-1.36275">
        <ele>109</ele>
        <time>2015-03-18T14:58:05.000Z</time>
      </trkpt>
      <trkpt lat="47.32789" lon="-1.36275">
        <ele>109</ele>
        <time>2015-03-18T14:58:07.000Z</time>
      </trkpt>
      <trkpt lat="47.32796" lon="-1.3629">
        <ele>106</ele>
        <time>2015-03-18T14:58:09.000Z</time>
      </trkpt>
      <trkpt lat="47.32802" lon="-1.363">
        <ele>103</ele>
        <time>2015-03-18T14:58:11.000Z</time>
      </trkpt>
      <trkpt lat="47.32806" lon="-1.36307">
        <ele>102</ele>
        <time>2015-03-18T14:58:13.000Z</time>
      </trkpt>
      <trkpt lat="47.32814" lon="-1.36318">
        <ele>101</ele>
        <time>2015-03-18T14:58:17.000Z</time>
      </trkpt>
      <trkpt lat="47.32814" lon="-1.36318">
        <ele>101</ele>
        <time>2015-03-18T14:58:19.000Z</time>
      </trkpt>
      <trkpt lat="47.3282" lon="-1.36326">
        <ele>101</ele>
        <time>2015-03-18T14:58:21.000Z</time>
      </trkpt>
      <trkpt lat="47.3282" lon="-1.36326">
        <ele>101</ele>
        <time>2015-03-18T14:58:23.000Z</time>
      </trkpt>
      <trkpt lat="47.3282" lon="-1.36326">
        <ele>101</ele>
        <time>2015-03-18T14:58:25.000Z</time>
      </trkpt>
      <trkpt lat="47.3282" lon="-1.36326">
        <ele>101</ele>
        <time>2015-03-18T14:58:27.000Z</time>
      </trkpt>
      <trkpt lat="47.32825" lon="-1.36334">
        <ele>99</ele>
        <time>2015-03-18T14:58:31.000Z</time>
      </trkpt>
      <trkpt lat="47.32825" lon="-1.36334">
        <ele>99</ele>
        <time>2015-03-18T14:58:33.000Z</time>
      </trkpt>
      <trkpt lat="47.32825" lon="-1.36334">
        <ele>99</ele>
        <time>2015-03-18T14:58:35.000Z</time>
      </trkpt>
      <trkpt lat="47.32841" lon="-1.36367">
        <ele>102</ele>
        <time>2015-03-18T14:58:55.000Z</time>
      </trkpt>
      <trkpt lat="47.32845" lon="-1.36377">
        <ele>103</ele>
        <time>2015-03-18T14:58:57.000Z</time>
      </trkpt>
      <trkpt lat="47.32849" lon="-1.36388">
        <ele>102</ele>
        <time>2015-03-18T14:58:59.000Z</time>
      </trkpt>
      <trkpt lat="47.32854" lon="-1.364">
        <ele>101</ele>
        <time>2015-03-18T14:59:01.000Z</time>
      </trkpt>
      <trkpt lat="47.3286" lon="-1.36433">
        <ele>101</ele>
        <time>2015-03-18T14:59:04.000Z</time>
      </trkpt>
      <trkpt lat="47.32861" lon="-1.3645">
        <ele>100</ele>
        <time>2015-03-18T14:59:09.000Z</time>
      </trkpt>
      <trkpt lat="47.32864" lon="-1.36466">
        <ele>99</ele>
        <time>2015-03-18T14:59:13.000Z</time>
      </trkpt>
      <trkpt lat="47.32866" lon="-1.36474">
        <ele>101</ele>
        <time>2015-03-18T14:59:15.000Z</time>
      </trkpt>
      <trkpt lat="47.32869" lon="-1.36483">
        <ele>103</ele>
        <time>2015-03-18T14:59:17.000Z</time>
      </trkpt>
      <trkpt lat="47.32872" lon="-1.36492">
        <ele>100</ele>
        <time>2015-03-18T14:59:19.000Z</time>
      </trkpt>
      <trkpt lat="47.32875" lon="-1.36503">
        <ele>106</ele>
        <time>2015-03-18T14:59:21.000Z</time>
      </trkpt>
      <trkpt lat="47.32878" lon="-1.36514">
        <ele>106</ele>
        <time>2015-03-18T14:59:23.000Z</time>
      </trkpt>
      <trkpt lat="47.32881" lon="-1.36522">
        <ele>106</ele>
        <time>2015-03-18T14:59:25.000Z</time>
      </trkpt>
      <trkpt lat="47.32885" lon="-1.36529">
        <ele>109</ele>
        <time>2015-03-18T14:59:27.000Z</time>
      </trkpt>
      <trkpt lat="47.32891" lon="-1.36535">
        <ele>110</ele>
        <time>2015-03-18T14:59:29.000Z</time>
      </trkpt>
      <trkpt lat="47.32899" lon="-1.36542">
        <ele>110</ele>
        <time>2015-03-18T14:59:31.000Z</time>
      </trkpt>
      <trkpt lat="47.32906" lon="-1.36547">
        <ele>109</ele>
        <time>2015-03-18T14:59:33.000Z</time>
      </trkpt>
      <trkpt lat="47.32913" lon="-1.36553">
        <ele>108</ele>
        <time>2015-03-18T14:59:35.000Z</time>
      </trkpt>
      <trkpt lat="47.32913" lon="-1.36553">
        <ele>108</ele>
        <time>2015-03-18T14:59:37.000Z</time>
      </trkpt>
      <trkpt lat="47.32922" lon="-1.36563">
        <ele>107</ele>
        <time>2015-03-18T14:59:39.000Z</time>
      </trkpt>
      <trkpt lat="47.32929" lon="-1.36572">
        <ele>107</ele>
        <time>2015-03-18T14:59:41.000Z</time>
      </trkpt>
      <trkpt lat="47.32937" lon="-1.36581">
        <ele>105</ele>
        <time>2015-03-18T14:59:43.000Z</time>
      </trkpt>
      <trkpt lat="47.32944" lon="-1.36591">
        <ele>104</ele>
        <time>2015-03-18T14:59:45.000Z</time>
      </trkpt>
      <trkpt lat="47.32949" lon="-1.366">
        <ele>103</ele>
        <time>2015-03-18T14:59:47.000Z</time>
      </trkpt>
      <trkpt lat="47.32955" lon="-1.36609">
        <ele>106</ele>
        <time>2015-03-18T14:59:49.000Z</time>
      </trkpt>
      <trkpt lat="47.32959" lon="-1.36615">
        <ele>103</ele>
        <time>2015-03-18T14:59:51.000Z</time>
      </trkpt>
      <trkpt lat="47.32959" lon="-1.36615">
        <ele>103</ele>
        <time>2015-03-18T14:59:53.000Z</time>
      </trkpt>
      <trkpt lat="47.32964" lon="-1.36632">
        <ele>103</ele>
        <time>2015-03-18T14:59:55.000Z</time>
      </trkpt>
      <trkpt lat="47.32968" lon="-1.36639">
        <ele>102</ele>
        <time>2015-03-18T14:59:57.000Z</time>
      </trkpt>
      <trkpt lat="47.32972" lon="-1.36649">
        <ele>107</ele>
        <time>2015-03-18T14:59:59.000Z</time>
      </trkpt>
      <trkpt lat="47.32981" lon="-1.36665">
        <ele>106</ele>
        <time>2015-03-18T15:00:03.000Z</time>
      </trkpt>
      <trkpt lat="47.32988" lon="-1.36676">
        <ele>104</ele>
        <time>2015-03-18T15:00:05.000Z</time>
      </trkpt>
      <trkpt lat="47.32994" lon="-1.36686">
        <ele>104</ele>
        <time>2015-03-18T15:00:07.000Z</time>
      </trkpt>
      <trkpt lat="47.33002" lon="-1.36697">
        <ele>103</ele>
        <time>2015-03-18T15:00:09.000Z</time>
      </trkpt>
      <trkpt lat="47.33008" lon="-1.36704">
        <ele>103</ele>
        <time>2015-03-18T15:00:11.000Z</time>
      </trkpt>
      <trkpt lat="47.33015" lon="-1.36714">
        <ele>103</ele>
        <time>2015-03-18T15:00:13.000Z</time>
      </trkpt>
      <trkpt lat="47.3302" lon="-1.36723">
        <ele>105</ele>
        <time>2015-03-18T15:00:15.000Z</time>
      </trkpt>
      <trkpt lat="47.33024" lon="-1.36731">
        <ele>103</ele>
        <time>2015-03-18T15:00:17.000Z</time>
      </trkpt>
      <trkpt lat="47.33024" lon="-1.36731">
        <ele>103</ele>
        <time>2015-03-18T15:00:19.000Z</time>
      </trkpt>
      <trkpt lat="47.33029" lon="-1.36742">
        <ele>102</ele>
        <time>2015-03-18T15:00:21.000Z</time>
      </trkpt>
      <trkpt lat="47.33029" lon="-1.36742">
        <ele>102</ele>
        <time>2015-03-18T15:00:23.000Z</time>
      </trkpt>
      <trkpt lat="47.33037" lon="-1.36751">
        <ele>101</ele>
        <time>2015-03-18T15:00:25.000Z</time>
      </trkpt>
      <trkpt lat="47.33043" lon="-1.36755">
        <ele>104</ele>
        <time>2015-03-18T15:00:27.000Z</time>
      </trkpt>
      <trkpt lat="47.33051" lon="-1.36764">
        <ele>106</ele>
        <time>2015-03-18T15:00:31.000Z</time>
      </trkpt>
      <trkpt lat="47.33051" lon="-1.36764">
        <ele>106</ele>
        <time>2015-03-18T15:00:33.000Z</time>
      </trkpt>
      <trkpt lat="47.33058" lon="-1.3677">
        <ele>107</ele>
        <time>2015-03-18T15:00:35.000Z</time>
      </trkpt>
      <trkpt lat="47.33058" lon="-1.3677">
        <ele>107</ele>
        <time>2015-03-18T15:00:37.000Z</time>
      </trkpt>
      <trkpt lat="47.33062" lon="-1.36773">
        <ele>108</ele>
        <time>2015-03-18T15:00:39.000Z</time>
      </trkpt>
      <trkpt lat="47.33067" lon="-1.36776">
        <ele>110</ele>
        <time>2015-03-18T15:00:41.000Z</time>
      </trkpt>
      <trkpt lat="47.33073" lon="-1.3678">
        <ele>111</ele>
        <time>2015-03-18T15:00:43.000Z</time>
      </trkpt>
      <trkpt lat="47.3308" lon="-1.36785">
        <ele>107</ele>
        <time>2015-03-18T15:00:45.000Z</time>
      </trkpt>
      <trkpt lat="47.33088" lon="-1.36792">
        <ele>106</ele>
        <time>2015-03-18T15:00:47.000Z</time>
      </trkpt>
      <trkpt lat="47.33101" lon="-1.36804">
        <ele>106</ele>
        <time>2015-03-18T15:00:49.000Z</time>
      </trkpt>
      <trkpt lat="47.33106" lon="-1.36808">
        <ele>107</ele>
        <time>2015-03-18T15:00:51.000Z</time>
      </trkpt>
      <trkpt lat="47.33106" lon="-1.36808">
        <ele>107</ele>
        <time>2015-03-18T15:00:53.000Z</time>
      </trkpt>
      <trkpt lat="47.33115" lon="-1.36817">
        <ele>106</ele>
        <time>2015-03-18T15:00:55.000Z</time>
      </trkpt>
      <trkpt lat="47.33119" lon="-1.36822">
        <ele>107</ele>
        <time>2015-03-18T15:00:57.000Z</time>
      </trkpt>
      <trkpt lat="47.33125" lon="-1.36828">
        <ele>105</ele>
        <time>2015-03-18T15:00:59.000Z</time>
      </trkpt>
      <trkpt lat="47.3313" lon="-1.36835">
        <ele>103</ele>
        <time>2015-03-18T15:01:01.000Z</time>
      </trkpt>
      <trkpt lat="47.3313" lon="-1.36835">
        <ele>103</ele>
        <time>2015-03-18T15:01:03.000Z</time>
      </trkpt>
      <trkpt lat="47.33137" lon="-1.36847">
        <ele>104</ele>
        <time>2015-03-18T15:01:05.000Z</time>
      </trkpt>
      <trkpt lat="47.33137" lon="-1.36847">
        <ele>104</ele>
        <time>2015-03-18T15:01:07.000Z</time>
      </trkpt>
      <trkpt lat="47.33146" lon="-1.3686">
        <ele>104</ele>
        <time>2015-03-18T15:01:09.000Z</time>
      </trkpt>
      <trkpt lat="47.33151" lon="-1.36868">
        <ele>102</ele>
        <time>2015-03-18T15:01:11.000Z</time>
      </trkpt>
      <trkpt lat="47.33157" lon="-1.36873">
        <ele>99</ele>
        <time>2015-03-18T15:01:13.000Z</time>
      </trkpt>
      <trkpt lat="47.33157" lon="-1.36873">
        <ele>99</ele>
        <time>2015-03-18T15:01:15.000Z</time>
      </trkpt>
      <trkpt lat="47.33163" lon="-1.36881">
        <ele>97</ele>
        <time>2015-03-18T15:01:17.000Z</time>
      </trkpt>
      <trkpt lat="47.33163" lon="-1.36881">
        <ele>97</ele>
        <time>2015-03-18T15:01:19.000Z</time>
      </trkpt>
      <trkpt lat="47.33167" lon="-1.36888">
        <ele>93</ele>
        <time>2015-03-18T15:01:21.000Z</time>
      </trkpt>
      <trkpt lat="47.33167" lon="-1.36888">
        <ele>93</ele>
        <time>2015-03-18T15:01:23.000Z</time>
      </trkpt>
      <trkpt lat="47.33167" lon="-1.36888">
        <ele>93</ele>
        <time>2015-03-18T15:01:25.000Z</time>
      </trkpt>
      <trkpt lat="47.33167" lon="-1.36888">
        <ele>93</ele>
        <time>2015-03-18T15:01:27.000Z</time>
      </trkpt>
      <trkpt lat="47.33167" lon="-1.36888">
        <ele>93</ele>
        <time>2015-03-18T15:01:29.000Z</time>
      </trkpt>
      <trkpt lat="47.33167" lon="-1.36888">
        <ele>93</ele>
        <time>2015-03-18T15:01:31.000Z</time>
      </trkpt>
      <trkpt lat="47.33167" lon="-1.36888">
        <ele>93</ele>
        <time>2015-03-18T15:01:48.000Z</time>
      </trkpt>
      <trkpt lat="47.33196" lon="-1.36926">
        <ele>108</ele>
        <time>2015-03-18T15:02:56.000Z</time>
      </trkpt>
      <trkpt lat="47.33212" lon="-1.36947">
        <ele>109</ele>
        <time>2015-03-18T15:02:58.000Z</time>
      </trkpt>
      <trkpt lat="47.33222" lon="-1.36959">
        <ele>109</ele>
        <time>2015-03-18T15:03:00.000Z</time>
      </trkpt>
      <trkpt lat="47.33228" lon="-1.36967">
        <ele>110</ele>
        <time>2015-03-18T15:03:02.000Z</time>
      </trkpt>
      <trkpt lat="47.33231" lon="-1.36972">
        <ele>111</ele>
        <time>2015-03-18T15:03:04.000Z</time>
      </trkpt>
      <trkpt lat="47.33237" lon="-1.36984">
        <ele>110</ele>
        <time>2015-03-18T15:03:06.000Z</time>
      </trkpt>
      <trkpt lat="47.33243" lon="-1.36997">
        <ele>113</ele>
        <time>2015-03-18T15:03:10.000Z</time>
      </trkpt>
      <trkpt lat="47.33249" lon="-1.37004">
        <ele>114</ele>
        <time>2015-03-18T15:03:12.000Z</time>
      </trkpt>
      <trkpt lat="47.33257" lon="-1.37014">
        <ele>119</ele>
        <time>2015-03-18T15:03:16.000Z</time>
      </trkpt>
      <trkpt lat="47.33257" lon="-1.37014">
        <ele>119</ele>
        <time>2015-03-18T15:03:18.000Z</time>
      </trkpt>
      <trkpt lat="47.33264" lon="-1.37021">
        <ele>117</ele>
        <time>2015-03-18T15:03:20.000Z</time>
      </trkpt>
      <trkpt lat="47.33264" lon="-1.37021">
        <ele>117</ele>
        <time>2015-03-18T15:03:22.000Z</time>
      </trkpt>
      <trkpt lat="47.33269" lon="-1.37034">
        <ele>110</ele>
        <time>2015-03-18T15:03:24.000Z</time>
      </trkpt>
      <trkpt lat="47.33273" lon="-1.37045">
        <ele>109</ele>
        <time>2015-03-18T15:03:26.000Z</time>
      </trkpt>
      <trkpt lat="47.33277" lon="-1.37052">
        <ele>109</ele>
        <time>2015-03-18T15:03:28.000Z</time>
      </trkpt>
      <trkpt lat="47.33282" lon="-1.37059">
        <ele>111</ele>
        <time>2015-03-18T15:03:30.000Z</time>
      </trkpt>
      <trkpt lat="47.33286" lon="-1.37067">
        <ele>111</ele>
        <time>2015-03-18T15:03:32.000Z</time>
      </trkpt>
      <trkpt lat="47.33286" lon="-1.37067">
        <ele>111</ele>
        <time>2015-03-18T15:03:34.000Z</time>
      </trkpt>
      <trkpt lat="47.33285" lon="-1.37075">
        <ele>107</ele>
        <time>2015-03-18T15:03:36.000Z</time>
      </trkpt>
      <trkpt lat="47.33285" lon="-1.37075">
        <ele>107</ele>
        <time>2015-03-18T15:03:38.000Z</time>
      </trkpt>
      <trkpt lat="47.33285" lon="-1.37075">
        <ele>107</ele>
        <time>2015-03-18T15:03:40.000Z</time>
      </trkpt>
      <trkpt lat="47.3329" lon="-1.37085">
        <ele>106</ele>
        <time>2015-03-18T15:03:42.000Z</time>
      </trkpt>
      <trkpt lat="47.33297" lon="-1.37087">
        <ele>107</ele>
        <time>2015-03-18T15:03:44.000Z</time>
      </trkpt>
      <trkpt lat="47.33303" lon="-1.3709">
        <ele>107</ele>
        <time>2015-03-18T15:03:46.000Z</time>
      </trkpt>
      <trkpt lat="47.33303" lon="-1.3709">
        <ele>107</ele>
        <time>2015-03-18T15:03:48.000Z</time>
      </trkpt>
      <trkpt lat="47.33303" lon="-1.3709">
        <ele>107</ele>
        <time>2015-03-18T15:03:50.000Z</time>
      </trkpt>
      <trkpt lat="47.33305" lon="-1.37098">
        <ele>108</ele>
        <time>2015-03-18T15:03:52.000Z</time>
      </trkpt>
      <trkpt lat="47.3331" lon="-1.37106">
        <ele>109</ele>
        <time>2015-03-18T15:03:56.000Z</time>
      </trkpt>
      <trkpt lat="47.33315" lon="-1.3712">
        <ele>107</ele>
        <time>2015-03-18T15:04:00.000Z</time>
      </trkpt>
      <trkpt lat="47.33315" lon="-1.3713">
        <ele>104</ele>
        <time>2015-03-18T15:04:02.000Z</time>
      </trkpt>
      <trkpt lat="47.33314" lon="-1.37142">
        <ele>102</ele>
        <time>2015-03-18T15:04:04.000Z</time>
      </trkpt>
      <trkpt lat="47.33315" lon="-1.37157">
        <ele>101</ele>
        <time>2015-03-18T15:04:08.000Z</time>
      </trkpt>
      <trkpt lat="47.33316" lon="-1.37166">
        <ele>100</ele>
        <time>2015-03-18T15:04:10.000Z</time>
      </trkpt>
      <trkpt lat="47.33316" lon="-1.37166">
        <ele>100</ele>
        <time>2015-03-18T15:04:12.000Z</time>
      </trkpt>
      <trkpt lat="47.33322" lon="-1.37178">
        <ele>108</ele>
        <time>2015-03-18T15:04:14.000Z</time>
      </trkpt>
      <trkpt lat="47.33322" lon="-1.37178">
        <ele>108</ele>
        <time>2015-03-18T15:04:16.000Z</time>
      </trkpt>
      <trkpt lat="47.33327" lon="-1.37192">
        <ele>110</ele>
        <time>2015-03-18T15:04:18.000Z</time>
      </trkpt>
      <trkpt lat="47.3333" lon="-1.372">
        <ele>109</ele>
        <time>2015-03-18T15:04:20.000Z</time>
      </trkpt>
      <trkpt lat="47.33332" lon="-1.37209">
        <ele>110</ele>
        <time>2015-03-18T15:04:22.000Z</time>
      </trkpt>
      <trkpt lat="47.3334" lon="-1.37221">
        <ele>113</ele>
        <time>2015-03-18T15:04:26.000Z</time>
      </trkpt>
      <trkpt lat="47.33348" lon="-1.37237">
        <ele>112</ele>
        <time>2015-03-18T15:04:30.000Z</time>
      </trkpt>
      <trkpt lat="47.33352" lon="-1.37247">
        <ele>110</ele>
        <time>2015-03-18T15:04:32.000Z</time>
      </trkpt>
      <trkpt lat="47.33355" lon="-1.37254">
        <ele>109</ele>
        <time>2015-03-18T15:04:34.000Z</time>
      </trkpt>
      <trkpt lat="47.33359" lon="-1.37262">
        <ele>109</ele>
        <time>2015-03-18T15:04:36.000Z</time>
      </trkpt>
      <trkpt lat="47.33363" lon="-1.37271">
        <ele>110</ele>
        <time>2015-03-18T15:04:38.000Z</time>
      </trkpt>
      <trkpt lat="47.33371" lon="-1.3728">
        <ele>121</ele>
        <time>2015-03-18T15:04:42.000Z</time>
      </trkpt>
      <trkpt lat="47.33371" lon="-1.3728">
        <ele>121</ele>
        <time>2015-03-18T15:04:44.000Z</time>
      </trkpt>
      <trkpt lat="47.33373" lon="-1.37293">
        <ele>114</ele>
        <time>2015-03-18T15:04:46.000Z</time>
      </trkpt>
      <trkpt lat="47.33373" lon="-1.37293">
        <ele>114</ele>
        <time>2015-03-18T15:04:48.000Z</time>
      </trkpt>
      <trkpt lat="47.33374" lon="-1.37301">
        <ele>117</ele>
        <time>2015-03-18T15:04:50.000Z</time>
      </trkpt>
      <trkpt lat="47.33374" lon="-1.37301">
        <ele>117</ele>
        <time>2015-03-18T15:04:52.000Z</time>
      </trkpt>
      <trkpt lat="47.33376" lon="-1.37316">
        <ele>117</ele>
        <time>2015-03-18T15:04:54.000Z</time>
      </trkpt>
      <trkpt lat="47.33377" lon="-1.37335">
        <ele>117</ele>
        <time>2015-03-18T15:04:58.000Z</time>
      </trkpt>
      <trkpt lat="47.33379" lon="-1.37352">
        <ele>117</ele>
        <time>2015-03-18T15:05:02.000Z</time>
      </trkpt>
      <trkpt lat="47.33379" lon="-1.37352">
        <ele>117</ele>
        <time>2015-03-18T15:05:04.000Z</time>
      </trkpt>
      <trkpt lat="47.33383" lon="-1.37369">
        <ele>115</ele>
        <time>2015-03-18T15:05:06.000Z</time>
      </trkpt>
      <trkpt lat="47.33383" lon="-1.37369">
        <ele>115</ele>
        <time>2015-03-18T15:05:08.000Z</time>
      </trkpt>
      <trkpt lat="47.33385" lon="-1.37383">
        <ele>112</ele>
        <time>2015-03-18T15:05:10.000Z</time>
      </trkpt>
      <trkpt lat="47.33385" lon="-1.37383">
        <ele>112</ele>
        <time>2015-03-18T15:05:12.000Z</time>
      </trkpt>
      <trkpt lat="47.33391" lon="-1.37396">
        <ele>103</ele>
        <time>2015-03-18T15:05:14.000Z</time>
      </trkpt>
      <trkpt lat="47.33397" lon="-1.37407">
        <ele>103</ele>
        <time>2015-03-18T15:05:18.000Z</time>
      </trkpt>
      <trkpt lat="47.33397" lon="-1.37407">
        <ele>103</ele>
        <time>2015-03-18T15:05:20.000Z</time>
      </trkpt>
      <trkpt lat="47.33401" lon="-1.37415">
        <ele>104</ele>
        <time>2015-03-18T15:05:22.000Z</time>
      </trkpt>
      <trkpt lat="47.3341" lon="-1.37425">
        <ele>106</ele>
        <time>2015-03-18T15:05:26.000Z</time>
      </trkpt>
      <trkpt lat="47.33415" lon="-1.37431">
        <ele>103</ele>
        <time>2015-03-18T15:05:28.000Z</time>
      </trkpt>
      <trkpt lat="47.33425" lon="-1.37445">
        <ele>104</ele>
        <time>2015-03-18T15:05:32.000Z</time>
      </trkpt>
      <trkpt lat="47.33425" lon="-1.37445">
        <ele>104</ele>
        <time>2015-03-18T15:05:36.000Z</time>
      </trkpt>
      <trkpt lat="47.33427" lon="-1.37449">
        <ele>110</ele>
        <time>2015-03-18T15:05:38.000Z</time>
      </trkpt>
      <trkpt lat="47.33427" lon="-1.37449">
        <ele>110</ele>
        <time>2015-03-18T15:05:40.000Z</time>
      </trkpt>
      <trkpt lat="47.33427" lon="-1.37449">
        <ele>110</ele>
        <time>2015-03-18T15:05:42.000Z</time>
      </trkpt>
      <trkpt lat="47.33427" lon="-1.37449">
        <ele>110</ele>
        <time>2015-03-18T15:05:44.000Z</time>
      </trkpt>
      <trkpt lat="47.33427" lon="-1.37449">
        <ele>110</ele>
        <time>2015-03-18T15:05:46.000Z</time>
      </trkpt>
      <trkpt lat="47.33441" lon="-1.37453">
        <ele>112</ele>
        <time>2015-03-18T15:07:06.000Z</time>
      </trkpt>
      <trkpt lat="47.3345" lon="-1.37455">
        <ele>113</ele>
        <time>2015-03-18T15:07:08.000Z</time>
      </trkpt>
      <trkpt lat="47.33457" lon="-1.37455">
        <ele>114</ele>
        <time>2015-03-18T15:07:10.000Z</time>
      </trkpt>
      <trkpt lat="47.33463" lon="-1.37455">
        <ele>116</ele>
        <time>2015-03-18T15:07:12.000Z</time>
      </trkpt>
      <trkpt lat="47.33467" lon="-1.37456">
        <ele>116</ele>
        <time>2015-03-18T15:07:14.000Z</time>
      </trkpt>
      <trkpt lat="47.33476" lon="-1.37459">
        <ele>115</ele>
        <time>2015-03-18T15:07:16.000Z</time>
      </trkpt>
      <trkpt lat="47.33483" lon="-1.3746">
        <ele>114</ele>
        <time>2015-03-18T15:07:18.000Z</time>
      </trkpt>
      <trkpt lat="47.33489" lon="-1.37461">
        <ele>112</ele>
        <time>2015-03-18T15:07:20.000Z</time>
      </trkpt>
      <trkpt lat="47.335" lon="-1.37461">
        <ele>112</ele>
        <time>2015-03-18T15:07:24.000Z</time>
      </trkpt>
      <trkpt lat="47.335" lon="-1.37461">
        <ele>112</ele>
        <time>2015-03-18T15:07:26.000Z</time>
      </trkpt>
      <trkpt lat="47.33508" lon="-1.37462">
        <ele>114</ele>
        <time>2015-03-18T15:07:28.000Z</time>
      </trkpt>
      <trkpt lat="47.33508" lon="-1.37462">
        <ele>114</ele>
        <time>2015-03-18T15:07:30.000Z</time>
      </trkpt>
      <trkpt lat="47.33516" lon="-1.37458">
        <ele>113</ele>
        <time>2015-03-18T15:07:32.000Z</time>
      </trkpt>
      <trkpt lat="47.33525" lon="-1.37455">
        <ele>114</ele>
        <time>2015-03-18T15:07:36.000Z</time>
      </trkpt>
      <trkpt lat="47.33531" lon="-1.37451">
        <ele>113</ele>
        <time>2015-03-18T15:07:38.000Z</time>
      </trkpt>
      <trkpt lat="47.33537" lon="-1.37445">
        <ele>114</ele>
        <time>2015-03-18T15:07:40.000Z</time>
      </trkpt>
      <trkpt lat="47.33541" lon="-1.37439">
        <ele>115</ele>
        <time>2015-03-18T15:07:42.000Z</time>
      </trkpt>
      <trkpt lat="47.33545" lon="-1.37432">
        <ele>113</ele>
        <time>2015-03-18T15:07:44.000Z</time>
      </trkpt>
      <trkpt lat="47.3355" lon="-1.37426">
        <ele>112</ele>
        <time>2015-03-18T15:07:46.000Z</time>
      </trkpt>
      <trkpt lat="47.33553" lon="-1.37419">
        <ele>113</ele>
        <time>2015-03-18T15:07:48.000Z</time>
      </trkpt>
      <trkpt lat="47.33557" lon="-1.37411">
        <ele>112</ele>
        <time>2015-03-18T15:07:50.000Z</time>
      </trkpt>
      <trkpt lat="47.33561" lon="-1.37404">
        <ele>112</ele>
        <time>2015-03-18T15:07:52.000Z</time>
      </trkpt>
      <trkpt lat="47.33565" lon="-1.37396">
        <ele>112</ele>
        <time>2015-03-18T15:07:54.000Z</time>
      </trkpt>
      <trkpt lat="47.33569" lon="-1.3739">
        <ele>112</ele>
        <time>2015-03-18T15:07:56.000Z</time>
      </trkpt>
      <trkpt lat="47.33569" lon="-1.3739">
        <ele>112</ele>
        <time>2015-03-18T15:07:58.000Z</time>
      </trkpt>
      <trkpt lat="47.33576" lon="-1.37379">
        <ele>112</ele>
        <time>2015-03-18T15:08:00.000Z</time>
      </trkpt>
      <trkpt lat="47.3358" lon="-1.37372">
        <ele>112</ele>
        <time>2015-03-18T15:08:02.000Z</time>
      </trkpt>
      <trkpt lat="47.33584" lon="-1.37365">
        <ele>112</ele>
        <time>2015-03-18T15:08:04.000Z</time>
      </trkpt>
      <trkpt lat="47.33589" lon="-1.37357">
        <ele>111</ele>
        <time>2015-03-18T15:08:06.000Z</time>
      </trkpt>
      <trkpt lat="47.33594" lon="-1.3735">
        <ele>112</ele>
        <time>2015-03-18T15:08:08.000Z</time>
      </trkpt>
      <trkpt lat="47.336" lon="-1.37343">
        <ele>112</ele>
        <time>2015-03-18T15:08:10.000Z</time>
      </trkpt>
      <trkpt lat="47.33606" lon="-1.37337">
        <ele>111</ele>
        <time>2015-03-18T15:08:12.000Z</time>
      </trkpt>
      <trkpt lat="47.33612" lon="-1.37332">
        <ele>111</ele>
        <time>2015-03-18T15:08:14.000Z</time>
      </trkpt>
      <trkpt lat="47.33618" lon="-1.37329">
        <ele>110</ele>
        <time>2015-03-18T15:08:16.000Z</time>
      </trkpt>
      <trkpt lat="47.33625" lon="-1.37328">
        <ele>111</ele>
        <time>2015-03-18T15:08:18.000Z</time>
      </trkpt>
      <trkpt lat="47.33631" lon="-1.37326">
        <ele>111</ele>
        <time>2015-03-18T15:08:20.000Z</time>
      </trkpt>
      <trkpt lat="47.33637" lon="-1.37324">
        <ele>110</ele>
        <time>2015-03-18T15:08:22.000Z</time>
      </trkpt>
      <trkpt lat="47.33644" lon="-1.37323">
        <ele>110</ele>
        <time>2015-03-18T15:08:24.000Z</time>
      </trkpt>
      <trkpt lat="47.33651" lon="-1.37322">
        <ele>110</ele>
        <time>2015-03-18T15:08:26.000Z</time>
      </trkpt>
      <trkpt lat="47.33657" lon="-1.3732">
        <ele>112</ele>
        <time>2015-03-18T15:08:28.000Z</time>
      </trkpt>
      <trkpt lat="47.33664" lon="-1.37318">
        <ele>113</ele>
        <time>2015-03-18T15:08:30.000Z</time>
      </trkpt>
      <trkpt lat="47.3367" lon="-1.37314">
        <ele>113</ele>
        <time>2015-03-18T15:08:32.000Z</time>
      </trkpt>
      <trkpt lat="47.33676" lon="-1.3731">
        <ele>114</ele>
        <time>2015-03-18T15:08:34.000Z</time>
      </trkpt>
      <trkpt lat="47.33681" lon="-1.37306">
        <ele>112</ele>
        <time>2015-03-18T15:08:36.000Z</time>
      </trkpt>
      <trkpt lat="47.33687" lon="-1.37301">
        <ele>113</ele>
        <time>2015-03-18T15:08:38.000Z</time>
      </trkpt>
      <trkpt lat="47.33692" lon="-1.37297">
        <ele>112</ele>
        <time>2015-03-18T15:08:40.000Z</time>
      </trkpt>
      <trkpt lat="47.33698" lon="-1.37292">
        <ele>112</ele>
        <time>2015-03-18T15:08:42.000Z</time>
      </trkpt>
      <trkpt lat="47.33704" lon="-1.37288">
        <ele>113</ele>
        <time>2015-03-18T15:08:44.000Z</time>
      </trkpt>
      <trkpt lat="47.3371" lon="-1.37285">
        <ele>114</ele>
        <time>2015-03-18T15:08:46.000Z</time>
      </trkpt>
      <trkpt lat="47.33716" lon="-1.37281">
        <ele>115</ele>
        <time>2015-03-18T15:08:48.000Z</time>
      </trkpt>
      <trkpt lat="47.33722" lon="-1.37279">
        <ele>116</ele>
        <time>2015-03-18T15:08:50.000Z</time>
      </trkpt>
      <trkpt lat="47.33728" lon="-1.37278">
        <ele>116</ele>
        <time>2015-03-18T15:08:52.000Z</time>
      </trkpt>
      <trkpt lat="47.33734" lon="-1.37278">
        <ele>115</ele>
        <time>2015-03-18T15:08:54.000Z</time>
      </trkpt>
      <trkpt lat="47.3374" lon="-1.37278">
        <ele>116</ele>
        <time>2015-03-18T15:08:56.000Z</time>
      </trkpt>
      <trkpt lat="47.33746" lon="-1.37279">
        <ele>117</ele>
        <time>2015-03-18T15:08:58.000Z</time>
      </trkpt>
      <trkpt lat="47.33746" lon="-1.37279">
        <ele>117</ele>
        <time>2015-03-18T15:09:00.000Z</time>
      </trkpt>
      <trkpt lat="47.33757" lon="-1.37279">
        <ele>118</ele>
        <time>2015-03-18T15:09:02.000Z</time>
      </trkpt>
      <trkpt lat="47.33757" lon="-1.37279">
        <ele>118</ele>
        <time>2015-03-18T15:09:04.000Z</time>
      </trkpt>
      <trkpt lat="47.33769" lon="-1.37281">
        <ele>119</ele>
        <time>2015-03-18T15:09:06.000Z</time>
      </trkpt>
      <trkpt lat="47.33776" lon="-1.3728">
        <ele>119</ele>
        <time>2015-03-18T15:09:08.000Z</time>
      </trkpt>
      <trkpt lat="47.33782" lon="-1.37279">
        <ele>121</ele>
        <time>2015-03-18T15:09:10.000Z</time>
      </trkpt>
      <trkpt lat="47.33788" lon="-1.37279">
        <ele>120</ele>
        <time>2015-03-18T15:09:12.000Z</time>
      </trkpt>
      <trkpt lat="47.33795" lon="-1.37279">
        <ele>120</ele>
        <time>2015-03-18T15:09:14.000Z</time>
      </trkpt>
      <trkpt lat="47.33801" lon="-1.37278">
        <ele>120</ele>
        <time>2015-03-18T15:09:16.000Z</time>
      </trkpt>
      <trkpt lat="47.33807" lon="-1.37278">
        <ele>121</ele>
        <time>2015-03-18T15:09:18.000Z</time>
      </trkpt>
      <trkpt lat="47.33814" lon="-1.37277">
        <ele>121</ele>
        <time>2015-03-18T15:09:20.000Z</time>
      </trkpt>
      <trkpt lat="47.3382" lon="-1.37277">
        <ele>122</ele>
        <time>2015-03-18T15:09:22.000Z</time>
      </trkpt>
      <trkpt lat="47.33826" lon="-1.37277">
        <ele>122</ele>
        <time>2015-03-18T15:09:24.000Z</time>
      </trkpt>
      <trkpt lat="47.33833" lon="-1.37277">
        <ele>123</ele>
        <time>2015-03-18T15:09:26.000Z</time>
      </trkpt>
      <trkpt lat="47.33839" lon="-1.37278">
        <ele>123</ele>
        <time>2015-03-18T15:09:28.000Z</time>
      </trkpt>
      <trkpt lat="47.33846" lon="-1.37278">
        <ele>122</ele>
        <time>2015-03-18T15:09:30.000Z</time>
      </trkpt>
      <trkpt lat="47.33852" lon="-1.37278">
        <ele>122</ele>
        <time>2015-03-18T15:09:32.000Z</time>
      </trkpt>
      <trkpt lat="47.33858" lon="-1.37278">
        <ele>123</ele>
        <time>2015-03-18T15:09:34.000Z</time>
      </trkpt>
      <trkpt lat="47.33865" lon="-1.37276">
        <ele>123</ele>
        <time>2015-03-18T15:09:36.000Z</time>
      </trkpt>
      <trkpt lat="47.33871" lon="-1.37274">
        <ele>124</ele>
        <time>2015-03-18T15:09:38.000Z</time>
      </trkpt>
      <trkpt lat="47.33878" lon="-1.37272">
        <ele>124</ele>
        <time>2015-03-18T15:09:40.000Z</time>
      </trkpt>
      <trkpt lat="47.33884" lon="-1.37269">
        <ele>124</ele>
        <time>2015-03-18T15:09:42.000Z</time>
      </trkpt>
      <trkpt lat="47.3389" lon="-1.37265">
        <ele>125</ele>
        <time>2015-03-18T15:09:44.000Z</time>
      </trkpt>
      <trkpt lat="47.33896" lon="-1.37261">
        <ele>124</ele>
        <time>2015-03-18T15:09:46.000Z</time>
      </trkpt>
      <trkpt lat="47.33902" lon="-1.37258">
        <ele>124</ele>
        <time>2015-03-18T15:09:48.000Z</time>
      </trkpt>
      <trkpt lat="47.33908" lon="-1.37254">
        <ele>124</ele>
        <time>2015-03-18T15:09:50.000Z</time>
      </trkpt>
      <trkpt lat="47.33915" lon="-1.3725">
        <ele>124</ele>
        <time>2015-03-18T15:09:52.000Z</time>
      </trkpt>
      <trkpt lat="47.33922" lon="-1.37246">
        <ele>124</ele>
        <time>2015-03-18T15:09:54.000Z</time>
      </trkpt>
      <trkpt lat="47.33928" lon="-1.37243">
        <ele>124</ele>
        <time>2015-03-18T15:09:56.000Z</time>
      </trkpt>
      <trkpt lat="47.33934" lon="-1.3724">
        <ele>123</ele>
        <time>2015-03-18T15:09:58.000Z</time>
      </trkpt>
      <trkpt lat="47.33939" lon="-1.37236">
        <ele>124</ele>
        <time>2015-03-18T15:10:00.000Z</time>
      </trkpt>
      <trkpt lat="47.33945" lon="-1.37234">
        <ele>125</ele>
        <time>2015-03-18T15:10:02.000Z</time>
      </trkpt>
      <trkpt lat="47.33945" lon="-1.37234">
        <ele>125</ele>
        <time>2015-03-18T15:10:04.000Z</time>
      </trkpt>
      <trkpt lat="47.33955" lon="-1.37238">
        <ele>124</ele>
        <time>2015-03-18T15:10:06.000Z</time>
      </trkpt>
      <trkpt lat="47.33955" lon="-1.37238">
        <ele>124</ele>
        <time>2015-03-18T15:10:08.000Z</time>
      </trkpt>
      <trkpt lat="47.33963" lon="-1.37248">
        <ele>123</ele>
        <time>2015-03-18T15:10:10.000Z</time>
      </trkpt>
      <trkpt lat="47.33963" lon="-1.37248">
        <ele>123</ele>
        <time>2015-03-18T15:10:12.000Z</time>
      </trkpt>
      <trkpt lat="47.3397" lon="-1.37254">
        <ele>131</ele>
        <time>2015-03-18T15:10:14.000Z</time>
      </trkpt>
      <trkpt lat="47.3397" lon="-1.37254">
        <ele>131</ele>
        <time>2015-03-18T15:10:16.000Z</time>
      </trkpt>
      <trkpt lat="47.33972" lon="-1.37262">
        <ele>138</ele>
        <time>2015-03-18T15:10:18.000Z</time>
      </trkpt>
      <trkpt lat="47.33972" lon="-1.37262">
        <ele>138</ele>
        <time>2015-03-18T15:10:20.000Z</time>
      </trkpt>
      <trkpt lat="47.33972" lon="-1.37262">
        <ele>138</ele>
        <time>2015-03-18T15:10:22.000Z</time>
      </trkpt>
      <trkpt lat="47.33977" lon="-1.37272">
        <ele>139</ele>
        <time>2015-03-18T15:10:24.000Z</time>
      </trkpt>
      <trkpt lat="47.33985" lon="-1.3728">
        <ele>140</ele>
        <time>2015-03-18T15:10:28.000Z</time>
      </trkpt>
      <trkpt lat="47.33988" lon="-1.37289">
        <ele>141</ele>
        <time>2015-03-18T15:10:30.000Z</time>
      </trkpt>
      <trkpt lat="47.33997" lon="-1.37301">
        <ele>138</ele>
        <time>2015-03-18T15:10:34.000Z</time>
      </trkpt>
      <trkpt lat="47.34002" lon="-1.37307">
        <ele>138</ele>
        <time>2015-03-18T15:10:36.000Z</time>
      </trkpt>
      <trkpt lat="47.34007" lon="-1.3732">
        <ele>140</ele>
        <time>2015-03-18T15:10:40.000Z</time>
      </trkpt>
      <trkpt lat="47.34007" lon="-1.3732">
        <ele>140</ele>
        <time>2015-03-18T15:10:42.000Z</time>
      </trkpt>
      <trkpt lat="47.34012" lon="-1.37333">
        <ele>138</ele>
        <time>2015-03-18T15:10:44.000Z</time>
      </trkpt>
      <trkpt lat="47.34012" lon="-1.37333">
        <ele>138</ele>
        <time>2015-03-18T15:10:46.000Z</time>
      </trkpt>
      <trkpt lat="47.34018" lon="-1.37345">
        <ele>139</ele>
        <time>2015-03-18T15:10:48.000Z</time>
      </trkpt>
      <trkpt lat="47.34023" lon="-1.37351">
        <ele>142</ele>
        <time>2015-03-18T15:10:50.000Z</time>
      </trkpt>
      <trkpt lat="47.34031" lon="-1.37364">
        <ele>143</ele>
        <time>2015-03-18T15:10:54.000Z</time>
      </trkpt>
      <trkpt lat="47.34035" lon="-1.37375">
        <ele>146</ele>
        <time>2015-03-18T15:10:58.000Z</time>
      </trkpt>
      <trkpt lat="47.34035" lon="-1.37375">
        <ele>146</ele>
        <time>2015-03-18T15:11:00.000Z</time>
      </trkpt>
      <trkpt lat="47.34045" lon="-1.37382">
        <ele>144</ele>
        <time>2015-03-18T15:11:02.000Z</time>
      </trkpt>
      <trkpt lat="47.34045" lon="-1.37382">
        <ele>144</ele>
        <time>2015-03-18T15:11:04.000Z</time>
      </trkpt>
      <trkpt lat="47.34055" lon="-1.37384">
        <ele>137</ele>
        <time>2015-03-18T15:11:06.000Z</time>
      </trkpt>
      <trkpt lat="47.34055" lon="-1.37384">
        <ele>137</ele>
        <time>2015-03-18T15:11:08.000Z</time>
      </trkpt>
      <trkpt lat="47.34061" lon="-1.37388">
        <ele>145</ele>
        <time>2015-03-18T15:11:10.000Z</time>
      </trkpt>
      <trkpt lat="47.34061" lon="-1.37388">
        <ele>145</ele>
        <time>2015-03-18T15:11:12.000Z</time>
      </trkpt>
      <trkpt lat="47.34063" lon="-1.37399">
        <ele>146</ele>
        <time>2015-03-18T15:11:16.000Z</time>
      </trkpt>
      <trkpt lat="47.3406" lon="-1.37407">
        <ele>151</ele>
        <time>2015-03-18T15:11:20.000Z</time>
      </trkpt>
      <trkpt lat="47.34056" lon="-1.37418">
        <ele>147</ele>
        <time>2015-03-18T15:11:24.000Z</time>
      </trkpt>
      <trkpt lat="47.3405" lon="-1.37434">
        <ele>146</ele>
        <time>2015-03-18T15:11:28.000Z</time>
      </trkpt>
      <trkpt lat="47.34048" lon="-1.37446">
        <ele>143</ele>
        <time>2015-03-18T15:11:30.000Z</time>
      </trkpt>
      <trkpt lat="47.34047" lon="-1.37458">
        <ele>145</ele>
        <time>2015-03-18T15:11:32.000Z</time>
      </trkpt>
      <trkpt lat="47.34045" lon="-1.37469">
        <ele>144</ele>
        <time>2015-03-18T15:11:34.000Z</time>
      </trkpt>
      <trkpt lat="47.34042" lon="-1.37481">
        <ele>139</ele>
        <time>2015-03-18T15:11:36.000Z</time>
      </trkpt>
      <trkpt lat="47.34038" lon="-1.37489">
        <ele>138</ele>
        <time>2015-03-18T15:11:38.000Z</time>
      </trkpt>
      <trkpt lat="47.34035" lon="-1.37499">
        <ele>138</ele>
        <time>2015-03-18T15:11:40.000Z</time>
      </trkpt>
      <trkpt lat="47.34035" lon="-1.3751">
        <ele>137</ele>
        <time>2015-03-18T15:11:42.000Z</time>
      </trkpt>
      <trkpt lat="47.34034" lon="-1.3752">
        <ele>135</ele>
        <time>2015-03-18T15:11:44.000Z</time>
      </trkpt>
      <trkpt lat="47.34032" lon="-1.37531">
        <ele>133</ele>
        <time>2015-03-18T15:11:46.000Z</time>
      </trkpt>
      <trkpt lat="47.34031" lon="-1.37542">
        <ele>130</ele>
        <time>2015-03-18T15:11:48.000Z</time>
      </trkpt>
      <trkpt lat="47.34029" lon="-1.3755">
        <ele>130</ele>
        <time>2015-03-18T15:11:50.000Z</time>
      </trkpt>
      <trkpt lat="47.34027" lon="-1.37564">
        <ele>135</ele>
        <time>2015-03-18T15:11:52.000Z</time>
      </trkpt>
      <trkpt lat="47.34027" lon="-1.37564">
        <ele>135</ele>
        <time>2015-03-18T15:11:55.000Z</time>
      </trkpt>
      <trkpt lat="47.3402" lon="-1.37585">
        <ele>144</ele>
        <time>2015-03-18T15:11:58.000Z</time>
      </trkpt>
      <trkpt lat="47.34022" lon="-1.37595">
        <ele>141</ele>
        <time>2015-03-18T15:12:00.000Z</time>
      </trkpt>
      <trkpt lat="47.34022" lon="-1.37595">
        <ele>141</ele>
        <time>2015-03-18T15:12:02.000Z</time>
      </trkpt>
      <trkpt lat="47.34025" lon="-1.37598">
        <ele>141</ele>
        <time>2015-03-18T15:12:04.000Z</time>
      </trkpt>
      <trkpt lat="47.34027" lon="-1.37599">
        <ele>140</ele>
        <time>2015-03-18T15:12:06.000Z</time>
      </trkpt>
      <trkpt lat="47.34027" lon="-1.37599">
        <ele>140</ele>
        <time>2015-03-18T15:12:08.000Z</time>
      </trkpt>
      <trkpt lat="47.34031" lon="-1.37595">
        <ele>137</ele>
        <time>2015-03-18T15:12:10.000Z</time>
      </trkpt>
      <trkpt lat="47.34033" lon="-1.3759">
        <ele>136</ele>
        <time>2015-03-18T15:12:12.000Z</time>
      </trkpt>
      <trkpt lat="47.34035" lon="-1.37584">
        <ele>135</ele>
        <time>2015-03-18T15:12:14.000Z</time>
      </trkpt>
      <trkpt lat="47.34037" lon="-1.37578">
        <ele>136</ele>
        <time>2015-03-18T15:12:16.000Z</time>
      </trkpt>
      <trkpt lat="47.34039" lon="-1.37572">
        <ele>135</ele>
        <time>2015-03-18T15:12:18.000Z</time>
      </trkpt>
      <trkpt lat="47.34042" lon="-1.37558">
        <ele>134</ele>
        <time>2015-03-18T15:12:20.000Z</time>
      </trkpt>
      <trkpt lat="47.34047" lon="-1.37542">
        <ele>132</ele>
        <time>2015-03-18T15:12:24.000Z</time>
      </trkpt>
      <trkpt lat="47.3405" lon="-1.37526">
        <ele>132</ele>
        <time>2015-03-18T15:12:28.000Z</time>
      </trkpt>
      <trkpt lat="47.34052" lon="-1.37517">
        <ele>132</ele>
        <time>2015-03-18T15:12:30.000Z</time>
      </trkpt>
      <trkpt lat="47.34053" lon="-1.37509">
        <ele>131</ele>
        <time>2015-03-18T15:12:32.000Z</time>
      </trkpt>
      <trkpt lat="47.34055" lon="-1.375">
        <ele>132</ele>
        <time>2015-03-18T15:12:34.000Z</time>
      </trkpt>
      <trkpt lat="47.34055" lon="-1.375">
        <ele>132</ele>
        <time>2015-03-18T15:12:36.000Z</time>
      </trkpt>
      <trkpt lat="47.34058" lon="-1.37484">
        <ele>132</ele>
        <time>2015-03-18T15:12:38.000Z</time>
      </trkpt>
      <trkpt lat="47.34059" lon="-1.37476">
        <ele>131</ele>
        <time>2015-03-18T15:12:40.000Z</time>
      </trkpt>
      <trkpt lat="47.34061" lon="-1.37468">
        <ele>131</ele>
        <time>2015-03-18T15:12:42.000Z</time>
      </trkpt>
      <trkpt lat="47.34061" lon="-1.37468">
        <ele>131</ele>
        <time>2015-03-18T15:12:44.000Z</time>
      </trkpt>
      <trkpt lat="47.34066" lon="-1.37453">
        <ele>132</ele>
        <time>2015-03-18T15:12:46.000Z</time>
      </trkpt>
      <trkpt lat="47.34068" lon="-1.37445">
        <ele>131</ele>
        <time>2015-03-18T15:12:48.000Z</time>
      </trkpt>
      <trkpt lat="47.34072" lon="-1.37438">
        <ele>131</ele>
        <time>2015-03-18T15:12:50.000Z</time>
      </trkpt>
      <trkpt lat="47.34076" lon="-1.3743">
        <ele>130</ele>
        <time>2015-03-18T15:12:52.000Z</time>
      </trkpt>
      <trkpt lat="47.34081" lon="-1.37423">
        <ele>130</ele>
        <time>2015-03-18T15:12:54.000Z</time>
      </trkpt>
      <trkpt lat="47.34085" lon="-1.37416">
        <ele>130</ele>
        <time>2015-03-18T15:12:56.000Z</time>
      </trkpt>
      <trkpt lat="47.34089" lon="-1.3741">
        <ele>131</ele>
        <time>2015-03-18T15:12:58.000Z</time>
      </trkpt>
      <trkpt lat="47.34094" lon="-1.37403">
        <ele>130</ele>
        <time>2015-03-18T15:13:00.000Z</time>
      </trkpt>
      <trkpt lat="47.34099" lon="-1.37397">
        <ele>130</ele>
        <time>2015-03-18T15:13:02.000Z</time>
      </trkpt>
      <trkpt lat="47.34105" lon="-1.37393">
        <ele>131</ele>
        <time>2015-03-18T15:13:04.000Z</time>
      </trkpt>
      <trkpt lat="47.3411" lon="-1.37389">
        <ele>132</ele>
        <time>2015-03-18T15:13:06.000Z</time>
      </trkpt>
      <trkpt lat="47.34116" lon="-1.37385">
        <ele>133</ele>
        <time>2015-03-18T15:13:08.000Z</time>
      </trkpt>
      <trkpt lat="47.34121" lon="-1.37381">
        <ele>132</ele>
        <time>2015-03-18T15:13:10.000Z</time>
      </trkpt>
      <trkpt lat="47.34128" lon="-1.37378">
        <ele>132</ele>
        <time>2015-03-18T15:13:12.000Z</time>
      </trkpt>
      <trkpt lat="47.34135" lon="-1.37375">
        <ele>133</ele>
        <time>2015-03-18T15:13:14.000Z</time>
      </trkpt>
      <trkpt lat="47.34142" lon="-1.37372">
        <ele>132</ele>
        <time>2015-03-18T15:13:16.000Z</time>
      </trkpt>
      <trkpt lat="47.3415" lon="-1.3737">
        <ele>133</ele>
        <time>2015-03-18T15:13:18.000Z</time>
      </trkpt>
      <trkpt lat="47.34158" lon="-1.3737">
        <ele>135</ele>
        <time>2015-03-18T15:13:20.000Z</time>
      </trkpt>
      <trkpt lat="47.34166" lon="-1.3737">
        <ele>134</ele>
        <time>2015-03-18T15:13:22.000Z</time>
      </trkpt>
      <trkpt lat="47.34175" lon="-1.3737">
        <ele>133</ele>
        <time>2015-03-18T15:13:24.000Z</time>
      </trkpt>
      <trkpt lat="47.34184" lon="-1.37369">
        <ele>132</ele>
        <time>2015-03-18T15:13:26.000Z</time>
      </trkpt>
      <trkpt lat="47.34193" lon="-1.37369">
        <ele>132</ele>
        <time>2015-03-18T15:13:28.000Z</time>
      </trkpt>
      <trkpt lat="47.34202" lon="-1.37368">
        <ele>132</ele>
        <time>2015-03-18T15:13:30.000Z</time>
      </trkpt>
      <trkpt lat="47.34211" lon="-1.37367">
        <ele>130</ele>
        <time>2015-03-18T15:13:32.000Z</time>
      </trkpt>
      <trkpt lat="47.34219" lon="-1.37367">
        <ele>130</ele>
        <time>2015-03-18T15:13:34.000Z</time>
      </trkpt>
      <trkpt lat="47.34229" lon="-1.37366">
        <ele>129</ele>
        <time>2015-03-18T15:13:36.000Z</time>
      </trkpt>
      <trkpt lat="47.3424" lon="-1.37367">
        <ele>130</ele>
        <time>2015-03-18T15:13:38.000Z</time>
      </trkpt>
      <trkpt lat="47.3425" lon="-1.37366">
        <ele>129</ele>
        <time>2015-03-18T15:13:40.000Z</time>
      </trkpt>
      <trkpt lat="47.34262" lon="-1.37365">
        <ele>129</ele>
        <time>2015-03-18T15:13:42.000Z</time>
      </trkpt>
      <trkpt lat="47.34274" lon="-1.37364">
        <ele>129</ele>
        <time>2015-03-18T15:13:44.000Z</time>
      </trkpt>
      <trkpt lat="47.34288" lon="-1.37362">
        <ele>129</ele>
        <time>2015-03-18T15:13:46.000Z</time>
      </trkpt>
      <trkpt lat="47.34301" lon="-1.37358">
        <ele>128</ele>
        <time>2015-03-18T15:13:48.000Z</time>
      </trkpt>
      <trkpt lat="47.34316" lon="-1.37353">
        <ele>128</ele>
        <time>2015-03-18T15:13:50.000Z</time>
      </trkpt>
      <trkpt lat="47.34331" lon="-1.37346">
        <ele>127</ele>
        <time>2015-03-18T15:13:52.000Z</time>
      </trkpt>
      <trkpt lat="47.34346" lon="-1.37337">
        <ele>126</ele>
        <time>2015-03-18T15:13:54.000Z</time>
      </trkpt>
      <trkpt lat="47.34361" lon="-1.37324">
        <ele>125</ele>
        <time>2015-03-18T15:13:56.000Z</time>
      </trkpt>
      <trkpt lat="47.34376" lon="-1.37314">
        <ele>124</ele>
        <time>2015-03-18T15:13:58.000Z</time>
      </trkpt>
      <trkpt lat="47.3439" lon="-1.37302">
        <ele>124</ele>
        <time>2015-03-18T15:14:00.000Z</time>
      </trkpt>
      <trkpt lat="47.34404" lon="-1.37288">
        <ele>124</ele>
        <time>2015-03-18T15:14:02.000Z</time>
      </trkpt>
      <trkpt lat="47.34418" lon="-1.37276">
        <ele>124</ele>
        <time>2015-03-18T15:14:04.000Z</time>
      </trkpt>
      <trkpt lat="47.34433" lon="-1.37262">
        <ele>124</ele>
        <time>2015-03-18T15:14:06.000Z</time>
      </trkpt>
      <trkpt lat="47.34448" lon="-1.37244">
        <ele>129</ele>
        <time>2015-03-18T15:14:10.000Z</time>
      </trkpt>
      <trkpt lat="47.34454" lon="-1.37231">
        <ele>133</ele>
        <time>2015-03-18T15:14:12.000Z</time>
      </trkpt>
      <trkpt lat="47.34473" lon="-1.37209">
        <ele>132</ele>
        <time>2015-03-18T15:14:15.000Z</time>
      </trkpt>
      <trkpt lat="47.34489" lon="-1.37201">
        <ele>132</ele>
        <time>2015-03-18T15:14:18.000Z</time>
      </trkpt>
      <trkpt lat="47.34499" lon="-1.37194">
        <ele>132</ele>
        <time>2015-03-18T15:14:20.000Z</time>
      </trkpt>
      <trkpt lat="47.34508" lon="-1.3719">
        <ele>132</ele>
        <time>2015-03-18T15:14:22.000Z</time>
      </trkpt>
      <trkpt lat="47.34508" lon="-1.3719">
        <ele>132</ele>
        <time>2015-03-18T15:14:24.000Z</time>
      </trkpt>
      <trkpt lat="47.34519" lon="-1.37185">
        <ele>135</ele>
        <time>2015-03-18T15:14:26.000Z</time>
      </trkpt>
      <trkpt lat="47.34525" lon="-1.37182">
        <ele>136</ele>
        <time>2015-03-18T15:14:28.000Z</time>
      </trkpt>
      <trkpt lat="47.34555" lon="-1.37143">
        <ele>130</ele>
        <time>2015-03-18T15:14:33.000Z</time>
      </trkpt>
      <trkpt lat="47.34568" lon="-1.37129">
        <ele>129</ele>
        <time>2015-03-18T15:14:36.000Z</time>
      </trkpt>
      <trkpt lat="47.34575" lon="-1.37122">
        <ele>129</ele>
        <time>2015-03-18T15:14:38.000Z</time>
      </trkpt>
      <trkpt lat="47.34583" lon="-1.37121">
        <ele>130</ele>
        <time>2015-03-18T15:14:40.000Z</time>
      </trkpt>
      <trkpt lat="47.34591" lon="-1.37109">
        <ele>128</ele>
        <time>2015-03-18T15:14:42.000Z</time>
      </trkpt>
      <trkpt lat="47.34597" lon="-1.37104">
        <ele>130</ele>
        <time>2015-03-18T15:14:44.000Z</time>
      </trkpt>
      <trkpt lat="47.34604" lon="-1.37095">
        <ele>126</ele>
        <time>2015-03-18T15:14:46.000Z</time>
      </trkpt>
      <trkpt lat="47.34613" lon="-1.37089">
        <ele>125</ele>
        <time>2015-03-18T15:14:48.000Z</time>
      </trkpt>
      <trkpt lat="47.3462" lon="-1.37078">
        <ele>128</ele>
        <time>2015-03-18T15:14:50.000Z</time>
      </trkpt>
      <trkpt lat="47.34626" lon="-1.37073">
        <ele>130</ele>
        <time>2015-03-18T15:14:52.000Z</time>
      </trkpt>
      <trkpt lat="47.34626" lon="-1.37073">
        <ele>130</ele>
        <time>2015-03-18T15:14:54.000Z</time>
      </trkpt>
      <trkpt lat="47.34631" lon="-1.37061">
        <ele>135</ele>
        <time>2015-03-18T15:14:56.000Z</time>
      </trkpt>
      <trkpt lat="47.34636" lon="-1.37056">
        <ele>139</ele>
        <time>2015-03-18T15:14:58.000Z</time>
      </trkpt>
      <trkpt lat="47.34643" lon="-1.37049">
        <ele>138</ele>
        <time>2015-03-18T15:15:00.000Z</time>
      </trkpt>
      <trkpt lat="47.34643" lon="-1.37049">
        <ele>138</ele>
        <time>2015-03-18T15:15:02.000Z</time>
      </trkpt>
      <trkpt lat="47.34652" lon="-1.3704">
        <ele>149</ele>
        <time>2015-03-18T15:15:04.000Z</time>
      </trkpt>
      <trkpt lat="47.34657" lon="-1.37034">
        <ele>150</ele>
        <time>2015-03-18T15:15:06.000Z</time>
      </trkpt>
      <trkpt lat="47.34663" lon="-1.37024">
        <ele>149</ele>
        <time>2015-03-18T15:15:08.000Z</time>
      </trkpt>
      <trkpt lat="47.34668" lon="-1.37017">
        <ele>160</ele>
        <time>2015-03-18T15:15:10.000Z</time>
      </trkpt>
      <trkpt lat="47.34672" lon="-1.37009">
        <ele>160</ele>
        <time>2015-03-18T15:15:12.000Z</time>
      </trkpt>
      <trkpt lat="47.34676" lon="-1.37001">
        <ele>160</ele>
        <time>2015-03-18T15:15:14.000Z</time>
      </trkpt>
      <trkpt lat="47.34682" lon="-1.36992">
        <ele>162</ele>
        <time>2015-03-18T15:15:16.000Z</time>
      </trkpt>
      <trkpt lat="47.34689" lon="-1.36981">
        <ele>159</ele>
        <time>2015-03-18T15:15:18.000Z</time>
      </trkpt>
      <trkpt lat="47.34697" lon="-1.36972">
        <ele>161</ele>
        <time>2015-03-18T15:15:20.000Z</time>
      </trkpt>
      <trkpt lat="47.34702" lon="-1.36965">
        <ele>164</ele>
        <time>2015-03-18T15:15:22.000Z</time>
      </trkpt>
      <trkpt lat="47.34702" lon="-1.36965">
        <ele>164</ele>
        <time>2015-03-18T15:15:24.000Z</time>
      </trkpt>
      <trkpt lat="47.34718" lon="-1.36941">
        <ele>165</ele>
        <time>2015-03-18T15:15:27.000Z</time>
      </trkpt>
      <trkpt lat="47.34723" lon="-1.36928">
        <ele>165</ele>
        <time>2015-03-18T15:15:29.000Z</time>
      </trkpt>
      <trkpt lat="47.34732" lon="-1.36914">
        <ele>159</ele>
        <time>2015-03-18T15:15:31.000Z</time>
      </trkpt>
      <trkpt lat="47.34741" lon="-1.36904">
        <ele>152</ele>
        <time>2015-03-18T15:15:33.000Z</time>
      </trkpt>
      <trkpt lat="47.34748" lon="-1.36896">
        <ele>146</ele>
        <time>2015-03-18T15:15:35.000Z</time>
      </trkpt>
      <trkpt lat="47.34755" lon="-1.36888">
        <ele>142</ele>
        <time>2015-03-18T15:15:37.000Z</time>
      </trkpt>
      <trkpt lat="47.34761" lon="-1.3688">
        <ele>141</ele>
        <time>2015-03-18T15:15:39.000Z</time>
      </trkpt>
      <trkpt lat="47.34768" lon="-1.36873">
        <ele>139</ele>
        <time>2015-03-18T15:15:41.000Z</time>
      </trkpt>
      <trkpt lat="47.34774" lon="-1.36865">
        <ele>138</ele>
        <time>2015-03-18T15:15:43.000Z</time>
      </trkpt>
      <trkpt lat="47.34781" lon="-1.36857">
        <ele>136</ele>
        <time>2015-03-18T15:15:45.000Z</time>
      </trkpt>
      <trkpt lat="47.34787" lon="-1.36849">
        <ele>136</ele>
        <time>2015-03-18T15:15:47.000Z</time>
      </trkpt>
      <trkpt lat="47.34793" lon="-1.3684">
        <ele>135</ele>
        <time>2015-03-18T15:15:49.000Z</time>
      </trkpt>
      <trkpt lat="47.348" lon="-1.36832">
        <ele>135</ele>
        <time>2015-03-18T15:15:51.000Z</time>
      </trkpt>
      <trkpt lat="47.34806" lon="-1.36824">
        <ele>137</ele>
        <time>2015-03-18T15:15:53.000Z</time>
      </trkpt>
      <trkpt lat="47.34811" lon="-1.36816">
        <ele>136</ele>
        <time>2015-03-18T15:15:55.000Z</time>
      </trkpt>
      <trkpt lat="47.34816" lon="-1.36808">
        <ele>136</ele>
        <time>2015-03-18T15:15:57.000Z</time>
      </trkpt>
      <trkpt lat="47.34821" lon="-1.368">
        <ele>136</ele>
        <time>2015-03-18T15:15:59.000Z</time>
      </trkpt>
      <trkpt lat="47.34827" lon="-1.36793">
        <ele>135</ele>
        <time>2015-03-18T15:16:01.000Z</time>
      </trkpt>
      <trkpt lat="47.34834" lon="-1.36787">
        <ele>135</ele>
        <time>2015-03-18T15:16:03.000Z</time>
      </trkpt>
      <trkpt lat="47.3484" lon="-1.3678">
        <ele>135</ele>
        <time>2015-03-18T15:16:05.000Z</time>
      </trkpt>
      <trkpt lat="47.34846" lon="-1.36773">
        <ele>134</ele>
        <time>2015-03-18T15:16:07.000Z</time>
      </trkpt>
      <trkpt lat="47.34851" lon="-1.36764">
        <ele>133</ele>
        <time>2015-03-18T15:16:09.000Z</time>
      </trkpt>
      <trkpt lat="47.34858" lon="-1.36755">
        <ele>132</ele>
        <time>2015-03-18T15:16:11.000Z</time>
      </trkpt>
      <trkpt lat="47.34863" lon="-1.36746">
        <ele>131</ele>
        <time>2015-03-18T15:16:13.000Z</time>
      </trkpt>
      <trkpt lat="47.34863" lon="-1.36746">
        <ele>131</ele>
        <time>2015-03-18T15:16:15.000Z</time>
      </trkpt>
      <trkpt lat="47.3487" lon="-1.3674">
        <ele>132</ele>
        <time>2015-03-18T15:16:17.000Z</time>
      </trkpt>
      <trkpt lat="47.3487" lon="-1.3674">
        <ele>132</ele>
        <time>2015-03-18T15:16:19.000Z</time>
      </trkpt>
      <trkpt lat="47.3487" lon="-1.3674">
        <ele>132</ele>
        <time>2015-03-18T15:16:21.000Z</time>
      </trkpt>
      <trkpt lat="47.34878" lon="-1.36734">
        <ele>135</ele>
        <time>2015-03-18T15:16:23.000Z</time>
      </trkpt>
      <trkpt lat="47.34883" lon="-1.36726">
        <ele>126</ele>
        <time>2015-03-18T15:16:25.000Z</time>
      </trkpt>
      <trkpt lat="47.34888" lon="-1.36717">
        <ele>126</ele>
        <time>2015-03-18T15:16:27.000Z</time>
      </trkpt>
      <trkpt lat="47.34893" lon="-1.36706">
        <ele>136</ele>
        <time>2015-03-18T15:16:29.000Z</time>
      </trkpt>
      <trkpt lat="47.34897" lon="-1.36696">
        <ele>139</ele>
        <time>2015-03-18T15:16:31.000Z</time>
      </trkpt>
      <trkpt lat="47.34902" lon="-1.36687">
        <ele>139</ele>
        <time>2015-03-18T15:16:33.000Z</time>
      </trkpt>
      <trkpt lat="47.34908" lon="-1.36678">
        <ele>138</ele>
        <time>2015-03-18T15:16:35.000Z</time>
      </trkpt>
      <trkpt lat="47.34912" lon="-1.36671">
        <ele>139</ele>
        <time>2015-03-18T15:16:37.000Z</time>
      </trkpt>
      <trkpt lat="47.34919" lon="-1.36661">
        <ele>140</ele>
        <time>2015-03-18T15:16:39.000Z</time>
      </trkpt>
      <trkpt lat="47.34927" lon="-1.3665">
        <ele>144</ele>
        <time>2015-03-18T15:16:41.000Z</time>
      </trkpt>
      <trkpt lat="47.34932" lon="-1.36641">
        <ele>144</ele>
        <time>2015-03-18T15:16:43.000Z</time>
      </trkpt>
      <trkpt lat="47.34938" lon="-1.36628">
        <ele>146</ele>
        <time>2015-03-18T15:16:45.000Z</time>
      </trkpt>
      <trkpt lat="47.34943" lon="-1.36619">
        <ele>148</ele>
        <time>2015-03-18T15:16:47.000Z</time>
      </trkpt>
      <trkpt lat="47.34949" lon="-1.3661">
        <ele>154</ele>
        <time>2015-03-18T15:16:49.000Z</time>
      </trkpt>
      <trkpt lat="47.34955" lon="-1.36603">
        <ele>154</ele>
        <time>2015-03-18T15:16:51.000Z</time>
      </trkpt>
      <trkpt lat="47.3496" lon="-1.36595">
        <ele>154</ele>
        <time>2015-03-18T15:16:53.000Z</time>
      </trkpt>
      <trkpt lat="47.34966" lon="-1.36589">
        <ele>152</ele>
        <time>2015-03-18T15:16:55.000Z</time>
      </trkpt>
      <trkpt lat="47.3497" lon="-1.36584">
        <ele>152</ele>
        <time>2015-03-18T15:16:57.000Z</time>
      </trkpt>
      <trkpt lat="47.34984" lon="-1.36568">
        <ele>148</ele>
        <time>2015-03-18T15:17:00.000Z</time>
      </trkpt>
      <trkpt lat="47.34991" lon="-1.36557">
        <ele>145</ele>
        <time>2015-03-18T15:17:02.000Z</time>
      </trkpt>
      <trkpt lat="47.35" lon="-1.36543">
        <ele>141</ele>
        <time>2015-03-18T15:17:04.000Z</time>
      </trkpt>
      <trkpt lat="47.35007" lon="-1.36531">
        <ele>140</ele>
        <time>2015-03-18T15:17:06.000Z</time>
      </trkpt>
      <trkpt lat="47.35015" lon="-1.36518">
        <ele>139</ele>
        <time>2015-03-18T15:17:08.000Z</time>
      </trkpt>
      <trkpt lat="47.35021" lon="-1.36508">
        <ele>138</ele>
        <time>2015-03-18T15:17:10.000Z</time>
      </trkpt>
      <trkpt lat="47.35027" lon="-1.365">
        <ele>135</ele>
        <time>2015-03-18T15:17:12.000Z</time>
      </trkpt>
      <trkpt lat="47.35032" lon="-1.36494">
        <ele>133</ele>
        <time>2015-03-18T15:17:14.000Z</time>
      </trkpt>
      <trkpt lat="47.35032" lon="-1.36494">
        <ele>133</ele>
        <time>2015-03-18T15:17:16.000Z</time>
      </trkpt>
      <trkpt lat="47.35042" lon="-1.36486">
        <ele>134</ele>
        <time>2015-03-18T15:17:18.000Z</time>
      </trkpt>
      <trkpt lat="47.35047" lon="-1.36481">
        <ele>135</ele>
        <time>2015-03-18T15:17:20.000Z</time>
      </trkpt>
      <trkpt lat="47.35052" lon="-1.36475">
        <ele>135</ele>
        <time>2015-03-18T15:17:22.000Z</time>
      </trkpt>
      <trkpt lat="47.35052" lon="-1.36475">
        <ele>135</ele>
        <time>2015-03-18T15:17:24.000Z</time>
      </trkpt>
      <trkpt lat="47.35057" lon="-1.36461">
        <ele>136</ele>
        <time>2015-03-18T15:17:26.000Z</time>
      </trkpt>
      <trkpt lat="47.35057" lon="-1.36461">
        <ele>136</ele>
        <time>2015-03-18T15:17:28.000Z</time>
      </trkpt>
      <trkpt lat="47.35064" lon="-1.36452">
        <ele>139</ele>
        <time>2015-03-18T15:17:30.000Z</time>
      </trkpt>
      <trkpt lat="47.35064" lon="-1.36452">
        <ele>139</ele>
        <time>2015-03-18T15:17:32.000Z</time>
      </trkpt>
      <trkpt lat="47.3507" lon="-1.36447">
        <ele>141</ele>
        <time>2015-03-18T15:17:34.000Z</time>
      </trkpt>
      <trkpt lat="47.3507" lon="-1.36447">
        <ele>141</ele>
        <time>2015-03-18T15:17:36.000Z</time>
      </trkpt>
      <trkpt lat="47.35077" lon="-1.36439">
        <ele>139</ele>
        <time>2015-03-18T15:17:38.000Z</time>
      </trkpt>
      <trkpt lat="47.35085" lon="-1.36434">
        <ele>140</ele>
        <time>2015-03-18T15:17:42.000Z</time>
      </trkpt>
      <trkpt lat="47.35093" lon="-1.36432">
        <ele>144</ele>
        <time>2015-03-18T15:17:44.000Z</time>
      </trkpt>
      <trkpt lat="47.35104" lon="-1.36431">
        <ele>143</ele>
        <time>2015-03-18T15:17:48.000Z</time>
      </trkpt>
      <trkpt lat="47.3511" lon="-1.36424">
        <ele>141</ele>
        <time>2015-03-18T15:17:50.000Z</time>
      </trkpt>
      <trkpt lat="47.3511" lon="-1.36424">
        <ele>141</ele>
        <time>2015-03-18T15:17:53.000Z</time>
      </trkpt>
      <trkpt lat="47.3511" lon="-1.36424">
        <ele>141</ele>
        <time>2015-03-18T15:17:55.000Z</time>
      </trkpt>
      <trkpt lat="47.35119" lon="-1.36428">
        <ele>147</ele>
        <time>2015-03-18T15:17:57.000Z</time>
      </trkpt>
      <trkpt lat="47.35127" lon="-1.36433">
        <ele>149</ele>
        <time>2015-03-18T15:17:59.000Z</time>
      </trkpt>
      <trkpt lat="47.35132" lon="-1.36437">
        <ele>148</ele>
        <time>2015-03-18T15:18:01.000Z</time>
      </trkpt>
      <trkpt lat="47.35139" lon="-1.36437">
        <ele>148</ele>
        <time>2015-03-18T15:18:03.000Z</time>
      </trkpt>
      <trkpt lat="47.35146" lon="-1.36438">
        <ele>146</ele>
        <time>2015-03-18T15:18:05.000Z</time>
      </trkpt>
      <trkpt lat="47.35156" lon="-1.36437">
        <ele>145</ele>
        <time>2015-03-18T15:18:07.000Z</time>
      </trkpt>
      <trkpt lat="47.35167" lon="-1.36432">
        <ele>148</ele>
        <time>2015-03-18T15:18:09.000Z</time>
      </trkpt>
      <trkpt lat="47.35177" lon="-1.36429">
        <ele>149</ele>
        <time>2015-03-18T15:18:11.000Z</time>
      </trkpt>
      <trkpt lat="47.35186" lon="-1.36426">
        <ele>154</ele>
        <time>2015-03-18T15:18:13.000Z</time>
      </trkpt>
      <trkpt lat="47.35194" lon="-1.36418">
        <ele>148</ele>
        <time>2015-03-18T15:18:15.000Z</time>
      </trkpt>
      <trkpt lat="47.35202" lon="-1.3641">
        <ele>144</ele>
        <time>2015-03-18T15:18:17.000Z</time>
      </trkpt>
      <trkpt lat="47.3521" lon="-1.36402">
        <ele>147</ele>
        <time>2015-03-18T15:18:19.000Z</time>
      </trkpt>
      <trkpt lat="47.35222" lon="-1.36396">
        <ele>150</ele>
        <time>2015-03-18T15:18:21.000Z</time>
      </trkpt>
      <trkpt lat="47.35231" lon="-1.36388">
        <ele>150</ele>
        <time>2015-03-18T15:18:23.000Z</time>
      </trkpt>
      <trkpt lat="47.35242" lon="-1.36377">
        <ele>148</ele>
        <time>2015-03-18T15:18:25.000Z</time>
      </trkpt>
      <trkpt lat="47.35251" lon="-1.36367">
        <ele>148</ele>
        <time>2015-03-18T15:18:27.000Z</time>
      </trkpt>
      <trkpt lat="47.3526" lon="-1.3636">
        <ele>154</ele>
        <time>2015-03-18T15:18:30.000Z</time>
      </trkpt>
      <trkpt lat="47.35271" lon="-1.3634">
        <ele>144</ele>
        <time>2015-03-18T15:18:33.000Z</time>
      </trkpt>
      <trkpt lat="47.35278" lon="-1.36335">
        <ele>158</ele>
        <time>2015-03-18T15:18:36.000Z</time>
      </trkpt>
      <trkpt lat="47.35288" lon="-1.36319">
        <ele>153</ele>
        <time>2015-03-18T15:18:39.000Z</time>
      </trkpt>
      <trkpt lat="47.35294" lon="-1.36315">
        <ele>155</ele>
        <time>2015-03-18T15:18:41.000Z</time>
      </trkpt>
      <trkpt lat="47.35302" lon="-1.36307">
        <ele>151</ele>
        <time>2015-03-18T15:18:43.000Z</time>
      </trkpt>
      <trkpt lat="47.3531" lon="-1.36297">
        <ele>148</ele>
        <time>2015-03-18T15:18:45.000Z</time>
      </trkpt>
      <trkpt lat="47.35317" lon="-1.36288">
        <ele>146</ele>
        <time>2015-03-18T15:18:47.000Z</time>
      </trkpt>
      <trkpt lat="47.35324" lon="-1.36281">
        <ele>144</ele>
        <time>2015-03-18T15:18:49.000Z</time>
      </trkpt>
      <trkpt lat="47.35329" lon="-1.36276">
        <ele>144</ele>
        <time>2015-03-18T15:18:51.000Z</time>
      </trkpt>
      <trkpt lat="47.35329" lon="-1.36276">
        <ele>144</ele>
        <time>2015-03-18T15:18:53.000Z</time>
      </trkpt>
      <trkpt lat="47.35336" lon="-1.36272">
        <ele>142</ele>
        <time>2015-03-18T15:18:55.000Z</time>
      </trkpt>
      <trkpt lat="47.35336" lon="-1.36272">
        <ele>142</ele>
        <time>2015-03-18T15:18:57.000Z</time>
      </trkpt>
      <trkpt lat="47.35344" lon="-1.36266">
        <ele>141</ele>
        <time>2015-03-18T15:18:59.000Z</time>
      </trkpt>
      <trkpt lat="47.35344" lon="-1.36266">
        <ele>141</ele>
        <time>2015-03-18T15:19:01.000Z</time>
      </trkpt>
      <trkpt lat="47.35349" lon="-1.36262">
        <ele>145</ele>
        <time>2015-03-18T15:19:03.000Z</time>
      </trkpt>
      <trkpt lat="47.35355" lon="-1.36257">
        <ele>143</ele>
        <time>2015-03-18T15:19:05.000Z</time>
      </trkpt>
      <trkpt lat="47.35364" lon="-1.36249">
        <ele>141</ele>
        <time>2015-03-18T15:19:07.000Z</time>
      </trkpt>
      <trkpt lat="47.35373" lon="-1.36242">
        <ele>139</ele>
        <time>2015-03-18T15:19:09.000Z</time>
      </trkpt>
      <trkpt lat="47.35378" lon="-1.36236">
        <ele>136</ele>
        <time>2015-03-18T15:19:11.000Z</time>
      </trkpt>
      <trkpt lat="47.35378" lon="-1.36236">
        <ele>136</ele>
        <time>2015-03-18T15:19:13.000Z</time>
      </trkpt>
      <trkpt lat="47.35378" lon="-1.36236">
        <ele>136</ele>
        <time>2015-03-18T15:19:15.000Z</time>
      </trkpt>
      <trkpt lat="47.35378" lon="-1.36236">
        <ele>136</ele>
        <time>2015-03-18T15:19:17.000Z</time>
      </trkpt>
      <trkpt lat="47.35378" lon="-1.36236">
        <ele>136</ele>
        <time>2015-03-18T15:19:19.000Z</time>
      </trkpt>
      <trkpt lat="47.35384" lon="-1.3623">
        <ele>134</ele>
        <time>2015-03-18T15:19:23.000Z</time>
      </trkpt>
      <trkpt lat="47.35392" lon="-1.36228">
        <ele>132</ele>
        <time>2015-03-18T15:19:27.000Z</time>
      </trkpt>
      <trkpt lat="47.35397" lon="-1.36225">
        <ele>131</ele>
        <time>2015-03-18T15:19:29.000Z</time>
      </trkpt>
      <trkpt lat="47.35403" lon="-1.36219">
        <ele>132</ele>
        <time>2015-03-18T15:19:31.000Z</time>
      </trkpt>
      <trkpt lat="47.35418" lon="-1.36202">
        <ele>134</ele>
        <time>2015-03-18T15:19:34.000Z</time>
      </trkpt>
      <trkpt lat="47.35426" lon="-1.3619">
        <ele>132</ele>
        <time>2015-03-18T15:19:36.000Z</time>
      </trkpt>
      <trkpt lat="47.35432" lon="-1.36181">
        <ele>133</ele>
        <time>2015-03-18T15:19:38.000Z</time>
      </trkpt>
      <trkpt lat="47.3545" lon="-1.36172">
        <ele>127</ele>
        <time>2015-03-18T15:19:41.000Z</time>
      </trkpt>
      <trkpt lat="47.35457" lon="-1.36161">
        <ele>126</ele>
        <time>2015-03-18T15:19:43.000Z</time>
      </trkpt>
      <trkpt lat="47.35464" lon="-1.36155">
        <ele>126</ele>
        <time>2015-03-18T15:19:45.000Z</time>
      </trkpt>
      <trkpt lat="47.35473" lon="-1.36145">
        <ele>122</ele>
        <time>2015-03-18T15:19:47.000Z</time>
      </trkpt>
      <trkpt lat="47.35478" lon="-1.36138">
        <ele>121</ele>
        <time>2015-03-18T15:19:49.000Z</time>
      </trkpt>
      <trkpt lat="47.35485" lon="-1.36132">
        <ele>120</ele>
        <time>2015-03-18T15:19:51.000Z</time>
      </trkpt>
      <trkpt lat="47.35492" lon="-1.36123">
        <ele>119</ele>
        <time>2015-03-18T15:19:53.000Z</time>
      </trkpt>
      <trkpt lat="47.35501" lon="-1.36119">
        <ele>122</ele>
        <time>2015-03-18T15:19:55.000Z</time>
      </trkpt>
      <trkpt lat="47.3551" lon="-1.36111">
        <ele>121</ele>
        <time>2015-03-18T15:19:57.000Z</time>
      </trkpt>
      <trkpt lat="47.35518" lon="-1.36103">
        <ele>124</ele>
        <time>2015-03-18T15:19:59.000Z</time>
      </trkpt>
      <trkpt lat="47.35525" lon="-1.36096">
        <ele>127</ele>
        <time>2015-03-18T15:20:01.000Z</time>
      </trkpt>
      <trkpt lat="47.35531" lon="-1.36091">
        <ele>128</ele>
        <time>2015-03-18T15:20:03.000Z</time>
      </trkpt>
      <trkpt lat="47.35536" lon="-1.36082">
        <ele>127</ele>
        <time>2015-03-18T15:20:05.000Z</time>
      </trkpt>
      <trkpt lat="47.35536" lon="-1.36082">
        <ele>127</ele>
        <time>2015-03-18T15:20:07.000Z</time>
      </trkpt>
      <trkpt lat="47.35536" lon="-1.36082">
        <ele>127</ele>
        <time>2015-03-18T15:20:09.000Z</time>
      </trkpt>
      <trkpt lat="47.35538" lon="-1.36079">
        <ele>125</ele>
        <time>2015-03-18T15:20:11.000Z</time>
      </trkpt>
      <trkpt lat="47.35538" lon="-1.36079">
        <ele>125</ele>
        <time>2015-03-18T15:20:13.000Z</time>
      </trkpt>
      <trkpt lat="47.35542" lon="-1.36076">
        <ele>124</ele>
        <time>2015-03-18T15:20:15.000Z</time>
      </trkpt>
      <trkpt lat="47.35546" lon="-1.36073">
        <ele>126</ele>
        <time>2015-03-18T15:20:17.000Z</time>
      </trkpt>
      <trkpt lat="47.35551" lon="-1.3607">
        <ele>124</ele>
        <time>2015-03-18T15:20:19.000Z</time>
      </trkpt>
      <trkpt lat="47.35557" lon="-1.36065">
        <ele>125</ele>
        <time>2015-03-18T15:20:21.000Z</time>
      </trkpt>
      <trkpt lat="47.35565" lon="-1.3606">
        <ele>125</ele>
        <time>2015-03-18T15:20:23.000Z</time>
      </trkpt>
      <trkpt lat="47.3558" lon="-1.3605">
        <ele>130</ele>
        <time>2015-03-18T15:20:25.000Z</time>
      </trkpt>
      <trkpt lat="47.35588" lon="-1.36046">
        <ele>135</ele>
        <time>2015-03-18T15:20:27.000Z</time>
      </trkpt>
      <trkpt lat="47.35595" lon="-1.36042">
        <ele>139</ele>
        <time>2015-03-18T15:20:29.000Z</time>
      </trkpt>
      <trkpt lat="47.35605" lon="-1.36034">
        <ele>136</ele>
        <time>2015-03-18T15:20:31.000Z</time>
      </trkpt>
      <trkpt lat="47.35618" lon="-1.36022">
        <ele>140</ele>
        <time>2015-03-18T15:20:33.000Z</time>
      </trkpt>
      <trkpt lat="47.35629" lon="-1.36005">
        <ele>139</ele>
        <time>2015-03-18T15:20:35.000Z</time>
      </trkpt>
      <trkpt lat="47.3564" lon="-1.35993">
        <ele>136</ele>
        <time>2015-03-18T15:20:37.000Z</time>
      </trkpt>
      <trkpt lat="47.35649" lon="-1.35982">
        <ele>138</ele>
        <time>2015-03-18T15:20:39.000Z</time>
      </trkpt>
      <trkpt lat="47.3568" lon="-1.35952">
        <ele>131</ele>
        <time>2015-03-18T15:20:43.000Z</time>
      </trkpt>
      <trkpt lat="47.35699" lon="-1.35938">
        <ele>127</ele>
        <time>2015-03-18T15:20:47.000Z</time>
      </trkpt>
      <trkpt lat="47.35706" lon="-1.35929">
        <ele>127</ele>
        <time>2015-03-18T15:20:49.000Z</time>
      </trkpt>
      <trkpt lat="47.35714" lon="-1.35921">
        <ele>126</ele>
        <time>2015-03-18T15:20:51.000Z</time>
      </trkpt>
      <trkpt lat="47.35714" lon="-1.35921">
        <ele>126</ele>
        <time>2015-03-18T15:20:54.000Z</time>
      </trkpt>
      <trkpt lat="47.35728" lon="-1.3591">
        <ele>126</ele>
        <time>2015-03-18T15:20:57.000Z</time>
      </trkpt>
      <trkpt lat="47.35757" lon="-1.35868">
        <ele>130</ele>
        <time>2015-03-18T15:21:02.000Z</time>
      </trkpt>
      <trkpt lat="47.35773" lon="-1.35859">
        <ele>132</ele>
        <time>2015-03-18T15:21:06.000Z</time>
      </trkpt>
      <trkpt lat="47.35782" lon="-1.35851">
        <ele>129</ele>
        <time>2015-03-18T15:21:08.000Z</time>
      </trkpt>
      <trkpt lat="47.35789" lon="-1.35842">
        <ele>128</ele>
        <time>2015-03-18T15:21:10.000Z</time>
      </trkpt>
      <trkpt lat="47.35796" lon="-1.35836">
        <ele>126</ele>
        <time>2015-03-18T15:21:12.000Z</time>
      </trkpt>
      <trkpt lat="47.35804" lon="-1.35827">
        <ele>127</ele>
        <time>2015-03-18T15:21:14.000Z</time>
      </trkpt>
      <trkpt lat="47.35811" lon="-1.35821">
        <ele>129</ele>
        <time>2015-03-18T15:21:16.000Z</time>
      </trkpt>
      <trkpt lat="47.35817" lon="-1.35816">
        <ele>130</ele>
        <time>2015-03-18T15:21:18.000Z</time>
      </trkpt>
      <trkpt lat="47.35824" lon="-1.35807">
        <ele>130</ele>
        <time>2015-03-18T15:21:20.000Z</time>
      </trkpt>
      <trkpt lat="47.35833" lon="-1.35798">
        <ele>127</ele>
        <time>2015-03-18T15:21:22.000Z</time>
      </trkpt>
      <trkpt lat="47.35841" lon="-1.35792">
        <ele>126</ele>
        <time>2015-03-18T15:21:24.000Z</time>
      </trkpt>
      <trkpt lat="47.35848" lon="-1.35784">
        <ele>126</ele>
        <time>2015-03-18T15:21:26.000Z</time>
      </trkpt>
      <trkpt lat="47.35854" lon="-1.35773">
        <ele>124</ele>
        <time>2015-03-18T15:21:28.000Z</time>
      </trkpt>
      <trkpt lat="47.35859" lon="-1.35764">
        <ele>122</ele>
        <time>2015-03-18T15:21:30.000Z</time>
      </trkpt>
      <trkpt lat="47.35864" lon="-1.35756">
        <ele>122</ele>
        <time>2015-03-18T15:21:32.000Z</time>
      </trkpt>
      <trkpt lat="47.35869" lon="-1.35747">
        <ele>123</ele>
        <time>2015-03-18T15:21:34.000Z</time>
      </trkpt>
      <trkpt lat="47.35877" lon="-1.35738">
        <ele>131</ele>
        <time>2015-03-18T15:21:36.000Z</time>
      </trkpt>
      <trkpt lat="47.35886" lon="-1.35733">
        <ele>135</ele>
        <time>2015-03-18T15:21:38.000Z</time>
      </trkpt>
      <trkpt lat="47.35893" lon="-1.35732">
        <ele>137</ele>
        <time>2015-03-18T15:21:40.000Z</time>
      </trkpt>
      <trkpt lat="47.359" lon="-1.35722">
        <ele>139</ele>
        <time>2015-03-18T15:21:42.000Z</time>
      </trkpt>
      <trkpt lat="47.35908" lon="-1.35709">
        <ele>138</ele>
        <time>2015-03-18T15:21:44.000Z</time>
      </trkpt>
      <trkpt lat="47.35914" lon="-1.35702">
        <ele>142</ele>
        <time>2015-03-18T15:21:46.000Z</time>
      </trkpt>
      <trkpt lat="47.3592" lon="-1.35695">
        <ele>139</ele>
        <time>2015-03-18T15:21:48.000Z</time>
      </trkpt>
      <trkpt lat="47.35926" lon="-1.35687">
        <ele>135</ele>
        <time>2015-03-18T15:21:50.000Z</time>
      </trkpt>
      <trkpt lat="47.35931" lon="-1.35679">
        <ele>133</ele>
        <time>2015-03-18T15:21:52.000Z</time>
      </trkpt>
      <trkpt lat="47.35931" lon="-1.35679">
        <ele>133</ele>
        <time>2015-03-18T15:21:54.000Z</time>
      </trkpt>
      <trkpt lat="47.35941" lon="-1.35684">
        <ele>138</ele>
        <time>2015-03-18T15:21:56.000Z</time>
      </trkpt>
      <trkpt lat="47.35946" lon="-1.35689">
        <ele>137</ele>
        <time>2015-03-18T15:21:58.000Z</time>
      </trkpt>
      <trkpt lat="47.3595" lon="-1.35694">
        <ele>138</ele>
        <time>2015-03-18T15:22:00.000Z</time>
      </trkpt>
      <trkpt lat="47.35957" lon="-1.35699">
        <ele>139</ele>
        <time>2015-03-18T15:22:02.000Z</time>
      </trkpt>
      <trkpt lat="47.35964" lon="-1.35706">
        <ele>140</ele>
        <time>2015-03-18T15:22:04.000Z</time>
      </trkpt>
      <trkpt lat="47.35969" lon="-1.35712">
        <ele>143</ele>
        <time>2015-03-18T15:22:06.000Z</time>
      </trkpt>
      <trkpt lat="47.35985" lon="-1.35728">
        <ele>137</ele>
        <time>2015-03-18T15:22:09.000Z</time>
      </trkpt>
      <trkpt lat="47.35991" lon="-1.35736">
        <ele>135</ele>
        <time>2015-03-18T15:22:11.000Z</time>
      </trkpt>
      <trkpt lat="47.35997" lon="-1.3574">
        <ele>134</ele>
        <time>2015-03-18T15:22:13.000Z</time>
      </trkpt>
      <trkpt lat="47.36004" lon="-1.35744">
        <ele>133</ele>
        <time>2015-03-18T15:22:15.000Z</time>
      </trkpt>
      <trkpt lat="47.36011" lon="-1.35757">
        <ele>134</ele>
        <time>2015-03-18T15:22:17.000Z</time>
      </trkpt>
      <trkpt lat="47.36017" lon="-1.35764">
        <ele>135</ele>
        <time>2015-03-18T15:22:19.000Z</time>
      </trkpt>
      <trkpt lat="47.36023" lon="-1.3577">
        <ele>134</ele>
        <time>2015-03-18T15:22:21.000Z</time>
      </trkpt>
      <trkpt lat="47.36028" lon="-1.35778">
        <ele>135</ele>
        <time>2015-03-18T15:22:23.000Z</time>
      </trkpt>
      <trkpt lat="47.36037" lon="-1.35785">
        <ele>133</ele>
        <time>2015-03-18T15:22:25.000Z</time>
      </trkpt>
      <trkpt lat="47.36047" lon="-1.35792">
        <ele>129</ele>
        <time>2015-03-18T15:22:27.000Z</time>
      </trkpt>
      <trkpt lat="47.36055" lon="-1.35802">
        <ele>127</ele>
        <time>2015-03-18T15:22:29.000Z</time>
      </trkpt>
      <trkpt lat="47.36064" lon="-1.35812">
        <ele>127</ele>
        <time>2015-03-18T15:22:31.000Z</time>
      </trkpt>
      <trkpt lat="47.36068" lon="-1.35822">
        <ele>129</ele>
        <time>2015-03-18T15:22:33.000Z</time>
      </trkpt>
      <trkpt lat="47.36079" lon="-1.3584">
        <ele>128</ele>
        <time>2015-03-18T15:22:36.000Z</time>
      </trkpt>
      <trkpt lat="47.36082" lon="-1.35851">
        <ele>130</ele>
        <time>2015-03-18T15:22:38.000Z</time>
      </trkpt>
      <trkpt lat="47.36094" lon="-1.35861">
        <ele>131</ele>
        <time>2015-03-18T15:22:40.000Z</time>
      </trkpt>
      <trkpt lat="47.36107" lon="-1.35875">
        <ele>128</ele>
        <time>2015-03-18T15:22:42.000Z</time>
      </trkpt>
      <trkpt lat="47.36116" lon="-1.35887">
        <ele>129</ele>
        <time>2015-03-18T15:22:44.000Z</time>
      </trkpt>
      <trkpt lat="47.36127" lon="-1.35895">
        <ele>129</ele>
        <time>2015-03-18T15:22:46.000Z</time>
      </trkpt>
      <trkpt lat="47.36139" lon="-1.35908">
        <ele>127</ele>
        <time>2015-03-18T15:22:48.000Z</time>
      </trkpt>
      <trkpt lat="47.36155" lon="-1.35922">
        <ele>129</ele>
        <time>2015-03-18T15:22:51.000Z</time>
      </trkpt>
      <trkpt lat="47.36166" lon="-1.35931">
        <ele>129</ele>
        <time>2015-03-18T15:22:53.000Z</time>
      </trkpt>
      <trkpt lat="47.36178" lon="-1.35939">
        <ele>128</ele>
        <time>2015-03-18T15:22:55.000Z</time>
      </trkpt>
      <trkpt lat="47.36189" lon="-1.35948">
        <ele>127</ele>
        <time>2015-03-18T15:22:57.000Z</time>
      </trkpt>
      <trkpt lat="47.362" lon="-1.35957">
        <ele>128</ele>
        <time>2015-03-18T15:22:59.000Z</time>
      </trkpt>
      <trkpt lat="47.36224" lon="-1.35972">
        <ele>125</ele>
        <time>2015-03-18T15:23:02.000Z</time>
      </trkpt>
      <trkpt lat="47.36239" lon="-1.35979">
        <ele>123</ele>
        <time>2015-03-18T15:23:04.000Z</time>
      </trkpt>
      <trkpt lat="47.36252" lon="-1.35987">
        <ele>122</ele>
        <time>2015-03-18T15:23:06.000Z</time>
      </trkpt>
      <trkpt lat="47.36266" lon="-1.35996">
        <ele>120</ele>
        <time>2015-03-18T15:23:08.000Z</time>
      </trkpt>
      <trkpt lat="47.36279" lon="-1.36007">
        <ele>117</ele>
        <time>2015-03-18T15:23:10.000Z</time>
      </trkpt>
      <trkpt lat="47.36292" lon="-1.36014">
        <ele>116</ele>
        <time>2015-03-18T15:23:12.000Z</time>
      </trkpt>
      <trkpt lat="47.36305" lon="-1.36022">
        <ele>117</ele>
        <time>2015-03-18T15:23:14.000Z</time>
      </trkpt>
      <trkpt lat="47.36318" lon="-1.36031">
        <ele>116</ele>
        <time>2015-03-18T15:23:16.000Z</time>
      </trkpt>
      <trkpt lat="47.36333" lon="-1.36033">
        <ele>119</ele>
        <time>2015-03-18T15:23:18.000Z</time>
      </trkpt>
      <trkpt lat="47.36346" lon="-1.3604">
        <ele>116</ele>
        <time>2015-03-18T15:23:20.000Z</time>
      </trkpt>
      <trkpt lat="47.36356" lon="-1.36044">
        <ele>116</ele>
        <time>2015-03-18T15:23:22.000Z</time>
      </trkpt>
      <trkpt lat="47.36373" lon="-1.36054">
        <ele>114</ele>
        <time>2015-03-18T15:23:25.000Z</time>
      </trkpt>
      <trkpt lat="47.36385" lon="-1.36061">
        <ele>115</ele>
        <time>2015-03-18T15:23:28.000Z</time>
      </trkpt>
      <trkpt lat="47.36392" lon="-1.36068">
        <ele>115</ele>
        <time>2015-03-18T15:23:30.000Z</time>
      </trkpt>
      <trkpt lat="47.36403" lon="-1.36076">
        <ele>117</ele>
        <time>2015-03-18T15:23:32.000Z</time>
      </trkpt>
      <trkpt lat="47.36412" lon="-1.36081">
        <ele>119</ele>
        <time>2015-03-18T15:23:34.000Z</time>
      </trkpt>
      <trkpt lat="47.36418" lon="-1.36078">
        <ele>118</ele>
        <time>2015-03-18T15:23:36.000Z</time>
      </trkpt>
      <trkpt lat="47.36421" lon="-1.36069">
        <ele>118</ele>
        <time>2015-03-18T15:23:38.000Z</time>
      </trkpt>
      <trkpt lat="47.36422" lon="-1.36053">
        <ele>117</ele>
        <time>2015-03-18T15:23:40.000Z</time>
      </trkpt>
      <trkpt lat="47.36427" lon="-1.36041">
        <ele>115</ele>
        <time>2015-03-18T15:23:42.000Z</time>
      </trkpt>
      <trkpt lat="47.3643" lon="-1.36032">
        <ele>113</ele>
        <time>2015-03-18T15:23:44.000Z</time>
      </trkpt>
      <trkpt lat="47.36432" lon="-1.36023">
        <ele>115</ele>
        <time>2015-03-18T15:23:46.000Z</time>
      </trkpt>
      <trkpt lat="47.36437" lon="-1.36012">
        <ele>115</ele>
        <time>2015-03-18T15:23:48.000Z</time>
      </trkpt>
      <trkpt lat="47.3644" lon="-1.36001">
        <ele>115</ele>
        <time>2015-03-18T15:23:50.000Z</time>
      </trkpt>
      <trkpt lat="47.36441" lon="-1.3599">
        <ele>114</ele>
        <time>2015-03-18T15:23:52.000Z</time>
      </trkpt>
      <trkpt lat="47.36441" lon="-1.3599">
        <ele>114</ele>
        <time>2015-03-18T15:23:54.000Z</time>
      </trkpt>
      <trkpt lat="47.36444" lon="-1.35973">
        <ele>112</ele>
        <time>2015-03-18T15:23:56.000Z</time>
      </trkpt>
      <trkpt lat="47.36444" lon="-1.35973">
        <ele>112</ele>
        <time>2015-03-18T15:23:58.000Z</time>
      </trkpt>
      <trkpt lat="47.36448" lon="-1.35951">
        <ele>111</ele>
        <time>2015-03-18T15:24:00.000Z</time>
      </trkpt>
      <trkpt lat="47.36448" lon="-1.35939">
        <ele>110</ele>
        <time>2015-03-18T15:24:02.000Z</time>
      </trkpt>
      <trkpt lat="47.3645" lon="-1.35925">
        <ele>110</ele>
        <time>2015-03-18T15:24:04.000Z</time>
      </trkpt>
      <trkpt lat="47.36451" lon="-1.35913">
        <ele>110</ele>
        <time>2015-03-18T15:24:06.000Z</time>
      </trkpt>
      <trkpt lat="47.36452" lon="-1.35902">
        <ele>110</ele>
        <time>2015-03-18T15:24:08.000Z</time>
      </trkpt>
      <trkpt lat="47.36454" lon="-1.3589">
        <ele>111</ele>
        <time>2015-03-18T15:24:10.000Z</time>
      </trkpt>
      <trkpt lat="47.36456" lon="-1.35878">
        <ele>110</ele>
        <time>2015-03-18T15:24:12.000Z</time>
      </trkpt>
      <trkpt lat="47.36457" lon="-1.35866">
        <ele>110</ele>
        <time>2015-03-18T15:24:14.000Z</time>
      </trkpt>
      <trkpt lat="47.36459" lon="-1.35854">
        <ele>111</ele>
        <time>2015-03-18T15:24:16.000Z</time>
      </trkpt>
      <trkpt lat="47.3646" lon="-1.35842">
        <ele>110</ele>
        <time>2015-03-18T15:24:18.000Z</time>
      </trkpt>
      <trkpt lat="47.36461" lon="-1.35832">
        <ele>111</ele>
        <time>2015-03-18T15:24:20.000Z</time>
      </trkpt>
      <trkpt lat="47.36462" lon="-1.3582">
        <ele>113</ele>
        <time>2015-03-18T15:24:22.000Z</time>
      </trkpt>
      <trkpt lat="47.36463" lon="-1.35808">
        <ele>112</ele>
        <time>2015-03-18T15:24:24.000Z</time>
      </trkpt>
      <trkpt lat="47.36465" lon="-1.35794">
        <ele>112</ele>
        <time>2015-03-18T15:24:26.000Z</time>
      </trkpt>
      <trkpt lat="47.36467" lon="-1.35781">
        <ele>113</ele>
        <time>2015-03-18T15:24:28.000Z</time>
      </trkpt>
      <trkpt lat="47.36469" lon="-1.35768">
        <ele>113</ele>
        <time>2015-03-18T15:24:30.000Z</time>
      </trkpt>
      <trkpt lat="47.36471" lon="-1.35755">
        <ele>113</ele>
        <time>2015-03-18T15:24:32.000Z</time>
      </trkpt>
      <trkpt lat="47.36473" lon="-1.35742">
        <ele>113</ele>
        <time>2015-03-18T15:24:34.000Z</time>
      </trkpt>
      <trkpt lat="47.36475" lon="-1.35727">
        <ele>113</ele>
        <time>2015-03-18T15:24:36.000Z</time>
      </trkpt>
      <trkpt lat="47.36476" lon="-1.35714">
        <ele>113</ele>
        <time>2015-03-18T15:24:38.000Z</time>
      </trkpt>
      <trkpt lat="47.36478" lon="-1.357">
        <ele>113</ele>
        <time>2015-03-18T15:24:40.000Z</time>
      </trkpt>
      <trkpt lat="47.3648" lon="-1.35686">
        <ele>112</ele>
        <time>2015-03-18T15:24:42.000Z</time>
      </trkpt>
      <trkpt lat="47.36481" lon="-1.35673">
        <ele>112</ele>
        <time>2015-03-18T15:24:44.000Z</time>
      </trkpt>
      <trkpt lat="47.36483" lon="-1.3566">
        <ele>112</ele>
        <time>2015-03-18T15:24:46.000Z</time>
      </trkpt>
      <trkpt lat="47.36483" lon="-1.3564">
        <ele>109</ele>
        <time>2015-03-18T15:24:48.000Z</time>
      </trkpt>
      <trkpt lat="47.36484" lon="-1.35623">
        <ele>107</ele>
        <time>2015-03-18T15:24:50.000Z</time>
      </trkpt>
      <trkpt lat="47.36485" lon="-1.35612">
        <ele>107</ele>
        <time>2015-03-18T15:24:52.000Z</time>
      </trkpt>
      <trkpt lat="47.36486" lon="-1.35598">
        <ele>108</ele>
        <time>2015-03-18T15:24:54.000Z</time>
      </trkpt>
      <trkpt lat="47.36487" lon="-1.35584">
        <ele>110</ele>
        <time>2015-03-18T15:24:56.000Z</time>
      </trkpt>
      <trkpt lat="47.36487" lon="-1.35572">
        <ele>110</ele>
        <time>2015-03-18T15:24:58.000Z</time>
      </trkpt>
      <trkpt lat="47.36487" lon="-1.35558">
        <ele>110</ele>
        <time>2015-03-18T15:25:00.000Z</time>
      </trkpt>
      <trkpt lat="47.36488" lon="-1.35545">
        <ele>110</ele>
        <time>2015-03-18T15:25:02.000Z</time>
      </trkpt>
      <trkpt lat="47.36488" lon="-1.35532">
        <ele>109</ele>
        <time>2015-03-18T15:25:04.000Z</time>
      </trkpt>
      <trkpt lat="47.36488" lon="-1.35519">
        <ele>109</ele>
        <time>2015-03-18T15:25:06.000Z</time>
      </trkpt>
      <trkpt lat="47.36488" lon="-1.35506">
        <ele>108</ele>
        <time>2015-03-18T15:25:08.000Z</time>
      </trkpt>
      <trkpt lat="47.36488" lon="-1.35493">
        <ele>108</ele>
        <time>2015-03-18T15:25:10.000Z</time>
      </trkpt>
      <trkpt lat="47.36488" lon="-1.35479">
        <ele>108</ele>
        <time>2015-03-18T15:25:12.000Z</time>
      </trkpt>
      <trkpt lat="47.36488" lon="-1.35465">
        <ele>107</ele>
        <time>2015-03-18T15:25:14.000Z</time>
      </trkpt>
      <trkpt lat="47.36489" lon="-1.35451">
        <ele>107</ele>
        <time>2015-03-18T15:25:16.000Z</time>
      </trkpt>
      <trkpt lat="47.36489" lon="-1.35437">
        <ele>107</ele>
        <time>2015-03-18T15:25:18.000Z</time>
      </trkpt>
      <trkpt lat="47.36489" lon="-1.35423">
        <ele>107</ele>
        <time>2015-03-18T15:25:20.000Z</time>
      </trkpt>
      <trkpt lat="47.36489" lon="-1.35408">
        <ele>107</ele>
        <time>2015-03-18T15:25:22.000Z</time>
      </trkpt>
      <trkpt lat="47.36489" lon="-1.35395">
        <ele>106</ele>
        <time>2015-03-18T15:25:24.000Z</time>
      </trkpt>
      <trkpt lat="47.36489" lon="-1.35382">
        <ele>107</ele>
        <time>2015-03-18T15:25:26.000Z</time>
      </trkpt>
      <trkpt lat="47.36488" lon="-1.35371">
        <ele>107</ele>
        <time>2015-03-18T15:25:28.000Z</time>
      </trkpt>
      <trkpt lat="47.36488" lon="-1.35359">
        <ele>108</ele>
        <time>2015-03-18T15:25:30.000Z</time>
      </trkpt>
      <trkpt lat="47.36486" lon="-1.35346">
        <ele>107</ele>
        <time>2015-03-18T15:25:32.000Z</time>
      </trkpt>
      <trkpt lat="47.36485" lon="-1.35333">
        <ele>107</ele>
        <time>2015-03-18T15:25:34.000Z</time>
      </trkpt>
      <trkpt lat="47.36484" lon="-1.3532">
        <ele>105</ele>
        <time>2015-03-18T15:25:36.000Z</time>
      </trkpt>
      <trkpt lat="47.36484" lon="-1.3531">
        <ele>106</ele>
        <time>2015-03-18T15:25:38.000Z</time>
      </trkpt>
      <trkpt lat="47.36483" lon="-1.35299">
        <ele>107</ele>
        <time>2015-03-18T15:25:40.000Z</time>
      </trkpt>
      <trkpt lat="47.36483" lon="-1.35289">
        <ele>108</ele>
        <time>2015-03-18T15:25:42.000Z</time>
      </trkpt>
      <trkpt lat="47.36482" lon="-1.35279">
        <ele>107</ele>
        <time>2015-03-18T15:25:44.000Z</time>
      </trkpt>
      <trkpt lat="47.36481" lon="-1.35269">
        <ele>107</ele>
        <time>2015-03-18T15:25:46.000Z</time>
      </trkpt>
      <trkpt lat="47.3648" lon="-1.35258">
        <ele>107</ele>
        <time>2015-03-18T15:25:48.000Z</time>
      </trkpt>
      <trkpt lat="47.36478" lon="-1.35248">
        <ele>107</ele>
        <time>2015-03-18T15:25:50.000Z</time>
      </trkpt>
      <trkpt lat="47.36478" lon="-1.35239">
        <ele>106</ele>
        <time>2015-03-18T15:25:52.000Z</time>
      </trkpt>
      <trkpt lat="47.36478" lon="-1.35239">
        <ele>106</ele>
        <time>2015-03-18T15:25:54.000Z</time>
      </trkpt>
      <trkpt lat="47.36475" lon="-1.35224">
        <ele>107</ele>
        <time>2015-03-18T15:25:56.000Z</time>
      </trkpt>
      <trkpt lat="47.36475" lon="-1.35215">
        <ele>108</ele>
        <time>2015-03-18T15:25:58.000Z</time>
      </trkpt>
      <trkpt lat="47.36473" lon="-1.35204">
        <ele>107</ele>
        <time>2015-03-18T15:26:00.000Z</time>
      </trkpt>
      <trkpt lat="47.3647" lon="-1.35186">
        <ele>106</ele>
        <time>2015-03-18T15:26:02.000Z</time>
      </trkpt>
      <trkpt lat="47.36469" lon="-1.35173">
        <ele>106</ele>
        <time>2015-03-18T15:26:04.000Z</time>
      </trkpt>
      <trkpt lat="47.36468" lon="-1.35158">
        <ele>106</ele>
        <time>2015-03-18T15:26:06.000Z</time>
      </trkpt>
      <trkpt lat="47.36465" lon="-1.35145">
        <ele>105</ele>
        <time>2015-03-18T15:26:08.000Z</time>
      </trkpt>
      <trkpt lat="47.36464" lon="-1.3513">
        <ele>106</ele>
        <time>2015-03-18T15:26:10.000Z</time>
      </trkpt>
      <trkpt lat="47.36462" lon="-1.35116">
        <ele>106</ele>
        <time>2015-03-18T15:26:12.000Z</time>
      </trkpt>
      <trkpt lat="47.3646" lon="-1.35102">
        <ele>106</ele>
        <time>2015-03-18T15:26:14.000Z</time>
      </trkpt>
      <trkpt lat="47.36459" lon="-1.35089">
        <ele>105</ele>
        <time>2015-03-18T15:26:16.000Z</time>
      </trkpt>
      <trkpt lat="47.36457" lon="-1.35075">
        <ele>105</ele>
        <time>2015-03-18T15:26:18.000Z</time>
      </trkpt>
      <trkpt lat="47.36456" lon="-1.35062">
        <ele>106</ele>
        <time>2015-03-18T15:26:20.000Z</time>
      </trkpt>
      <trkpt lat="47.36455" lon="-1.35048">
        <ele>107</ele>
        <time>2015-03-18T15:26:22.000Z</time>
      </trkpt>
      <trkpt lat="47.36453" lon="-1.35034">
        <ele>107</ele>
        <time>2015-03-18T15:26:24.000Z</time>
      </trkpt>
      <trkpt lat="47.36451" lon="-1.35017">
        <ele>106</ele>
        <time>2015-03-18T15:26:26.000Z</time>
      </trkpt>
      <trkpt lat="47.36449" lon="-1.35002">
        <ele>106</ele>
        <time>2015-03-18T15:26:28.000Z</time>
      </trkpt>
      <trkpt lat="47.36448" lon="-1.34989">
        <ele>106</ele>
        <time>2015-03-18T15:26:30.000Z</time>
      </trkpt>
      <trkpt lat="47.36446" lon="-1.34976">
        <ele>107</ele>
        <time>2015-03-18T15:26:32.000Z</time>
      </trkpt>
      <trkpt lat="47.36446" lon="-1.34961">
        <ele>107</ele>
        <time>2015-03-18T15:26:34.000Z</time>
      </trkpt>
      <trkpt lat="47.36444" lon="-1.34948">
        <ele>107</ele>
        <time>2015-03-18T15:26:36.000Z</time>
      </trkpt>
      <trkpt lat="47.36442" lon="-1.34934">
        <ele>106</ele>
        <time>2015-03-18T15:26:38.000Z</time>
      </trkpt>
      <trkpt lat="47.3644" lon="-1.3492">
        <ele>106</ele>
        <time>2015-03-18T15:26:40.000Z</time>
      </trkpt>
      <trkpt lat="47.36439" lon="-1.34904">
        <ele>106</ele>
        <time>2015-03-18T15:26:42.000Z</time>
      </trkpt>
      <trkpt lat="47.36437" lon="-1.34891">
        <ele>106</ele>
        <time>2015-03-18T15:26:44.000Z</time>
      </trkpt>
      <trkpt lat="47.36436" lon="-1.34879">
        <ele>106</ele>
        <time>2015-03-18T15:26:46.000Z</time>
      </trkpt>
      <trkpt lat="47.36435" lon="-1.34866">
        <ele>107</ele>
        <time>2015-03-18T15:26:48.000Z</time>
      </trkpt>
      <trkpt lat="47.36434" lon="-1.34855">
        <ele>107</ele>
        <time>2015-03-18T15:26:50.000Z</time>
      </trkpt>
      <trkpt lat="47.36433" lon="-1.34842">
        <ele>107</ele>
        <time>2015-03-18T15:26:52.000Z</time>
      </trkpt>
      <trkpt lat="47.36433" lon="-1.3483">
        <ele>107</ele>
        <time>2015-03-18T15:26:54.000Z</time>
      </trkpt>
      <trkpt lat="47.36432" lon="-1.34817">
        <ele>107</ele>
        <time>2015-03-18T15:26:56.000Z</time>
      </trkpt>
      <trkpt lat="47.36432" lon="-1.34806">
        <ele>109</ele>
        <time>2015-03-18T15:26:58.000Z</time>
      </trkpt>
      <trkpt lat="47.36431" lon="-1.34795">
        <ele>108</ele>
        <time>2015-03-18T15:27:00.000Z</time>
      </trkpt>
      <trkpt lat="47.36431" lon="-1.34782">
        <ele>108</ele>
        <time>2015-03-18T15:27:02.000Z</time>
      </trkpt>
      <trkpt lat="47.36431" lon="-1.34769">
        <ele>108</ele>
        <time>2015-03-18T15:27:04.000Z</time>
      </trkpt>
      <trkpt lat="47.36431" lon="-1.34756">
        <ele>108</ele>
        <time>2015-03-18T15:27:06.000Z</time>
      </trkpt>
      <trkpt lat="47.36431" lon="-1.34745">
        <ele>108</ele>
        <time>2015-03-18T15:27:08.000Z</time>
      </trkpt>
      <trkpt lat="47.36429" lon="-1.34733">
        <ele>109</ele>
        <time>2015-03-18T15:27:10.000Z</time>
      </trkpt>
      <trkpt lat="47.36429" lon="-1.34722">
        <ele>109</ele>
        <time>2015-03-18T15:27:12.000Z</time>
      </trkpt>
      <trkpt lat="47.36429" lon="-1.34722">
        <ele>109</ele>
        <time>2015-03-18T15:27:14.000Z</time>
      </trkpt>
      <trkpt lat="47.36426" lon="-1.34706">
        <ele>109</ele>
        <time>2015-03-18T15:27:16.000Z</time>
      </trkpt>
      <trkpt lat="47.36426" lon="-1.34706">
        <ele>109</ele>
        <time>2015-03-18T15:27:18.000Z</time>
      </trkpt>
      <trkpt lat="47.36425" lon="-1.3469">
        <ele>114</ele>
        <time>2015-03-18T15:27:20.000Z</time>
      </trkpt>
      <trkpt lat="47.36424" lon="-1.34679">
        <ele>114</ele>
        <time>2015-03-18T15:27:22.000Z</time>
      </trkpt>
      <trkpt lat="47.36424" lon="-1.34669">
        <ele>115</ele>
        <time>2015-03-18T15:27:24.000Z</time>
      </trkpt>
      <trkpt lat="47.36423" lon="-1.34659">
        <ele>115</ele>
        <time>2015-03-18T15:27:26.000Z</time>
      </trkpt>
      <trkpt lat="47.36422" lon="-1.34648">
        <ele>115</ele>
        <time>2015-03-18T15:27:28.000Z</time>
      </trkpt>
      <trkpt lat="47.36421" lon="-1.34636">
        <ele>116</ele>
        <time>2015-03-18T15:27:30.000Z</time>
      </trkpt>
      <trkpt lat="47.36421" lon="-1.34623">
        <ele>116</ele>
        <time>2015-03-18T15:27:32.000Z</time>
      </trkpt>
      <trkpt lat="47.36421" lon="-1.34609">
        <ele>120</ele>
        <time>2015-03-18T15:27:34.000Z</time>
      </trkpt>
      <trkpt lat="47.36422" lon="-1.346">
        <ele>123</ele>
        <time>2015-03-18T15:27:36.000Z</time>
      </trkpt>
      <trkpt lat="47.36423" lon="-1.34591">
        <ele>122</ele>
        <time>2015-03-18T15:27:38.000Z</time>
      </trkpt>
      <trkpt lat="47.36423" lon="-1.34581">
        <ele>123</ele>
        <time>2015-03-18T15:27:40.000Z</time>
      </trkpt>
      <trkpt lat="47.36422" lon="-1.34567">
        <ele>121</ele>
        <time>2015-03-18T15:27:42.000Z</time>
      </trkpt>
      <trkpt lat="47.3642" lon="-1.34552">
        <ele>119</ele>
        <time>2015-03-18T15:27:44.000Z</time>
      </trkpt>
      <trkpt lat="47.36419" lon="-1.34538">
        <ele>117</ele>
        <time>2015-03-18T15:27:46.000Z</time>
      </trkpt>
      <trkpt lat="47.36419" lon="-1.34525">
        <ele>118</ele>
        <time>2015-03-18T15:27:48.000Z</time>
      </trkpt>
      <trkpt lat="47.36419" lon="-1.34515">
        <ele>120</ele>
        <time>2015-03-18T15:27:50.000Z</time>
      </trkpt>
      <trkpt lat="47.3642" lon="-1.34506">
        <ele>119</ele>
        <time>2015-03-18T15:27:52.000Z</time>
      </trkpt>
      <trkpt lat="47.36425" lon="-1.34498">
        <ele>115</ele>
        <time>2015-03-18T15:27:54.000Z</time>
      </trkpt>
      <trkpt lat="47.36425" lon="-1.34498">
        <ele>115</ele>
        <time>2015-03-18T15:27:56.000Z</time>
      </trkpt>
      <trkpt lat="47.3643" lon="-1.34486">
        <ele>118</ele>
        <time>2015-03-18T15:27:58.000Z</time>
      </trkpt>
      <trkpt lat="47.36432" lon="-1.34477">
        <ele>119</ele>
        <time>2015-03-18T15:28:00.000Z</time>
      </trkpt>
      <trkpt lat="47.36432" lon="-1.34477">
        <ele>119</ele>
        <time>2015-03-18T15:28:02.000Z</time>
      </trkpt>
      <trkpt lat="47.36435" lon="-1.34465">
        <ele>121</ele>
        <time>2015-03-18T15:28:04.000Z</time>
      </trkpt>
      <trkpt lat="47.36435" lon="-1.34465">
        <ele>121</ele>
        <time>2015-03-18T15:28:06.000Z</time>
      </trkpt>
      <trkpt lat="47.36435" lon="-1.34465">
        <ele>121</ele>
        <time>2015-03-18T15:28:08.000Z</time>
      </trkpt>
      <trkpt lat="47.36435" lon="-1.34465">
        <ele>121</ele>
        <time>2015-03-18T15:28:10.000Z</time>
      </trkpt>
      <trkpt lat="47.36435" lon="-1.34465">
        <ele>121</ele>
        <time>2015-03-18T15:28:12.000Z</time>
      </trkpt>
      <trkpt lat="47.36435" lon="-1.34465">
        <ele>121</ele>
        <time>2015-03-18T15:28:14.000Z</time>
      </trkpt>
      <trkpt lat="47.36437" lon="-1.34448">
        <ele>113</ele>
        <time>2015-03-18T15:29:14.000Z</time>
      </trkpt>
      <trkpt lat="47.3644" lon="-1.34437">
        <ele>114</ele>
        <time>2015-03-18T15:29:16.000Z</time>
      </trkpt>
      <trkpt lat="47.36442" lon="-1.34429">
        <ele>114</ele>
        <time>2015-03-18T15:29:18.000Z</time>
      </trkpt>
      <trkpt lat="47.36443" lon="-1.3442">
        <ele>114</ele>
        <time>2015-03-18T15:29:20.000Z</time>
      </trkpt>
      <trkpt lat="47.36443" lon="-1.34412">
        <ele>113</ele>
        <time>2015-03-18T15:29:22.000Z</time>
      </trkpt>
      <trkpt lat="47.3644" lon="-1.34399">
        <ele>113</ele>
        <time>2015-03-18T15:29:24.000Z</time>
      </trkpt>
      <trkpt lat="47.3644" lon="-1.34399">
        <ele>113</ele>
        <time>2015-03-18T15:29:26.000Z</time>
      </trkpt>
      <trkpt lat="47.36429" lon="-1.34398">
        <ele>112</ele>
        <time>2015-03-18T15:29:28.000Z</time>
      </trkpt>
      <trkpt lat="47.36429" lon="-1.34398">
        <ele>112</ele>
        <time>2015-03-18T15:29:30.000Z</time>
      </trkpt>
      <trkpt lat="47.3642" lon="-1.34404">
        <ele>109</ele>
        <time>2015-03-18T15:29:32.000Z</time>
      </trkpt>
      <trkpt lat="47.36412" lon="-1.34411">
        <ele>108</ele>
        <time>2015-03-18T15:29:36.000Z</time>
      </trkpt>
      <trkpt lat="47.36412" lon="-1.34411">
        <ele>108</ele>
        <time>2015-03-18T15:29:38.000Z</time>
      </trkpt>
      <trkpt lat="47.36407" lon="-1.34419">
        <ele>106</ele>
        <time>2015-03-18T15:29:40.000Z</time>
      </trkpt>
      <trkpt lat="47.36407" lon="-1.34419">
        <ele>106</ele>
        <time>2015-03-18T15:29:42.000Z</time>
      </trkpt>
      <trkpt lat="47.364" lon="-1.34423">
        <ele>106</ele>
        <time>2015-03-18T15:29:44.000Z</time>
      </trkpt>
      <trkpt lat="47.36395" lon="-1.34408">
        <ele>107</ele>
        <time>2015-03-18T15:29:48.000Z</time>
      </trkpt>
      <trkpt lat="47.36394" lon="-1.34399">
        <ele>107</ele>
        <time>2015-03-18T15:29:50.000Z</time>
      </trkpt>
      <trkpt lat="47.36389" lon="-1.34386">
        <ele>108</ele>
        <time>2015-03-18T15:29:54.000Z</time>
      </trkpt>
      <trkpt lat="47.36382" lon="-1.34376">
        <ele>107</ele>
        <time>2015-03-18T15:29:58.000Z</time>
      </trkpt>
      <trkpt lat="47.36376" lon="-1.34377">
        <ele>107</ele>
        <time>2015-03-18T15:30:00.000Z</time>
      </trkpt>
      <trkpt lat="47.36369" lon="-1.34381">
        <ele>107</ele>
        <time>2015-03-18T15:30:02.000Z</time>
      </trkpt>
      <trkpt lat="47.36365" lon="-1.34386">
        <ele>108</ele>
        <time>2015-03-18T15:30:04.000Z</time>
      </trkpt>
      <trkpt lat="47.36365" lon="-1.34386">
        <ele>108</ele>
        <time>2015-03-18T15:30:06.000Z</time>
      </trkpt>
      <trkpt lat="47.36365" lon="-1.34386">
        <ele>108</ele>
        <time>2015-03-18T15:30:08.000Z</time>
      </trkpt>
      <trkpt lat="47.36365" lon="-1.34386">
        <ele>108</ele>
        <time>2015-03-18T15:30:10.000Z</time>
      </trkpt>
      <trkpt lat="47.36365" lon="-1.34386">
        <ele>108</ele>
        <time>2015-03-18T15:30:12.000Z</time>
      </trkpt>
      <trkpt lat="47.36365" lon="-1.34386">
        <ele>108</ele>
        <time>2015-03-18T15:30:14.000Z</time>
      </trkpt>
      <trkpt lat="47.36365" lon="-1.34386">
        <ele>108</ele>
        <time>2015-03-18T15:31:49.000Z</time>
      </trkpt>
    </trkseg>
  </trk>
</gpx>